<?xml version="1.0" encoding="UTF-8" standalone="no" ?>
<gpx xmlns="http://www.topografix.com/GPX/1/1" xmlns:xsi="http://www.w3.org/2001/XMLSchema-instance" xsi:schemaLocation="http://www.topografix.com/GPX/1/1 http://www.topografix.com/GPX/1/1/gpx.xsd" version="1.1" creator="VisuGPX - https://www.visugpx.com">
  <metadata>
    <name>Le Col d'Arsine</name>
    <desc><![CDATA[Les copains randonneurs du 04

Au départ du beau village de Le Casset. Itinéraire tres bien balisé
http://www.lescopainsrandonneurs04.fr/100-le-col-darsine-05/]]></desc>
  </metadata>
  <trk>
    <name><![CDATA[COLDARSINE 16:27:04]]></name>
    <trkseg>
      <trkpt lat="44.98669" lon="6.48229">
        <ele>1557.47</ele>
        <time>2019-09-04T07:01:13Z</time>
      </trkpt>
      <trkpt lat="44.9867" lon="6.48229">
        <ele>1557.47</ele>
        <time>2019-09-04T07:01:14Z</time>
      </trkpt>
      <trkpt lat="44.9867" lon="6.48231">
        <ele>1519.5</ele>
        <time>2019-09-04T07:01:17Z</time>
      </trkpt>
      <trkpt lat="44.9867" lon="6.48231">
        <ele>1519.5</ele>
        <time>2019-09-04T07:01:18Z</time>
      </trkpt>
      <trkpt lat="44.98668" lon="6.48233">
        <ele>1519.98</ele>
        <time>2019-09-04T07:01:31Z</time>
      </trkpt>
      <trkpt lat="44.98668" lon="6.48232">
        <ele>1519.98</ele>
        <time>2019-09-04T07:01:46Z</time>
      </trkpt>
      <trkpt lat="44.98668" lon="6.48232">
        <ele>1519.98</ele>
        <time>2019-09-04T07:01:56Z</time>
      </trkpt>
      <trkpt lat="44.98667" lon="6.4823">
        <ele>1518.54</ele>
        <time>2019-09-04T07:02:13Z</time>
      </trkpt>
      <trkpt lat="44.98669" lon="6.48229">
        <ele>1518.54</ele>
        <time>2019-09-04T07:02:30Z</time>
      </trkpt>
      <trkpt lat="44.98672" lon="6.48229">
        <ele>1518.54</ele>
        <time>2019-09-04T07:02:43Z</time>
      </trkpt>
      <trkpt lat="44.98671" lon="6.48228">
        <ele>1518.54</ele>
        <time>2019-09-04T07:02:56Z</time>
      </trkpt>
      <trkpt lat="44.98672" lon="6.48227">
        <ele>1519.98</ele>
        <time>2019-09-04T07:03:05Z</time>
      </trkpt>
      <trkpt lat="44.9867" lon="6.48222">
        <ele>1519.98</ele>
        <time>2019-09-04T07:03:28Z</time>
      </trkpt>
      <trkpt lat="44.98669" lon="6.4822">
        <ele>1519.5</ele>
        <time>2019-09-04T07:03:51Z</time>
      </trkpt>
      <trkpt lat="44.98671" lon="6.48226">
        <ele>1519.5</ele>
        <time>2019-09-04T07:04:09Z</time>
      </trkpt>
      <trkpt lat="44.98673" lon="6.48231">
        <ele>1519.5</ele>
        <time>2019-09-04T07:04:28Z</time>
      </trkpt>
      <trkpt lat="44.98669" lon="6.4824">
        <ele>1519.98</ele>
        <time>2019-09-04T07:04:48Z</time>
      </trkpt>
      <trkpt lat="44.98671" lon="6.48232">
        <ele>1519.98</ele>
        <time>2019-09-04T07:05:03Z</time>
      </trkpt>
      <trkpt lat="44.9867" lon="6.48233">
        <ele>1519.5</ele>
        <time>2019-09-04T07:05:36Z</time>
      </trkpt>
      <trkpt lat="44.98668" lon="6.48237">
        <ele>1519.5</ele>
        <time>2019-09-04T07:06:02Z</time>
      </trkpt>
      <trkpt lat="44.98665" lon="6.48239">
        <ele>1519.5</ele>
        <time>2019-09-04T07:06:17Z</time>
      </trkpt>
      <trkpt lat="44.9867" lon="6.4823">
        <ele>1519.5</ele>
        <time>2019-09-04T07:06:30Z</time>
      </trkpt>
      <trkpt lat="44.98671" lon="6.48228">
        <ele>1519.5</ele>
        <time>2019-09-04T07:06:43Z</time>
      </trkpt>
      <trkpt lat="44.98673" lon="6.48227">
        <ele>1519.5</ele>
        <time>2019-09-04T07:07:06Z</time>
      </trkpt>
      <trkpt lat="44.98675" lon="6.48229">
        <ele>1519.98</ele>
        <time>2019-09-04T07:07:30Z</time>
      </trkpt>
      <trkpt lat="44.98681" lon="6.48237">
        <ele>1519.98</ele>
        <time>2019-09-04T07:08:04Z</time>
      </trkpt>
      <trkpt lat="44.98675" lon="6.48232">
        <ele>1519.98</ele>
        <time>2019-09-04T07:08:19Z</time>
      </trkpt>
      <trkpt lat="44.98674" lon="6.48237">
        <ele>1519.98</ele>
        <time>2019-09-04T07:08:32Z</time>
      </trkpt>
      <trkpt lat="44.9867" lon="6.4823">
        <ele>1519.98</ele>
        <time>2019-09-04T07:08:55Z</time>
      </trkpt>
      <trkpt lat="44.98675" lon="6.48231">
        <ele>1520.46</ele>
        <time>2019-09-04T07:09:08Z</time>
      </trkpt>
      <trkpt lat="44.98676" lon="6.48227">
        <ele>1520.46</ele>
        <time>2019-09-04T07:09:34Z</time>
      </trkpt>
      <trkpt lat="44.98679" lon="6.48225">
        <ele>1520.46</ele>
        <time>2019-09-04T07:09:38Z</time>
      </trkpt>
      <trkpt lat="44.98694" lon="6.48213">
        <ele>1521.9</ele>
        <time>2019-09-04T07:09:53Z</time>
      </trkpt>
      <trkpt lat="44.98697" lon="6.48211">
        <ele>1522.39</ele>
        <time>2019-09-04T07:09:56Z</time>
      </trkpt>
      <trkpt lat="44.98717" lon="6.48202">
        <ele>1523.35</ele>
        <time>2019-09-04T07:10:10Z</time>
      </trkpt>
      <trkpt lat="44.98733" lon="6.48191">
        <ele>1524.31</ele>
        <time>2019-09-04T07:10:26Z</time>
      </trkpt>
      <trkpt lat="44.98739" lon="6.48184">
        <ele>1524.31</ele>
        <time>2019-09-04T07:10:33Z</time>
      </trkpt>
      <trkpt lat="44.9874" lon="6.48162">
        <ele>1524.79</ele>
        <time>2019-09-04T07:10:43Z</time>
      </trkpt>
      <trkpt lat="44.98744" lon="6.48135">
        <ele>1524.79</ele>
        <time>2019-09-04T07:11:00Z</time>
      </trkpt>
      <trkpt lat="44.98744" lon="6.48133">
        <ele>1524.79</ele>
        <time>2019-09-04T07:11:02Z</time>
      </trkpt>
      <trkpt lat="44.98744" lon="6.48131">
        <ele>1524.79</ele>
        <time>2019-09-04T07:11:03Z</time>
      </trkpt>
      <trkpt lat="44.98742" lon="6.48119">
        <ele>1524.79</ele>
        <time>2019-09-04T07:11:15Z</time>
      </trkpt>
      <trkpt lat="44.98737" lon="6.48104">
        <ele>1524.79</ele>
        <time>2019-09-04T07:11:29Z</time>
      </trkpt>
      <trkpt lat="44.98729" lon="6.48096">
        <ele>1524.79</ele>
        <time>2019-09-04T07:11:44Z</time>
      </trkpt>
      <trkpt lat="44.98728" lon="6.48093">
        <ele>1524.79</ele>
        <time>2019-09-04T07:12:06Z</time>
      </trkpt>
      <trkpt lat="44.98725" lon="6.48093">
        <ele>1524.79</ele>
        <time>2019-09-04T07:12:13Z</time>
      </trkpt>
      <trkpt lat="44.98708" lon="6.48077">
        <ele>1525.27</ele>
        <time>2019-09-04T07:12:32Z</time>
      </trkpt>
      <trkpt lat="44.9869" lon="6.48073">
        <ele>1525.75</ele>
        <time>2019-09-04T07:12:51Z</time>
      </trkpt>
      <trkpt lat="44.98673" lon="6.48069">
        <ele>1526.23</ele>
        <time>2019-09-04T07:13:08Z</time>
      </trkpt>
      <trkpt lat="44.9866" lon="6.48054">
        <ele>1527.19</ele>
        <time>2019-09-04T07:13:26Z</time>
      </trkpt>
      <trkpt lat="44.9865" lon="6.4803">
        <ele>1528.15</ele>
        <time>2019-09-04T07:13:45Z</time>
      </trkpt>
      <trkpt lat="44.98637" lon="6.48007">
        <ele>1529.11</ele>
        <time>2019-09-04T07:14:03Z</time>
      </trkpt>
      <trkpt lat="44.98628" lon="6.47988">
        <ele>1529.59</ele>
        <time>2019-09-04T07:14:18Z</time>
      </trkpt>
      <trkpt lat="44.98623" lon="6.47968">
        <ele>1531.52</ele>
        <time>2019-09-04T07:14:35Z</time>
      </trkpt>
      <trkpt lat="44.98617" lon="6.47938">
        <ele>1532.48</ele>
        <time>2019-09-04T07:14:54Z</time>
      </trkpt>
      <trkpt lat="44.98608" lon="6.47914">
        <ele>1533.44</ele>
        <time>2019-09-04T07:15:10Z</time>
      </trkpt>
      <trkpt lat="44.986" lon="6.47892">
        <ele>1534.88</ele>
        <time>2019-09-04T07:15:26Z</time>
      </trkpt>
      <trkpt lat="44.9859" lon="6.4787">
        <ele>1535.84</ele>
        <time>2019-09-04T07:15:43Z</time>
      </trkpt>
      <trkpt lat="44.98578" lon="6.47847">
        <ele>1536.8</ele>
        <time>2019-09-04T07:16:00Z</time>
      </trkpt>
      <trkpt lat="44.98568" lon="6.47824">
        <ele>1536.8</ele>
        <time>2019-09-04T07:16:18Z</time>
      </trkpt>
      <trkpt lat="44.98557" lon="6.47795">
        <ele>1537.29</ele>
        <time>2019-09-04T07:16:38Z</time>
      </trkpt>
      <trkpt lat="44.9855" lon="6.47767">
        <ele>1537.77</ele>
        <time>2019-09-04T07:16:55Z</time>
      </trkpt>
      <trkpt lat="44.98545" lon="6.47759">
        <ele>1538.25</ele>
        <time>2019-09-04T07:17:13Z</time>
      </trkpt>
      <trkpt lat="44.9855" lon="6.47753">
        <ele>1538.25</ele>
        <time>2019-09-04T07:17:30Z</time>
      </trkpt>
      <trkpt lat="44.98545" lon="6.47739">
        <ele>1537.77</ele>
        <time>2019-09-04T07:17:43Z</time>
      </trkpt>
      <trkpt lat="44.98538" lon="6.47708">
        <ele>1539.69</ele>
        <time>2019-09-04T07:18:02Z</time>
      </trkpt>
      <trkpt lat="44.98535" lon="6.47688">
        <ele>1540.17</ele>
        <time>2019-09-04T07:18:12Z</time>
      </trkpt>
      <trkpt lat="44.98531" lon="6.47669">
        <ele>1541.13</ele>
        <time>2019-09-04T07:18:24Z</time>
      </trkpt>
      <trkpt lat="44.98525" lon="6.47648">
        <ele>1542.09</ele>
        <time>2019-09-04T07:18:40Z</time>
      </trkpt>
      <trkpt lat="44.9852" lon="6.47622">
        <ele>1543.53</ele>
        <time>2019-09-04T07:18:58Z</time>
      </trkpt>
      <trkpt lat="44.98513" lon="6.47599">
        <ele>1544.5</ele>
        <time>2019-09-04T07:19:15Z</time>
      </trkpt>
      <trkpt lat="44.98504" lon="6.47574">
        <ele>1546.42</ele>
        <time>2019-09-04T07:19:30Z</time>
      </trkpt>
      <trkpt lat="44.98501" lon="6.47567">
        <ele>1545.94</ele>
        <time>2019-09-04T07:19:35Z</time>
      </trkpt>
      <trkpt lat="44.98487" lon="6.47545">
        <ele>1547.38</ele>
        <time>2019-09-04T07:19:53Z</time>
      </trkpt>
      <trkpt lat="44.98479" lon="6.47535">
        <ele>1547.86</ele>
        <time>2019-09-04T07:20:03Z</time>
      </trkpt>
      <trkpt lat="44.98463" lon="6.47511">
        <ele>1548.82</ele>
        <time>2019-09-04T07:20:20Z</time>
      </trkpt>
      <trkpt lat="44.98459" lon="6.47488">
        <ele>1549.78</ele>
        <time>2019-09-04T07:20:35Z</time>
      </trkpt>
      <trkpt lat="44.98464" lon="6.47477">
        <ele>1550.26</ele>
        <time>2019-09-04T07:20:49Z</time>
      </trkpt>
      <trkpt lat="44.98461" lon="6.47463">
        <ele>1551.22</ele>
        <time>2019-09-04T07:21:08Z</time>
      </trkpt>
      <trkpt lat="44.98457" lon="6.47432">
        <ele>1553.15</ele>
        <time>2019-09-04T07:21:25Z</time>
      </trkpt>
      <trkpt lat="44.98455" lon="6.47407">
        <ele>1554.59</ele>
        <time>2019-09-04T07:21:40Z</time>
      </trkpt>
      <trkpt lat="44.98451" lon="6.47386">
        <ele>1555.07</ele>
        <time>2019-09-04T07:21:54Z</time>
      </trkpt>
      <trkpt lat="44.98448" lon="6.47365">
        <ele>1556.51</ele>
        <time>2019-09-04T07:22:11Z</time>
      </trkpt>
      <trkpt lat="44.9844" lon="6.47348">
        <ele>1557.47</ele>
        <time>2019-09-04T07:22:25Z</time>
      </trkpt>
      <trkpt lat="44.98439" lon="6.47347">
        <ele>1557.47</ele>
        <time>2019-09-04T07:22:26Z</time>
      </trkpt>
      <trkpt lat="44.98431" lon="6.47328">
        <ele>1558.43</ele>
        <time>2019-09-04T07:22:42Z</time>
      </trkpt>
      <trkpt lat="44.98429" lon="6.47298">
        <ele>1559.4</ele>
        <time>2019-09-04T07:22:58Z</time>
      </trkpt>
      <trkpt lat="44.98426" lon="6.47289">
        <ele>1559.88</ele>
        <time>2019-09-04T07:23:02Z</time>
      </trkpt>
      <trkpt lat="44.9841" lon="6.47245">
        <ele>1562.28</ele>
        <time>2019-09-04T07:23:19Z</time>
      </trkpt>
      <trkpt lat="44.9841" lon="6.47238">
        <ele>1562.76</ele>
        <time>2019-09-04T07:23:25Z</time>
      </trkpt>
      <trkpt lat="44.98407" lon="6.47221">
        <ele>1563.72</ele>
        <time>2019-09-04T07:23:40Z</time>
      </trkpt>
      <trkpt lat="44.98399" lon="6.472">
        <ele>1564.68</ele>
        <time>2019-09-04T07:23:53Z</time>
      </trkpt>
      <trkpt lat="44.98398" lon="6.47198">
        <ele>1565.16</ele>
        <time>2019-09-04T07:23:54Z</time>
      </trkpt>
      <trkpt lat="44.98385" lon="6.47171">
        <ele>1566.12</ele>
        <time>2019-09-04T07:24:11Z</time>
      </trkpt>
      <trkpt lat="44.98387" lon="6.47161">
        <ele>1567.57</ele>
        <time>2019-09-04T07:24:24Z</time>
      </trkpt>
      <trkpt lat="44.98378" lon="6.47146">
        <ele>1568.53</ele>
        <time>2019-09-04T07:24:44Z</time>
      </trkpt>
      <trkpt lat="44.98375" lon="6.4714">
        <ele>1568.53</ele>
        <time>2019-09-04T07:25:03Z</time>
      </trkpt>
      <trkpt lat="44.98376" lon="6.47142">
        <ele>1568.53</ele>
        <time>2019-09-04T07:25:19Z</time>
      </trkpt>
      <trkpt lat="44.98383" lon="6.47145">
        <ele>1568.05</ele>
        <time>2019-09-04T07:25:50Z</time>
      </trkpt>
      <trkpt lat="44.98377" lon="6.47146">
        <ele>1568.05</ele>
        <time>2019-09-04T07:26:07Z</time>
      </trkpt>
      <trkpt lat="44.98374" lon="6.47143">
        <ele>1568.53</ele>
        <time>2019-09-04T07:26:42Z</time>
      </trkpt>
      <trkpt lat="44.98384" lon="6.47153">
        <ele>1568.53</ele>
        <time>2019-09-04T07:27:09Z</time>
      </trkpt>
      <trkpt lat="44.98377" lon="6.47148">
        <ele>1568.53</ele>
        <time>2019-09-04T07:27:30Z</time>
      </trkpt>
      <trkpt lat="44.9837" lon="6.47141">
        <ele>1568.53</ele>
        <time>2019-09-04T07:28:03Z</time>
      </trkpt>
      <trkpt lat="44.98362" lon="6.4713">
        <ele>1569.49</ele>
        <time>2019-09-04T07:28:20Z</time>
      </trkpt>
      <trkpt lat="44.9835" lon="6.47117">
        <ele>1570.93</ele>
        <time>2019-09-04T07:28:36Z</time>
      </trkpt>
      <trkpt lat="44.98344" lon="6.47105">
        <ele>1572.37</ele>
        <time>2019-09-04T07:28:51Z</time>
      </trkpt>
      <trkpt lat="44.9835" lon="6.47088">
        <ele>1574.3</ele>
        <time>2019-09-04T07:29:07Z</time>
      </trkpt>
      <trkpt lat="44.98345" lon="6.47079">
        <ele>1576.22</ele>
        <time>2019-09-04T07:29:21Z</time>
      </trkpt>
      <trkpt lat="44.9833" lon="6.47098">
        <ele>1577.66</ele>
        <time>2019-09-04T07:29:38Z</time>
      </trkpt>
      <trkpt lat="44.98319" lon="6.47111">
        <ele>1579.58</ele>
        <time>2019-09-04T07:29:55Z</time>
      </trkpt>
      <trkpt lat="44.98307" lon="6.47091">
        <ele>1581.51</ele>
        <time>2019-09-04T07:30:11Z</time>
      </trkpt>
      <trkpt lat="44.98306" lon="6.47069">
        <ele>1583.43</ele>
        <time>2019-09-04T07:30:26Z</time>
      </trkpt>
      <trkpt lat="44.98324" lon="6.47058">
        <ele>1585.35</ele>
        <time>2019-09-04T07:30:44Z</time>
      </trkpt>
      <trkpt lat="44.98339" lon="6.47048">
        <ele>1586.79</ele>
        <time>2019-09-04T07:31:01Z</time>
      </trkpt>
      <trkpt lat="44.98353" lon="6.47033">
        <ele>1588.72</ele>
        <time>2019-09-04T07:31:20Z</time>
      </trkpt>
      <trkpt lat="44.98337" lon="6.47014">
        <ele>1591.12</ele>
        <time>2019-09-04T07:31:40Z</time>
      </trkpt>
      <trkpt lat="44.98318" lon="6.47005">
        <ele>1593.04</ele>
        <time>2019-09-04T07:31:59Z</time>
      </trkpt>
      <trkpt lat="44.98301" lon="6.46994">
        <ele>1594.48</ele>
        <time>2019-09-04T07:32:15Z</time>
      </trkpt>
      <trkpt lat="44.98292" lon="6.4699">
        <ele>1595.93</ele>
        <time>2019-09-04T07:32:30Z</time>
      </trkpt>
      <trkpt lat="44.98274" lon="6.4697">
        <ele>1597.85</ele>
        <time>2019-09-04T07:32:49Z</time>
      </trkpt>
      <trkpt lat="44.9826" lon="6.46955">
        <ele>1599.29</ele>
        <time>2019-09-04T07:33:07Z</time>
      </trkpt>
      <trkpt lat="44.9825" lon="6.46941">
        <ele>1601.21</ele>
        <time>2019-09-04T07:33:27Z</time>
      </trkpt>
      <trkpt lat="44.98243" lon="6.46921">
        <ele>1602.66</ele>
        <time>2019-09-04T07:33:43Z</time>
      </trkpt>
      <trkpt lat="44.98233" lon="6.46904">
        <ele>1604.58</ele>
        <time>2019-09-04T07:34:00Z</time>
      </trkpt>
      <trkpt lat="44.98224" lon="6.46885">
        <ele>1607.46</ele>
        <time>2019-09-04T07:34:17Z</time>
      </trkpt>
      <trkpt lat="44.98206" lon="6.46868">
        <ele>1609.86</ele>
        <time>2019-09-04T07:34:33Z</time>
      </trkpt>
      <trkpt lat="44.98192" lon="6.46858">
        <ele>1611.79</ele>
        <time>2019-09-04T07:34:51Z</time>
      </trkpt>
      <trkpt lat="44.98174" lon="6.46841">
        <ele>1613.71</ele>
        <time>2019-09-04T07:35:07Z</time>
      </trkpt>
      <trkpt lat="44.98167" lon="6.46832">
        <ele>1616.11</ele>
        <time>2019-09-04T07:35:24Z</time>
      </trkpt>
      <trkpt lat="44.98167" lon="6.46806">
        <ele>1617.56</ele>
        <time>2019-09-04T07:35:41Z</time>
      </trkpt>
      <trkpt lat="44.9816" lon="6.46784">
        <ele>1618.52</ele>
        <time>2019-09-04T07:35:58Z</time>
      </trkpt>
      <trkpt lat="44.98153" lon="6.46773">
        <ele>1621.4</ele>
        <time>2019-09-04T07:36:15Z</time>
      </trkpt>
      <trkpt lat="44.98144" lon="6.46764">
        <ele>1624.77</ele>
        <time>2019-09-04T07:36:32Z</time>
      </trkpt>
      <trkpt lat="44.98136" lon="6.46765">
        <ele>1628.61</ele>
        <time>2019-09-04T07:36:47Z</time>
      </trkpt>
      <trkpt lat="44.98133" lon="6.46763">
        <ele>1628.61</ele>
        <time>2019-09-04T07:36:50Z</time>
      </trkpt>
      <trkpt lat="44.98123" lon="6.46763">
        <ele>1630.05</ele>
        <time>2019-09-04T07:37:06Z</time>
      </trkpt>
      <trkpt lat="44.9813" lon="6.46764">
        <ele>1630.05</ele>
        <time>2019-09-04T07:37:35Z</time>
      </trkpt>
      <trkpt lat="44.98128" lon="6.46772">
        <ele>1630.05</ele>
        <time>2019-09-04T07:38:04Z</time>
      </trkpt>
      <trkpt lat="44.98135" lon="6.4678">
        <ele>1630.05</ele>
        <time>2019-09-04T07:38:36Z</time>
      </trkpt>
      <trkpt lat="44.98121" lon="6.46769">
        <ele>1630.05</ele>
        <time>2019-09-04T07:39:01Z</time>
      </trkpt>
      <trkpt lat="44.98117" lon="6.46764">
        <ele>1630.05</ele>
        <time>2019-09-04T07:39:31Z</time>
      </trkpt>
      <trkpt lat="44.98115" lon="6.46767">
        <ele>1630.53</ele>
        <time>2019-09-04T07:39:53Z</time>
      </trkpt>
      <trkpt lat="44.9812" lon="6.46772">
        <ele>1631.01</ele>
        <time>2019-09-04T07:40:25Z</time>
      </trkpt>
      <trkpt lat="44.98109" lon="6.46762">
        <ele>1631.01</ele>
        <time>2019-09-04T07:40:48Z</time>
      </trkpt>
      <trkpt lat="44.98108" lon="6.46751">
        <ele>1631.49</ele>
        <time>2019-09-04T07:41:08Z</time>
      </trkpt>
      <trkpt lat="44.98108" lon="6.46743">
        <ele>1632.94</ele>
        <time>2019-09-04T07:41:24Z</time>
      </trkpt>
      <trkpt lat="44.98098" lon="6.46731">
        <ele>1634.38</ele>
        <time>2019-09-04T07:41:40Z</time>
      </trkpt>
      <trkpt lat="44.9809" lon="6.46718">
        <ele>1636.3</ele>
        <time>2019-09-04T07:41:57Z</time>
      </trkpt>
      <trkpt lat="44.9808" lon="6.46701">
        <ele>1637.74</ele>
        <time>2019-09-04T07:42:13Z</time>
      </trkpt>
      <trkpt lat="44.98076" lon="6.46687">
        <ele>1639.67</ele>
        <time>2019-09-04T07:42:29Z</time>
      </trkpt>
      <trkpt lat="44.98073" lon="6.46661">
        <ele>1641.59</ele>
        <time>2019-09-04T07:42:48Z</time>
      </trkpt>
      <trkpt lat="44.98066" lon="6.46645">
        <ele>1643.51</ele>
        <time>2019-09-04T07:43:01Z</time>
      </trkpt>
      <trkpt lat="44.98055" lon="6.4662">
        <ele>1645.43</ele>
        <time>2019-09-04T07:43:18Z</time>
      </trkpt>
      <trkpt lat="44.98058" lon="6.46594">
        <ele>1647.36</ele>
        <time>2019-09-04T07:43:34Z</time>
      </trkpt>
      <trkpt lat="44.98052" lon="6.46569">
        <ele>1649.28</ele>
        <time>2019-09-04T07:43:51Z</time>
      </trkpt>
      <trkpt lat="44.98057" lon="6.46542">
        <ele>1651.2</ele>
        <time>2019-09-04T07:44:08Z</time>
      </trkpt>
      <trkpt lat="44.98054" lon="6.46531">
        <ele>1652.64</ele>
        <time>2019-09-04T07:44:25Z</time>
      </trkpt>
      <trkpt lat="44.98057" lon="6.46538">
        <ele>1652.64</ele>
        <time>2019-09-04T07:44:55Z</time>
      </trkpt>
      <trkpt lat="44.98057" lon="6.4653">
        <ele>1653.12</ele>
        <time>2019-09-04T07:45:13Z</time>
      </trkpt>
      <trkpt lat="44.98041" lon="6.4652">
        <ele>1654.09</ele>
        <time>2019-09-04T07:45:29Z</time>
      </trkpt>
      <trkpt lat="44.98032" lon="6.46531">
        <ele>1655.53</ele>
        <time>2019-09-04T07:45:43Z</time>
      </trkpt>
      <trkpt lat="44.98027" lon="6.46554">
        <ele>1656.97</ele>
        <time>2019-09-04T07:46:00Z</time>
      </trkpt>
      <trkpt lat="44.98024" lon="6.46571">
        <ele>1657.93</ele>
        <time>2019-09-04T07:46:19Z</time>
      </trkpt>
      <trkpt lat="44.98023" lon="6.4659">
        <ele>1659.37</ele>
        <time>2019-09-04T07:46:31Z</time>
      </trkpt>
      <trkpt lat="44.98024" lon="6.466">
        <ele>1659.85</ele>
        <time>2019-09-04T07:46:35Z</time>
      </trkpt>
      <trkpt lat="44.98021" lon="6.46606">
        <ele>1660.81</ele>
        <time>2019-09-04T07:46:40Z</time>
      </trkpt>
      <trkpt lat="44.98018" lon="6.46617">
        <ele>1661.3</ele>
        <time>2019-09-04T07:46:50Z</time>
      </trkpt>
      <trkpt lat="44.98016" lon="6.46617">
        <ele>1662.26</ele>
        <time>2019-09-04T07:46:53Z</time>
      </trkpt>
      <trkpt lat="44.98013" lon="6.46617">
        <ele>1662.26</ele>
        <time>2019-09-04T07:46:55Z</time>
      </trkpt>
      <trkpt lat="44.98009" lon="6.46604">
        <ele>1664.18</ele>
        <time>2019-09-04T07:47:06Z</time>
      </trkpt>
      <trkpt lat="44.98005" lon="6.46592">
        <ele>1664.66</ele>
        <time>2019-09-04T07:47:17Z</time>
      </trkpt>
      <trkpt lat="44.97999" lon="6.46573">
        <ele>1666.58</ele>
        <time>2019-09-04T07:47:34Z</time>
      </trkpt>
      <trkpt lat="44.97992" lon="6.46543">
        <ele>1668.51</ele>
        <time>2019-09-04T07:47:52Z</time>
      </trkpt>
      <trkpt lat="44.97981" lon="6.46516">
        <ele>1670.43</ele>
        <time>2019-09-04T07:48:10Z</time>
      </trkpt>
      <trkpt lat="44.97966" lon="6.465">
        <ele>1672.35</ele>
        <time>2019-09-04T07:48:24Z</time>
      </trkpt>
      <trkpt lat="44.97958" lon="6.4649">
        <ele>1672.83</ele>
        <time>2019-09-04T07:48:34Z</time>
      </trkpt>
      <trkpt lat="44.97941" lon="6.46473">
        <ele>1674.75</ele>
        <time>2019-09-04T07:48:52Z</time>
      </trkpt>
      <trkpt lat="44.97936" lon="6.46461">
        <ele>1675.72</ele>
        <time>2019-09-04T07:49:03Z</time>
      </trkpt>
      <trkpt lat="44.97924" lon="6.46444">
        <ele>1678.12</ele>
        <time>2019-09-04T07:49:20Z</time>
      </trkpt>
      <trkpt lat="44.97919" lon="6.46424">
        <ele>1679.08</ele>
        <time>2019-09-04T07:49:33Z</time>
      </trkpt>
      <trkpt lat="44.97914" lon="6.46412">
        <ele>1680.04</ele>
        <time>2019-09-04T07:49:49Z</time>
      </trkpt>
      <trkpt lat="44.97911" lon="6.46399">
        <ele>1681</ele>
        <time>2019-09-04T07:50:04Z</time>
      </trkpt>
      <trkpt lat="44.97905" lon="6.46378">
        <ele>1683.41</ele>
        <time>2019-09-04T07:50:22Z</time>
      </trkpt>
      <trkpt lat="44.979" lon="6.46363">
        <ele>1684.37</ele>
        <time>2019-09-04T07:50:37Z</time>
      </trkpt>
      <trkpt lat="44.97885" lon="6.46361">
        <ele>1684.37</ele>
        <time>2019-09-04T07:50:46Z</time>
      </trkpt>
      <trkpt lat="44.9787" lon="6.46346">
        <ele>1684.37</ele>
        <time>2019-09-04T07:51:03Z</time>
      </trkpt>
      <trkpt lat="44.97867" lon="6.46337">
        <ele>1684.85</ele>
        <time>2019-09-04T07:51:20Z</time>
      </trkpt>
      <trkpt lat="44.97873" lon="6.46319">
        <ele>1686.77</ele>
        <time>2019-09-04T07:51:36Z</time>
      </trkpt>
      <trkpt lat="44.97874" lon="6.46319">
        <ele>1686.77</ele>
        <time>2019-09-04T07:51:37Z</time>
      </trkpt>
      <trkpt lat="44.97877" lon="6.46314">
        <ele>1688.21</ele>
        <time>2019-09-04T07:51:49Z</time>
      </trkpt>
      <trkpt lat="44.97877" lon="6.4631">
        <ele>1688.21</ele>
        <time>2019-09-04T07:51:59Z</time>
      </trkpt>
      <trkpt lat="44.97876" lon="6.46311">
        <ele>1689.17</ele>
        <time>2019-09-04T07:52:21Z</time>
      </trkpt>
      <trkpt lat="44.97868" lon="6.46303">
        <ele>1689.65</ele>
        <time>2019-09-04T07:52:32Z</time>
      </trkpt>
      <trkpt lat="44.97866" lon="6.46302">
        <ele>1690.14</ele>
        <time>2019-09-04T07:52:34Z</time>
      </trkpt>
      <trkpt lat="44.97853" lon="6.46293">
        <ele>1693.02</ele>
        <time>2019-09-04T07:52:48Z</time>
      </trkpt>
      <trkpt lat="44.97845" lon="6.46294">
        <ele>1693.02</ele>
        <time>2019-09-04T07:52:54Z</time>
      </trkpt>
      <trkpt lat="44.97828" lon="6.46288">
        <ele>1694.94</ele>
        <time>2019-09-04T07:53:09Z</time>
      </trkpt>
      <trkpt lat="44.97822" lon="6.4628">
        <ele>1696.38</ele>
        <time>2019-09-04T07:53:20Z</time>
      </trkpt>
      <trkpt lat="44.97809" lon="6.46272">
        <ele>1698.31</ele>
        <time>2019-09-04T07:53:34Z</time>
      </trkpt>
      <trkpt lat="44.97807" lon="6.4627">
        <ele>1698.31</ele>
        <time>2019-09-04T07:54:01Z</time>
      </trkpt>
      <trkpt lat="44.97805" lon="6.46269">
        <ele>1698.31</ele>
        <time>2019-09-04T07:54:03Z</time>
      </trkpt>
      <trkpt lat="44.97803" lon="6.46267">
        <ele>1699.75</ele>
        <time>2019-09-04T07:54:09Z</time>
      </trkpt>
      <trkpt lat="44.97801" lon="6.46271">
        <ele>1700.23</ele>
        <time>2019-09-04T07:54:16Z</time>
      </trkpt>
      <trkpt lat="44.97798" lon="6.46273">
        <ele>1700.23</ele>
        <time>2019-09-04T07:54:30Z</time>
      </trkpt>
      <trkpt lat="44.97788" lon="6.46267">
        <ele>1701.19</ele>
        <time>2019-09-04T07:54:40Z</time>
      </trkpt>
      <trkpt lat="44.97779" lon="6.4626">
        <ele>1703.11</ele>
        <time>2019-09-04T07:54:54Z</time>
      </trkpt>
      <trkpt lat="44.97769" lon="6.46243">
        <ele>1705.52</ele>
        <time>2019-09-04T07:55:08Z</time>
      </trkpt>
      <trkpt lat="44.97768" lon="6.46237">
        <ele>1706</ele>
        <time>2019-09-04T07:55:12Z</time>
      </trkpt>
      <trkpt lat="44.97759" lon="6.46219">
        <ele>1707.92</ele>
        <time>2019-09-04T07:55:27Z</time>
      </trkpt>
      <trkpt lat="44.9775" lon="6.4621">
        <ele>1709.36</ele>
        <time>2019-09-04T07:55:40Z</time>
      </trkpt>
      <trkpt lat="44.97747" lon="6.46198">
        <ele>1710.8</ele>
        <time>2019-09-04T07:55:57Z</time>
      </trkpt>
      <trkpt lat="44.97748" lon="6.46192">
        <ele>1711.76</ele>
        <time>2019-09-04T07:56:01Z</time>
      </trkpt>
      <trkpt lat="44.97746" lon="6.46179">
        <ele>1713.21</ele>
        <time>2019-09-04T07:56:14Z</time>
      </trkpt>
      <trkpt lat="44.9775" lon="6.46186">
        <ele>1712.73</ele>
        <time>2019-09-04T07:56:36Z</time>
      </trkpt>
      <trkpt lat="44.97749" lon="6.46181">
        <ele>1712.73</ele>
        <time>2019-09-04T07:57:03Z</time>
      </trkpt>
      <trkpt lat="44.97751" lon="6.4618">
        <ele>1712.73</ele>
        <time>2019-09-04T07:57:27Z</time>
      </trkpt>
      <trkpt lat="44.9775" lon="6.4618">
        <ele>1713.21</ele>
        <time>2019-09-04T07:57:47Z</time>
      </trkpt>
      <trkpt lat="44.97751" lon="6.46186">
        <ele>1713.21</ele>
        <time>2019-09-04T07:58:07Z</time>
      </trkpt>
      <trkpt lat="44.97756" lon="6.46181">
        <ele>1713.21</ele>
        <time>2019-09-04T07:58:32Z</time>
      </trkpt>
      <trkpt lat="44.97751" lon="6.46173">
        <ele>1713.21</ele>
        <time>2019-09-04T07:58:55Z</time>
      </trkpt>
      <trkpt lat="44.97751" lon="6.46174">
        <ele>1713.21</ele>
        <time>2019-09-04T07:59:18Z</time>
      </trkpt>
      <trkpt lat="44.97746" lon="6.46169">
        <ele>1713.21</ele>
        <time>2019-09-04T07:59:39Z</time>
      </trkpt>
      <trkpt lat="44.97748" lon="6.46165">
        <ele>1713.69</ele>
        <time>2019-09-04T07:59:57Z</time>
      </trkpt>
      <trkpt lat="44.97747" lon="6.46161">
        <ele>1714.17</ele>
        <time>2019-09-04T08:00:01Z</time>
      </trkpt>
      <trkpt lat="44.97745" lon="6.46153">
        <ele>1714.65</ele>
        <time>2019-09-04T08:00:08Z</time>
      </trkpt>
      <trkpt lat="44.97744" lon="6.4615">
        <ele>1715.13</ele>
        <time>2019-09-04T08:00:10Z</time>
      </trkpt>
      <trkpt lat="44.97737" lon="6.46132">
        <ele>1717.53</ele>
        <time>2019-09-04T08:00:23Z</time>
      </trkpt>
      <trkpt lat="44.97733" lon="6.46125">
        <ele>1718.01</ele>
        <time>2019-09-04T08:00:29Z</time>
      </trkpt>
      <trkpt lat="44.9773" lon="6.46117">
        <ele>1718.97</ele>
        <time>2019-09-04T08:00:32Z</time>
      </trkpt>
      <trkpt lat="44.97714" lon="6.46097">
        <ele>1721.38</ele>
        <time>2019-09-04T08:00:47Z</time>
      </trkpt>
      <trkpt lat="44.97707" lon="6.46083">
        <ele>1723.3</ele>
        <time>2019-09-04T08:00:59Z</time>
      </trkpt>
      <trkpt lat="44.97712" lon="6.46078">
        <ele>1725.22</ele>
        <time>2019-09-04T08:01:13Z</time>
      </trkpt>
      <trkpt lat="44.97711" lon="6.46063">
        <ele>1727.15</ele>
        <time>2019-09-04T08:01:25Z</time>
      </trkpt>
      <trkpt lat="44.97706" lon="6.46053">
        <ele>1729.07</ele>
        <time>2019-09-04T08:01:36Z</time>
      </trkpt>
      <trkpt lat="44.97696" lon="6.46025">
        <ele>1731.47</ele>
        <time>2019-09-04T08:01:49Z</time>
      </trkpt>
      <trkpt lat="44.97696" lon="6.46012">
        <ele>1732.91</ele>
        <time>2019-09-04T08:01:59Z</time>
      </trkpt>
      <trkpt lat="44.97699" lon="6.46001">
        <ele>1735.32</ele>
        <time>2019-09-04T08:02:11Z</time>
      </trkpt>
      <trkpt lat="44.97689" lon="6.45984">
        <ele>1737.72</ele>
        <time>2019-09-04T08:02:24Z</time>
      </trkpt>
      <trkpt lat="44.97689" lon="6.45972">
        <ele>1740.12</ele>
        <time>2019-09-04T08:02:36Z</time>
      </trkpt>
      <trkpt lat="44.97682" lon="6.45947">
        <ele>1742.53</ele>
        <time>2019-09-04T08:02:48Z</time>
      </trkpt>
      <trkpt lat="44.97681" lon="6.45935">
        <ele>1743.97</ele>
        <time>2019-09-04T08:02:59Z</time>
      </trkpt>
      <trkpt lat="44.97681" lon="6.45929">
        <ele>1743.97</ele>
        <time>2019-09-04T08:03:02Z</time>
      </trkpt>
      <trkpt lat="44.97684" lon="6.45914">
        <ele>1745.41</ele>
        <time>2019-09-04T08:03:14Z</time>
      </trkpt>
      <trkpt lat="44.97688" lon="6.45901">
        <ele>1746.85</ele>
        <time>2019-09-04T08:03:26Z</time>
      </trkpt>
      <trkpt lat="44.97685" lon="6.45899">
        <ele>1746.85</ele>
        <time>2019-09-04T08:03:46Z</time>
      </trkpt>
      <trkpt lat="44.97688" lon="6.45905">
        <ele>1746.85</ele>
        <time>2019-09-04T08:04:13Z</time>
      </trkpt>
      <trkpt lat="44.97689" lon="6.45906">
        <ele>1746.85</ele>
        <time>2019-09-04T08:04:28Z</time>
      </trkpt>
      <trkpt lat="44.97691" lon="6.45908">
        <ele>1746.85</ele>
        <time>2019-09-04T08:04:48Z</time>
      </trkpt>
      <trkpt lat="44.97692" lon="6.45902">
        <ele>1746.85</ele>
        <time>2019-09-04T08:04:51Z</time>
      </trkpt>
      <trkpt lat="44.97686" lon="6.45882">
        <ele>1748.78</ele>
        <time>2019-09-04T08:05:04Z</time>
      </trkpt>
      <trkpt lat="44.97677" lon="6.45865">
        <ele>1751.66</ele>
        <time>2019-09-04T08:05:18Z</time>
      </trkpt>
      <trkpt lat="44.97671" lon="6.45847">
        <ele>1754.54</ele>
        <time>2019-09-04T08:05:34Z</time>
      </trkpt>
      <trkpt lat="44.9767" lon="6.45833">
        <ele>1756.47</ele>
        <time>2019-09-04T08:05:46Z</time>
      </trkpt>
      <trkpt lat="44.97665" lon="6.45818">
        <ele>1758.87</ele>
        <time>2019-09-04T08:05:59Z</time>
      </trkpt>
      <trkpt lat="44.97667" lon="6.45796">
        <ele>1760.31</ele>
        <time>2019-09-04T08:06:12Z</time>
      </trkpt>
      <trkpt lat="44.97669" lon="6.45782">
        <ele>1762.23</ele>
        <time>2019-09-04T08:06:25Z</time>
      </trkpt>
      <trkpt lat="44.97675" lon="6.45774">
        <ele>1762.71</ele>
        <time>2019-09-04T08:06:41Z</time>
      </trkpt>
      <trkpt lat="44.97675" lon="6.45759">
        <ele>1764.64</ele>
        <time>2019-09-04T08:06:52Z</time>
      </trkpt>
      <trkpt lat="44.97671" lon="6.45742">
        <ele>1767.52</ele>
        <time>2019-09-04T08:07:04Z</time>
      </trkpt>
      <trkpt lat="44.97669" lon="6.45727">
        <ele>1768.96</ele>
        <time>2019-09-04T08:07:15Z</time>
      </trkpt>
      <trkpt lat="44.97667" lon="6.45718">
        <ele>1770.89</ele>
        <time>2019-09-04T08:07:26Z</time>
      </trkpt>
      <trkpt lat="44.97664" lon="6.45706">
        <ele>1772.81</ele>
        <time>2019-09-04T08:07:37Z</time>
      </trkpt>
      <trkpt lat="44.9766" lon="6.45696">
        <ele>1775.21</ele>
        <time>2019-09-04T08:07:49Z</time>
      </trkpt>
      <trkpt lat="44.97657" lon="6.45681">
        <ele>1777.61</ele>
        <time>2019-09-04T08:08:01Z</time>
      </trkpt>
      <trkpt lat="44.97649" lon="6.45677">
        <ele>1779.54</ele>
        <time>2019-09-04T08:08:11Z</time>
      </trkpt>
      <trkpt lat="44.97647" lon="6.45676">
        <ele>1780.02</ele>
        <time>2019-09-04T08:08:13Z</time>
      </trkpt>
      <trkpt lat="44.9764" lon="6.45673">
        <ele>1780.98</ele>
        <time>2019-09-04T08:08:26Z</time>
      </trkpt>
      <trkpt lat="44.9764" lon="6.45678">
        <ele>1781.46</ele>
        <time>2019-09-04T08:08:41Z</time>
      </trkpt>
      <trkpt lat="44.97635" lon="6.45666">
        <ele>1783.86</ele>
        <time>2019-09-04T08:08:55Z</time>
      </trkpt>
      <trkpt lat="44.97628" lon="6.45651">
        <ele>1787.23</ele>
        <time>2019-09-04T08:09:10Z</time>
      </trkpt>
      <trkpt lat="44.97624" lon="6.45636">
        <ele>1790.59</ele>
        <time>2019-09-04T08:09:25Z</time>
      </trkpt>
      <trkpt lat="44.97618" lon="6.45623">
        <ele>1793</ele>
        <time>2019-09-04T08:09:37Z</time>
      </trkpt>
      <trkpt lat="44.97609" lon="6.45614">
        <ele>1795.4</ele>
        <time>2019-09-04T08:09:50Z</time>
      </trkpt>
      <trkpt lat="44.97604" lon="6.45599">
        <ele>1797.8</ele>
        <time>2019-09-04T08:10:05Z</time>
      </trkpt>
      <trkpt lat="44.97603" lon="6.45589">
        <ele>1800.69</ele>
        <time>2019-09-04T08:10:17Z</time>
      </trkpt>
      <trkpt lat="44.97601" lon="6.4558">
        <ele>1801.65</ele>
        <time>2019-09-04T08:10:32Z</time>
      </trkpt>
      <trkpt lat="44.97606" lon="6.4558">
        <ele>1801.65</ele>
        <time>2019-09-04T08:10:57Z</time>
      </trkpt>
      <trkpt lat="44.97606" lon="6.45576">
        <ele>1801.65</ele>
        <time>2019-09-04T08:11:21Z</time>
      </trkpt>
      <trkpt lat="44.97608" lon="6.45575">
        <ele>1801.65</ele>
        <time>2019-09-04T08:11:46Z</time>
      </trkpt>
      <trkpt lat="44.97601" lon="6.45556">
        <ele>1803.57</ele>
        <time>2019-09-04T08:12:03Z</time>
      </trkpt>
      <trkpt lat="44.97597" lon="6.45535">
        <ele>1805.49</ele>
        <time>2019-09-04T08:12:19Z</time>
      </trkpt>
      <trkpt lat="44.97598" lon="6.45516">
        <ele>1806.94</ele>
        <time>2019-09-04T08:12:36Z</time>
      </trkpt>
      <trkpt lat="44.97599" lon="6.45496">
        <ele>1809.34</ele>
        <time>2019-09-04T08:12:50Z</time>
      </trkpt>
      <trkpt lat="44.97594" lon="6.45482">
        <ele>1811.74</ele>
        <time>2019-09-04T08:13:02Z</time>
      </trkpt>
      <trkpt lat="44.9759" lon="6.45468">
        <ele>1814.15</ele>
        <time>2019-09-04T08:13:17Z</time>
      </trkpt>
      <trkpt lat="44.9759" lon="6.45464">
        <ele>1815.11</ele>
        <time>2019-09-04T08:13:37Z</time>
      </trkpt>
      <trkpt lat="44.97583" lon="6.45453">
        <ele>1817.03</ele>
        <time>2019-09-04T08:14:01Z</time>
      </trkpt>
      <trkpt lat="44.97578" lon="6.45439">
        <ele>1818.95</ele>
        <time>2019-09-04T08:14:12Z</time>
      </trkpt>
      <trkpt lat="44.97572" lon="6.45428">
        <ele>1821.35</ele>
        <time>2019-09-04T08:14:25Z</time>
      </trkpt>
      <trkpt lat="44.97572" lon="6.45414">
        <ele>1823.28</ele>
        <time>2019-09-04T08:14:40Z</time>
      </trkpt>
      <trkpt lat="44.97566" lon="6.4541">
        <ele>1826.16</ele>
        <time>2019-09-04T08:14:57Z</time>
      </trkpt>
      <trkpt lat="44.97564" lon="6.45401">
        <ele>1828.56</ele>
        <time>2019-09-04T08:15:13Z</time>
      </trkpt>
      <trkpt lat="44.97557" lon="6.45377">
        <ele>1831.45</ele>
        <time>2019-09-04T08:15:30Z</time>
      </trkpt>
      <trkpt lat="44.97559" lon="6.45371">
        <ele>1833.37</ele>
        <time>2019-09-04T08:15:44Z</time>
      </trkpt>
      <trkpt lat="44.97562" lon="6.45385">
        <ele>1833.85</ele>
        <time>2019-09-04T08:16:03Z</time>
      </trkpt>
      <trkpt lat="44.9757" lon="6.45382">
        <ele>1833.85</ele>
        <time>2019-09-04T08:16:23Z</time>
      </trkpt>
      <trkpt lat="44.97565" lon="6.45375">
        <ele>1834.33</ele>
        <time>2019-09-04T08:16:48Z</time>
      </trkpt>
      <trkpt lat="44.97565" lon="6.45368">
        <ele>1834.33</ele>
        <time>2019-09-04T08:17:14Z</time>
      </trkpt>
      <trkpt lat="44.97567" lon="6.4537">
        <ele>1834.33</ele>
        <time>2019-09-04T08:17:36Z</time>
      </trkpt>
      <trkpt lat="44.97569" lon="6.45374">
        <ele>1834.33</ele>
        <time>2019-09-04T08:18:08Z</time>
      </trkpt>
      <trkpt lat="44.97562" lon="6.45363">
        <ele>1834.33</ele>
        <time>2019-09-04T08:18:35Z</time>
      </trkpt>
      <trkpt lat="44.97557" lon="6.4537">
        <ele>1834.33</ele>
        <time>2019-09-04T08:19:06Z</time>
      </trkpt>
      <trkpt lat="44.97552" lon="6.4537">
        <ele>1834.33</ele>
        <time>2019-09-04T08:19:30Z</time>
      </trkpt>
      <trkpt lat="44.97552" lon="6.45361">
        <ele>1834.33</ele>
        <time>2019-09-04T08:19:59Z</time>
      </trkpt>
      <trkpt lat="44.97553" lon="6.45362">
        <ele>1833.85</ele>
        <time>2019-09-04T08:20:32Z</time>
      </trkpt>
      <trkpt lat="44.97554" lon="6.45366">
        <ele>1833.85</ele>
        <time>2019-09-04T08:21:03Z</time>
      </trkpt>
      <trkpt lat="44.97555" lon="6.45371">
        <ele>1835.29</ele>
        <time>2019-09-04T08:21:22Z</time>
      </trkpt>
      <trkpt lat="44.97557" lon="6.45375">
        <ele>1835.29</ele>
        <time>2019-09-04T08:21:41Z</time>
      </trkpt>
      <trkpt lat="44.97553" lon="6.4538">
        <ele>1835.29</ele>
        <time>2019-09-04T08:22:05Z</time>
      </trkpt>
      <trkpt lat="44.9755" lon="6.45369">
        <ele>1835.77</ele>
        <time>2019-09-04T08:22:37Z</time>
      </trkpt>
      <trkpt lat="44.97545" lon="6.45348">
        <ele>1835.77</ele>
        <time>2019-09-04T08:23:07Z</time>
      </trkpt>
      <trkpt lat="44.97557" lon="6.45359">
        <ele>1835.77</ele>
        <time>2019-09-04T08:23:34Z</time>
      </trkpt>
      <trkpt lat="44.97552" lon="6.4537">
        <ele>1836.26</ele>
        <time>2019-09-04T08:24:00Z</time>
      </trkpt>
      <trkpt lat="44.97554" lon="6.45359">
        <ele>1836.26</ele>
        <time>2019-09-04T08:24:16Z</time>
      </trkpt>
      <trkpt lat="44.97554" lon="6.45345">
        <ele>1838.18</ele>
        <time>2019-09-04T08:24:33Z</time>
      </trkpt>
      <trkpt lat="44.9756" lon="6.45331">
        <ele>1840.1</ele>
        <time>2019-09-04T08:24:50Z</time>
      </trkpt>
      <trkpt lat="44.97564" lon="6.45318">
        <ele>1842.5</ele>
        <time>2019-09-04T08:25:06Z</time>
      </trkpt>
      <trkpt lat="44.97564" lon="6.45305">
        <ele>1845.39</ele>
        <time>2019-09-04T08:25:20Z</time>
      </trkpt>
      <trkpt lat="44.97565" lon="6.45293">
        <ele>1848.27</ele>
        <time>2019-09-04T08:25:35Z</time>
      </trkpt>
      <trkpt lat="44.97577" lon="6.45286">
        <ele>1849.23</ele>
        <time>2019-09-04T08:25:50Z</time>
      </trkpt>
      <trkpt lat="44.97582" lon="6.45276">
        <ele>1850.68</ele>
        <time>2019-09-04T08:26:05Z</time>
      </trkpt>
      <trkpt lat="44.97573" lon="6.45257">
        <ele>1854.04</ele>
        <time>2019-09-04T08:26:20Z</time>
      </trkpt>
      <trkpt lat="44.97573" lon="6.45243">
        <ele>1856.92</ele>
        <time>2019-09-04T08:26:34Z</time>
      </trkpt>
      <trkpt lat="44.97571" lon="6.45233">
        <ele>1856.92</ele>
        <time>2019-09-04T08:26:54Z</time>
      </trkpt>
      <trkpt lat="44.97576" lon="6.45224">
        <ele>1858.85</ele>
        <time>2019-09-04T08:27:09Z</time>
      </trkpt>
      <trkpt lat="44.97577" lon="6.45215">
        <ele>1860.77</ele>
        <time>2019-09-04T08:27:23Z</time>
      </trkpt>
      <trkpt lat="44.97579" lon="6.45201">
        <ele>1863.17</ele>
        <time>2019-09-04T08:27:35Z</time>
      </trkpt>
      <trkpt lat="44.97585" lon="6.45182">
        <ele>1865.58</ele>
        <time>2019-09-04T08:27:55Z</time>
      </trkpt>
      <trkpt lat="44.97582" lon="6.45184">
        <ele>1866.54</ele>
        <time>2019-09-04T08:28:13Z</time>
      </trkpt>
      <trkpt lat="44.97584" lon="6.45165">
        <ele>1868.46</ele>
        <time>2019-09-04T08:28:30Z</time>
      </trkpt>
      <trkpt lat="44.97584" lon="6.4515">
        <ele>1870.86</ele>
        <time>2019-09-04T08:28:46Z</time>
      </trkpt>
      <trkpt lat="44.9758" lon="6.45139">
        <ele>1872.3</ele>
        <time>2019-09-04T08:29:02Z</time>
      </trkpt>
      <trkpt lat="44.97576" lon="6.45134">
        <ele>1874.23</ele>
        <time>2019-09-04T08:29:15Z</time>
      </trkpt>
      <trkpt lat="44.97579" lon="6.45119">
        <ele>1875.67</ele>
        <time>2019-09-04T08:29:31Z</time>
      </trkpt>
      <trkpt lat="44.97583" lon="6.45107">
        <ele>1878.07</ele>
        <time>2019-09-04T08:29:46Z</time>
      </trkpt>
      <trkpt lat="44.97576" lon="6.45097">
        <ele>1880.96</ele>
        <time>2019-09-04T08:30:00Z</time>
      </trkpt>
      <trkpt lat="44.9758" lon="6.45081">
        <ele>1882.88</ele>
        <time>2019-09-04T08:30:16Z</time>
      </trkpt>
      <trkpt lat="44.97581" lon="6.45063">
        <ele>1884.8</ele>
        <time>2019-09-04T08:30:31Z</time>
      </trkpt>
      <trkpt lat="44.97577" lon="6.45051">
        <ele>1886.72</ele>
        <time>2019-09-04T08:30:46Z</time>
      </trkpt>
      <trkpt lat="44.97581" lon="6.45037">
        <ele>1888.17</ele>
        <time>2019-09-04T08:31:01Z</time>
      </trkpt>
      <trkpt lat="44.97578" lon="6.45028">
        <ele>1889.13</ele>
        <time>2019-09-04T08:31:17Z</time>
      </trkpt>
      <trkpt lat="44.97583" lon="6.45016">
        <ele>1891.05</ele>
        <time>2019-09-04T08:31:31Z</time>
      </trkpt>
      <trkpt lat="44.97583" lon="6.45009">
        <ele>1892.49</ele>
        <time>2019-09-04T08:31:45Z</time>
      </trkpt>
      <trkpt lat="44.97585" lon="6.4501">
        <ele>1892.49</ele>
        <time>2019-09-04T08:32:12Z</time>
      </trkpt>
      <trkpt lat="44.97583" lon="6.45011">
        <ele>1892.49</ele>
        <time>2019-09-04T08:32:14Z</time>
      </trkpt>
      <trkpt lat="44.97583" lon="6.45013">
        <ele>1892.49</ele>
        <time>2019-09-04T08:32:30Z</time>
      </trkpt>
      <trkpt lat="44.9759" lon="6.4501">
        <ele>1892.49</ele>
        <time>2019-09-04T08:32:42Z</time>
      </trkpt>
      <trkpt lat="44.97591" lon="6.44998">
        <ele>1892.97</ele>
        <time>2019-09-04T08:32:55Z</time>
      </trkpt>
      <trkpt lat="44.97597" lon="6.44984">
        <ele>1893.45</ele>
        <time>2019-09-04T08:33:09Z</time>
      </trkpt>
      <trkpt lat="44.976" lon="6.44966">
        <ele>1894.42</ele>
        <time>2019-09-04T08:33:26Z</time>
      </trkpt>
      <trkpt lat="44.976" lon="6.44953">
        <ele>1895.86</ele>
        <time>2019-09-04T08:33:43Z</time>
      </trkpt>
      <trkpt lat="44.97598" lon="6.44951">
        <ele>1896.34</ele>
        <time>2019-09-04T08:34:03Z</time>
      </trkpt>
      <trkpt lat="44.97596" lon="6.44934">
        <ele>1897.78</ele>
        <time>2019-09-04T08:34:17Z</time>
      </trkpt>
      <trkpt lat="44.97594" lon="6.44919">
        <ele>1898.74</ele>
        <time>2019-09-04T08:34:29Z</time>
      </trkpt>
      <trkpt lat="44.97596" lon="6.44912">
        <ele>1898.74</ele>
        <time>2019-09-04T08:34:34Z</time>
      </trkpt>
      <trkpt lat="44.97599" lon="6.44907">
        <ele>1898.74</ele>
        <time>2019-09-04T08:34:38Z</time>
      </trkpt>
      <trkpt lat="44.97599" lon="6.44893">
        <ele>1900.18</ele>
        <time>2019-09-04T08:34:51Z</time>
      </trkpt>
      <trkpt lat="44.976" lon="6.44876">
        <ele>1901.14</ele>
        <time>2019-09-04T08:35:05Z</time>
      </trkpt>
      <trkpt lat="44.976" lon="6.44867">
        <ele>1901.14</ele>
        <time>2019-09-04T08:35:13Z</time>
      </trkpt>
      <trkpt lat="44.97602" lon="6.44856">
        <ele>1901.63</ele>
        <time>2019-09-04T08:35:26Z</time>
      </trkpt>
      <trkpt lat="44.97609" lon="6.44846">
        <ele>1901.63</ele>
        <time>2019-09-04T08:35:39Z</time>
      </trkpt>
      <trkpt lat="44.97611" lon="6.44829">
        <ele>1901.63</ele>
        <time>2019-09-04T08:35:54Z</time>
      </trkpt>
      <trkpt lat="44.97614" lon="6.44821">
        <ele>1901.63</ele>
        <time>2019-09-04T08:36:06Z</time>
      </trkpt>
      <trkpt lat="44.97616" lon="6.4482">
        <ele>1903.07</ele>
        <time>2019-09-04T08:36:22Z</time>
      </trkpt>
      <trkpt lat="44.97613" lon="6.4482">
        <ele>1903.07</ele>
        <time>2019-09-04T08:36:42Z</time>
      </trkpt>
      <trkpt lat="44.97612" lon="6.4482">
        <ele>1901.63</ele>
        <time>2019-09-04T08:36:45Z</time>
      </trkpt>
      <trkpt lat="44.97619" lon="6.44815">
        <ele>1901.63</ele>
        <time>2019-09-04T08:37:01Z</time>
      </trkpt>
      <trkpt lat="44.9763" lon="6.44814">
        <ele>1901.14</ele>
        <time>2019-09-04T08:37:12Z</time>
      </trkpt>
      <trkpt lat="44.97632" lon="6.44814">
        <ele>1901.14</ele>
        <time>2019-09-04T08:37:18Z</time>
      </trkpt>
      <trkpt lat="44.97648" lon="6.44813">
        <ele>1901.14</ele>
        <time>2019-09-04T08:37:35Z</time>
      </trkpt>
      <trkpt lat="44.97647" lon="6.4481">
        <ele>1901.14</ele>
        <time>2019-09-04T08:37:55Z</time>
      </trkpt>
      <trkpt lat="44.97647" lon="6.44807">
        <ele>1901.14</ele>
        <time>2019-09-04T08:38:08Z</time>
      </trkpt>
      <trkpt lat="44.97645" lon="6.44812">
        <ele>1900.66</ele>
        <time>2019-09-04T08:38:12Z</time>
      </trkpt>
      <trkpt lat="44.97628" lon="6.4481">
        <ele>1900.66</ele>
        <time>2019-09-04T08:38:25Z</time>
      </trkpt>
      <trkpt lat="44.97621" lon="6.44808">
        <ele>1900.66</ele>
        <time>2019-09-04T08:38:32Z</time>
      </trkpt>
      <trkpt lat="44.97622" lon="6.44802">
        <ele>1900.66</ele>
        <time>2019-09-04T08:38:36Z</time>
      </trkpt>
      <trkpt lat="44.97621" lon="6.44784">
        <ele>1902.11</ele>
        <time>2019-09-04T08:38:48Z</time>
      </trkpt>
      <trkpt lat="44.97618" lon="6.44777">
        <ele>1902.59</ele>
        <time>2019-09-04T08:39:03Z</time>
      </trkpt>
      <trkpt lat="44.97622" lon="6.44781">
        <ele>1902.59</ele>
        <time>2019-09-04T08:39:29Z</time>
      </trkpt>
      <trkpt lat="44.9762" lon="6.44773">
        <ele>1903.07</ele>
        <time>2019-09-04T08:39:50Z</time>
      </trkpt>
      <trkpt lat="44.97617" lon="6.44769">
        <ele>1903.55</ele>
        <time>2019-09-04T08:40:04Z</time>
      </trkpt>
      <trkpt lat="44.97619" lon="6.44772">
        <ele>1904.03</ele>
        <time>2019-09-04T08:40:24Z</time>
      </trkpt>
      <trkpt lat="44.97617" lon="6.44794">
        <ele>1902.59</ele>
        <time>2019-09-04T08:40:37Z</time>
      </trkpt>
      <trkpt lat="44.97617" lon="6.44796">
        <ele>1902.59</ele>
        <time>2019-09-04T08:40:38Z</time>
      </trkpt>
      <trkpt lat="44.97615" lon="6.44809">
        <ele>1902.59</ele>
        <time>2019-09-04T08:40:51Z</time>
      </trkpt>
      <trkpt lat="44.97623" lon="6.4481">
        <ele>1901.63</ele>
        <time>2019-09-04T08:41:10Z</time>
      </trkpt>
      <trkpt lat="44.97625" lon="6.44809">
        <ele>1901.14</ele>
        <time>2019-09-04T08:41:12Z</time>
      </trkpt>
      <trkpt lat="44.97649" lon="6.44814">
        <ele>1901.14</ele>
        <time>2019-09-04T08:41:31Z</time>
      </trkpt>
      <trkpt lat="44.97653" lon="6.44802">
        <ele>1901.14</ele>
        <time>2019-09-04T08:41:46Z</time>
      </trkpt>
      <trkpt lat="44.97662" lon="6.44789">
        <ele>1902.11</ele>
        <time>2019-09-04T08:42:00Z</time>
      </trkpt>
      <trkpt lat="44.97667" lon="6.44772">
        <ele>1903.55</ele>
        <time>2019-09-04T08:42:16Z</time>
      </trkpt>
      <trkpt lat="44.97674" lon="6.44756">
        <ele>1905.47</ele>
        <time>2019-09-04T08:42:32Z</time>
      </trkpt>
      <trkpt lat="44.97676" lon="6.44752">
        <ele>1905.47</ele>
        <time>2019-09-04T08:42:35Z</time>
      </trkpt>
      <trkpt lat="44.97685" lon="6.44732">
        <ele>1906.43</ele>
        <time>2019-09-04T08:42:51Z</time>
      </trkpt>
      <trkpt lat="44.97695" lon="6.44721">
        <ele>1907.87</ele>
        <time>2019-09-04T08:43:05Z</time>
      </trkpt>
      <trkpt lat="44.97699" lon="6.44708">
        <ele>1909.8</ele>
        <time>2019-09-04T08:43:20Z</time>
      </trkpt>
      <trkpt lat="44.97703" lon="6.44689">
        <ele>1912.68</ele>
        <time>2019-09-04T08:43:36Z</time>
      </trkpt>
      <trkpt lat="44.97704" lon="6.44676">
        <ele>1916.04</ele>
        <time>2019-09-04T08:43:51Z</time>
      </trkpt>
      <trkpt lat="44.97706" lon="6.44663">
        <ele>1917.97</ele>
        <time>2019-09-04T08:44:04Z</time>
      </trkpt>
      <trkpt lat="44.97709" lon="6.44668">
        <ele>1919.89</ele>
        <time>2019-09-04T08:44:18Z</time>
      </trkpt>
      <trkpt lat="44.9771" lon="6.44663">
        <ele>1921.33</ele>
        <time>2019-09-04T08:44:40Z</time>
      </trkpt>
      <trkpt lat="44.97715" lon="6.4465">
        <ele>1924.22</ele>
        <time>2019-09-04T08:44:55Z</time>
      </trkpt>
      <trkpt lat="44.97718" lon="6.44637">
        <ele>1927.58</ele>
        <time>2019-09-04T08:45:12Z</time>
      </trkpt>
      <trkpt lat="44.97716" lon="6.4462">
        <ele>1929.98</ele>
        <time>2019-09-04T08:45:28Z</time>
      </trkpt>
      <trkpt lat="44.97722" lon="6.44612">
        <ele>1932.87</ele>
        <time>2019-09-04T08:45:43Z</time>
      </trkpt>
      <trkpt lat="44.97729" lon="6.44615">
        <ele>1935.75</ele>
        <time>2019-09-04T08:45:57Z</time>
      </trkpt>
      <trkpt lat="44.97732" lon="6.44605">
        <ele>1938.64</ele>
        <time>2019-09-04T08:46:11Z</time>
      </trkpt>
      <trkpt lat="44.97735" lon="6.44592">
        <ele>1941.52</ele>
        <time>2019-09-04T08:46:27Z</time>
      </trkpt>
      <trkpt lat="44.97739" lon="6.44588">
        <ele>1944.4</ele>
        <time>2019-09-04T08:46:43Z</time>
      </trkpt>
      <trkpt lat="44.97741" lon="6.44601">
        <ele>1946.33</ele>
        <time>2019-09-04T08:46:58Z</time>
      </trkpt>
      <trkpt lat="44.97742" lon="6.44593">
        <ele>1947.77</ele>
        <time>2019-09-04T08:47:18Z</time>
      </trkpt>
      <trkpt lat="44.97744" lon="6.44577">
        <ele>1950.65</ele>
        <time>2019-09-04T08:47:34Z</time>
      </trkpt>
      <trkpt lat="44.97746" lon="6.44564">
        <ele>1953.54</ele>
        <time>2019-09-04T08:47:48Z</time>
      </trkpt>
      <trkpt lat="44.9775" lon="6.4455">
        <ele>1956.9</ele>
        <time>2019-09-04T08:48:04Z</time>
      </trkpt>
      <trkpt lat="44.97752" lon="6.44539">
        <ele>1959.3</ele>
        <time>2019-09-04T08:48:17Z</time>
      </trkpt>
      <trkpt lat="44.97751" lon="6.44538">
        <ele>1959.3</ele>
        <time>2019-09-04T08:48:34Z</time>
      </trkpt>
      <trkpt lat="44.97751" lon="6.44527">
        <ele>1959.78</ele>
        <time>2019-09-04T08:48:54Z</time>
      </trkpt>
      <trkpt lat="44.97755" lon="6.44519">
        <ele>1963.15</ele>
        <time>2019-09-04T08:49:10Z</time>
      </trkpt>
      <trkpt lat="44.97761" lon="6.44525">
        <ele>1965.07</ele>
        <time>2019-09-04T08:49:25Z</time>
      </trkpt>
      <trkpt lat="44.97765" lon="6.44516">
        <ele>1968.44</ele>
        <time>2019-09-04T08:49:37Z</time>
      </trkpt>
      <trkpt lat="44.97767" lon="6.44496">
        <ele>1970.36</ele>
        <time>2019-09-04T08:49:53Z</time>
      </trkpt>
      <trkpt lat="44.9777" lon="6.44493">
        <ele>1972.76</ele>
        <time>2019-09-04T08:50:07Z</time>
      </trkpt>
      <trkpt lat="44.97774" lon="6.44494">
        <ele>1974.69</ele>
        <time>2019-09-04T08:50:19Z</time>
      </trkpt>
      <trkpt lat="44.97779" lon="6.44476">
        <ele>1978.05</ele>
        <time>2019-09-04T08:50:36Z</time>
      </trkpt>
      <trkpt lat="44.97782" lon="6.44472">
        <ele>1980.45</ele>
        <time>2019-09-04T08:50:50Z</time>
      </trkpt>
      <trkpt lat="44.97782" lon="6.44477">
        <ele>1981.9</ele>
        <time>2019-09-04T08:51:07Z</time>
      </trkpt>
      <trkpt lat="44.97782" lon="6.44481">
        <ele>1981.9</ele>
        <time>2019-09-04T08:51:43Z</time>
      </trkpt>
      <trkpt lat="44.97786" lon="6.44467">
        <ele>1983.82</ele>
        <time>2019-09-04T08:51:58Z</time>
      </trkpt>
      <trkpt lat="44.97789" lon="6.44454">
        <ele>1985.26</ele>
        <time>2019-09-04T08:52:14Z</time>
      </trkpt>
      <trkpt lat="44.9779" lon="6.44456">
        <ele>1986.22</ele>
        <time>2019-09-04T08:52:29Z</time>
      </trkpt>
      <trkpt lat="44.97796" lon="6.44444">
        <ele>1989.1</ele>
        <time>2019-09-04T08:52:44Z</time>
      </trkpt>
      <trkpt lat="44.97802" lon="6.44433">
        <ele>1992.47</ele>
        <time>2019-09-04T08:52:58Z</time>
      </trkpt>
      <trkpt lat="44.97806" lon="6.4443">
        <ele>1994.39</ele>
        <time>2019-09-04T08:53:12Z</time>
      </trkpt>
      <trkpt lat="44.97806" lon="6.44421">
        <ele>1996.32</ele>
        <time>2019-09-04T08:53:28Z</time>
      </trkpt>
      <trkpt lat="44.97811" lon="6.44418">
        <ele>1998.24</ele>
        <time>2019-09-04T08:53:48Z</time>
      </trkpt>
      <trkpt lat="44.97814" lon="6.44405">
        <ele>2000.64</ele>
        <time>2019-09-04T08:54:02Z</time>
      </trkpt>
      <trkpt lat="44.97818" lon="6.44393">
        <ele>2004.01</ele>
        <time>2019-09-04T08:54:17Z</time>
      </trkpt>
      <trkpt lat="44.97821" lon="6.44384">
        <ele>2006.41</ele>
        <time>2019-09-04T08:54:32Z</time>
      </trkpt>
      <trkpt lat="44.97827" lon="6.44399">
        <ele>2008.81</ele>
        <time>2019-09-04T08:54:47Z</time>
      </trkpt>
      <trkpt lat="44.97833" lon="6.44392">
        <ele>2011.22</ele>
        <time>2019-09-04T08:55:00Z</time>
      </trkpt>
      <trkpt lat="44.97837" lon="6.44379">
        <ele>2013.62</ele>
        <time>2019-09-04T08:55:15Z</time>
      </trkpt>
      <trkpt lat="44.97839" lon="6.44389">
        <ele>2016.02</ele>
        <time>2019-09-04T08:55:29Z</time>
      </trkpt>
      <trkpt lat="44.97845" lon="6.44386">
        <ele>2017.46</ele>
        <time>2019-09-04T08:55:50Z</time>
      </trkpt>
      <trkpt lat="44.9785" lon="6.44377">
        <ele>2020.35</ele>
        <time>2019-09-04T08:56:05Z</time>
      </trkpt>
      <trkpt lat="44.97854" lon="6.44367">
        <ele>2023.71</ele>
        <time>2019-09-04T08:56:20Z</time>
      </trkpt>
      <trkpt lat="44.97859" lon="6.44348">
        <ele>2027.08</ele>
        <time>2019-09-04T08:56:36Z</time>
      </trkpt>
      <trkpt lat="44.9786" lon="6.44327">
        <ele>2029.96</ele>
        <time>2019-09-04T08:56:54Z</time>
      </trkpt>
      <trkpt lat="44.97859" lon="6.44315">
        <ele>2031.88</ele>
        <time>2019-09-04T08:57:10Z</time>
      </trkpt>
      <trkpt lat="44.97863" lon="6.44328">
        <ele>2033.33</ele>
        <time>2019-09-04T08:57:26Z</time>
      </trkpt>
      <trkpt lat="44.97865" lon="6.4434">
        <ele>2034.77</ele>
        <time>2019-09-04T08:57:34Z</time>
      </trkpt>
      <trkpt lat="44.9787" lon="6.4434">
        <ele>2036.69</ele>
        <time>2019-09-04T08:57:48Z</time>
      </trkpt>
      <trkpt lat="44.97871" lon="6.44334">
        <ele>2037.17</ele>
        <time>2019-09-04T08:58:13Z</time>
      </trkpt>
      <trkpt lat="44.97878" lon="6.44321">
        <ele>2040.54</ele>
        <time>2019-09-04T08:58:31Z</time>
      </trkpt>
      <trkpt lat="44.97881" lon="6.44311">
        <ele>2043.9</ele>
        <time>2019-09-04T08:58:46Z</time>
      </trkpt>
      <trkpt lat="44.97882" lon="6.44306">
        <ele>2046.3</ele>
        <time>2019-09-04T08:58:58Z</time>
      </trkpt>
      <trkpt lat="44.97883" lon="6.44289">
        <ele>2049.67</ele>
        <time>2019-09-04T08:59:14Z</time>
      </trkpt>
      <trkpt lat="44.97883" lon="6.44273">
        <ele>2052.55</ele>
        <time>2019-09-04T08:59:30Z</time>
      </trkpt>
      <trkpt lat="44.97884" lon="6.44264">
        <ele>2053.99</ele>
        <time>2019-09-04T08:59:46Z</time>
      </trkpt>
      <trkpt lat="44.97885" lon="6.44264">
        <ele>2054.47</ele>
        <time>2019-09-04T09:00:09Z</time>
      </trkpt>
      <trkpt lat="44.9789" lon="6.44255">
        <ele>2056.4</ele>
        <time>2019-09-04T09:00:25Z</time>
      </trkpt>
      <trkpt lat="44.97897" lon="6.44244">
        <ele>2059.76</ele>
        <time>2019-09-04T09:00:40Z</time>
      </trkpt>
      <trkpt lat="44.97899" lon="6.4424">
        <ele>2062.17</ele>
        <time>2019-09-04T09:00:56Z</time>
      </trkpt>
      <trkpt lat="44.97904" lon="6.44233">
        <ele>2063.13</ele>
        <time>2019-09-04T09:01:12Z</time>
      </trkpt>
      <trkpt lat="44.97909" lon="6.44222">
        <ele>2066.97</ele>
        <time>2019-09-04T09:01:27Z</time>
      </trkpt>
      <trkpt lat="44.9791" lon="6.44231">
        <ele>2069.86</ele>
        <time>2019-09-04T09:01:44Z</time>
      </trkpt>
      <trkpt lat="44.9791" lon="6.44234">
        <ele>2070.34</ele>
        <time>2019-09-04T09:01:46Z</time>
      </trkpt>
      <trkpt lat="44.97912" lon="6.44249">
        <ele>2072.26</ele>
        <time>2019-09-04T09:02:01Z</time>
      </trkpt>
      <trkpt lat="44.97911" lon="6.44248">
        <ele>2072.26</ele>
        <time>2019-09-04T09:02:28Z</time>
      </trkpt>
      <trkpt lat="44.97912" lon="6.44253">
        <ele>2072.74</ele>
        <time>2019-09-04T09:02:58Z</time>
      </trkpt>
      <trkpt lat="44.97913" lon="6.44249">
        <ele>2072.74</ele>
        <time>2019-09-04T09:03:20Z</time>
      </trkpt>
      <trkpt lat="44.97918" lon="6.44253">
        <ele>2074.66</ele>
        <time>2019-09-04T09:03:38Z</time>
      </trkpt>
      <trkpt lat="44.9792" lon="6.44254">
        <ele>2077.55</ele>
        <time>2019-09-04T09:03:50Z</time>
      </trkpt>
      <trkpt lat="44.97921" lon="6.44249">
        <ele>2078.51</ele>
        <time>2019-09-04T09:03:54Z</time>
      </trkpt>
      <trkpt lat="44.97928" lon="6.44221">
        <ele>2081.39</ele>
        <time>2019-09-04T09:04:13Z</time>
      </trkpt>
      <trkpt lat="44.97924" lon="6.44195">
        <ele>2082.83</ele>
        <time>2019-09-04T09:04:30Z</time>
      </trkpt>
      <trkpt lat="44.97928" lon="6.44185">
        <ele>2084.76</ele>
        <time>2019-09-04T09:04:48Z</time>
      </trkpt>
      <trkpt lat="44.97927" lon="6.44177">
        <ele>2086.2</ele>
        <time>2019-09-04T09:05:05Z</time>
      </trkpt>
      <trkpt lat="44.97927" lon="6.44168">
        <ele>2088.12</ele>
        <time>2019-09-04T09:05:23Z</time>
      </trkpt>
      <trkpt lat="44.97927" lon="6.44161">
        <ele>2089.56</ele>
        <time>2019-09-04T09:05:48Z</time>
      </trkpt>
      <trkpt lat="44.97932" lon="6.4415">
        <ele>2092.45</ele>
        <time>2019-09-04T09:06:02Z</time>
      </trkpt>
      <trkpt lat="44.97936" lon="6.4414">
        <ele>2094.85</ele>
        <time>2019-09-04T09:06:20Z</time>
      </trkpt>
      <trkpt lat="44.97938" lon="6.4413">
        <ele>2098.7</ele>
        <time>2019-09-04T09:06:35Z</time>
      </trkpt>
      <trkpt lat="44.97941" lon="6.44112">
        <ele>2101.1</ele>
        <time>2019-09-04T09:06:51Z</time>
      </trkpt>
      <trkpt lat="44.97941" lon="6.44105">
        <ele>2102.06</ele>
        <time>2019-09-04T09:07:10Z</time>
      </trkpt>
      <trkpt lat="44.97942" lon="6.44094">
        <ele>2103.02</ele>
        <time>2019-09-04T09:07:27Z</time>
      </trkpt>
      <trkpt lat="44.97947" lon="6.44081">
        <ele>2105.42</ele>
        <time>2019-09-04T09:07:44Z</time>
      </trkpt>
      <trkpt lat="44.97951" lon="6.44064">
        <ele>2106.87</ele>
        <time>2019-09-04T09:08:00Z</time>
      </trkpt>
      <trkpt lat="44.97959" lon="6.44052">
        <ele>2107.83</ele>
        <time>2019-09-04T09:08:17Z</time>
      </trkpt>
      <trkpt lat="44.97964" lon="6.44044">
        <ele>2109.75</ele>
        <time>2019-09-04T09:08:37Z</time>
      </trkpt>
      <trkpt lat="44.97968" lon="6.44031">
        <ele>2110.71</ele>
        <time>2019-09-04T09:08:54Z</time>
      </trkpt>
      <trkpt lat="44.97973" lon="6.4402">
        <ele>2114.56</ele>
        <time>2019-09-04T09:09:09Z</time>
      </trkpt>
      <trkpt lat="44.97977" lon="6.44014">
        <ele>2117.44</ele>
        <time>2019-09-04T09:09:24Z</time>
      </trkpt>
      <trkpt lat="44.97983" lon="6.44004">
        <ele>2120.81</ele>
        <time>2019-09-04T09:09:40Z</time>
      </trkpt>
      <trkpt lat="44.97988" lon="6.43995">
        <ele>2123.69</ele>
        <time>2019-09-04T09:09:55Z</time>
      </trkpt>
      <trkpt lat="44.97989" lon="6.43984">
        <ele>2125.61</ele>
        <time>2019-09-04T09:10:11Z</time>
      </trkpt>
      <trkpt lat="44.9799" lon="6.43979">
        <ele>2125.61</ele>
        <time>2019-09-04T09:10:31Z</time>
      </trkpt>
      <trkpt lat="44.9799" lon="6.43977">
        <ele>2126.09</ele>
        <time>2019-09-04T09:10:33Z</time>
      </trkpt>
      <trkpt lat="44.97991" lon="6.43964">
        <ele>2126.57</ele>
        <time>2019-09-04T09:10:41Z</time>
      </trkpt>
      <trkpt lat="44.97997" lon="6.43942">
        <ele>2129.94</ele>
        <time>2019-09-04T09:10:56Z</time>
      </trkpt>
      <trkpt lat="44.98003" lon="6.43925">
        <ele>2132.34</ele>
        <time>2019-09-04T09:11:12Z</time>
      </trkpt>
      <trkpt lat="44.9801" lon="6.4391">
        <ele>2134.26</ele>
        <time>2019-09-04T09:11:28Z</time>
      </trkpt>
      <trkpt lat="44.9801" lon="6.43909">
        <ele>2134.26</ele>
        <time>2019-09-04T09:11:47Z</time>
      </trkpt>
      <trkpt lat="44.9802" lon="6.43897">
        <ele>2136.19</ele>
        <time>2019-09-04T09:12:03Z</time>
      </trkpt>
      <trkpt lat="44.98025" lon="6.43893">
        <ele>2136.67</ele>
        <time>2019-09-04T09:12:08Z</time>
      </trkpt>
      <trkpt lat="44.98038" lon="6.43872">
        <ele>2138.11</ele>
        <time>2019-09-04T09:12:24Z</time>
      </trkpt>
      <trkpt lat="44.98042" lon="6.4387">
        <ele>2139.07</ele>
        <time>2019-09-04T09:12:41Z</time>
      </trkpt>
      <trkpt lat="44.98044" lon="6.43866">
        <ele>2139.07</ele>
        <time>2019-09-04T09:12:47Z</time>
      </trkpt>
      <trkpt lat="44.98048" lon="6.43853">
        <ele>2137.15</ele>
        <time>2019-09-04T09:13:02Z</time>
      </trkpt>
      <trkpt lat="44.98048" lon="6.43848">
        <ele>2137.15</ele>
        <time>2019-09-04T09:13:05Z</time>
      </trkpt>
      <trkpt lat="44.98055" lon="6.43825">
        <ele>2139.55</ele>
        <time>2019-09-04T09:13:22Z</time>
      </trkpt>
      <trkpt lat="44.98053" lon="6.4382">
        <ele>2139.55</ele>
        <time>2019-09-04T09:13:40Z</time>
      </trkpt>
      <trkpt lat="44.98059" lon="6.43807">
        <ele>2138.11</ele>
        <time>2019-09-04T09:13:58Z</time>
      </trkpt>
      <trkpt lat="44.9806" lon="6.43806">
        <ele>2138.11</ele>
        <time>2019-09-04T09:13:59Z</time>
      </trkpt>
      <trkpt lat="44.98067" lon="6.43781">
        <ele>2137.63</ele>
        <time>2019-09-04T09:14:18Z</time>
      </trkpt>
      <trkpt lat="44.98068" lon="6.43762">
        <ele>2140.51</ele>
        <time>2019-09-04T09:14:33Z</time>
      </trkpt>
      <trkpt lat="44.9807" lon="6.43743">
        <ele>2142.92</ele>
        <time>2019-09-04T09:14:49Z</time>
      </trkpt>
      <trkpt lat="44.98067" lon="6.4372">
        <ele>2145.32</ele>
        <time>2019-09-04T09:15:09Z</time>
      </trkpt>
      <trkpt lat="44.98061" lon="6.4369">
        <ele>2145.32</ele>
        <time>2019-09-04T09:15:27Z</time>
      </trkpt>
      <trkpt lat="44.98058" lon="6.43677">
        <ele>2145.8</ele>
        <time>2019-09-04T09:15:45Z</time>
      </trkpt>
      <trkpt lat="44.98066" lon="6.43669">
        <ele>2145.8</ele>
        <time>2019-09-04T09:16:13Z</time>
      </trkpt>
      <trkpt lat="44.98065" lon="6.43658">
        <ele>2148.2</ele>
        <time>2019-09-04T09:16:28Z</time>
      </trkpt>
      <trkpt lat="44.9807" lon="6.43645">
        <ele>2150.61</ele>
        <time>2019-09-04T09:16:46Z</time>
      </trkpt>
      <trkpt lat="44.98066" lon="6.43626">
        <ele>2150.61</ele>
        <time>2019-09-04T09:17:04Z</time>
      </trkpt>
      <trkpt lat="44.98063" lon="6.43606">
        <ele>2150.61</ele>
        <time>2019-09-04T09:17:19Z</time>
      </trkpt>
      <trkpt lat="44.98064" lon="6.4358">
        <ele>2151.09</ele>
        <time>2019-09-04T09:17:36Z</time>
      </trkpt>
      <trkpt lat="44.9807" lon="6.43556">
        <ele>2150.13</ele>
        <time>2019-09-04T09:17:54Z</time>
      </trkpt>
      <trkpt lat="44.98077" lon="6.43535">
        <ele>2150.13</ele>
        <time>2019-09-04T09:18:11Z</time>
      </trkpt>
      <trkpt lat="44.98078" lon="6.43517">
        <ele>2150.13</ele>
        <time>2019-09-04T09:18:26Z</time>
      </trkpt>
      <trkpt lat="44.98071" lon="6.43523">
        <ele>2150.13</ele>
        <time>2019-09-04T09:18:46Z</time>
      </trkpt>
      <trkpt lat="44.98073" lon="6.43517">
        <ele>2151.57</ele>
        <time>2019-09-04T09:19:09Z</time>
      </trkpt>
      <trkpt lat="44.9808" lon="6.4351">
        <ele>2152.05</ele>
        <time>2019-09-04T09:19:20Z</time>
      </trkpt>
      <trkpt lat="44.98076" lon="6.4352">
        <ele>2151.57</ele>
        <time>2019-09-04T09:19:47Z</time>
      </trkpt>
      <trkpt lat="44.98078" lon="6.43513">
        <ele>2151.57</ele>
        <time>2019-09-04T09:20:25Z</time>
      </trkpt>
      <trkpt lat="44.98081" lon="6.43507">
        <ele>2152.53</ele>
        <time>2019-09-04T09:20:50Z</time>
      </trkpt>
      <trkpt lat="44.98081" lon="6.43513">
        <ele>2152.53</ele>
        <time>2019-09-04T09:21:10Z</time>
      </trkpt>
      <trkpt lat="44.98081" lon="6.43514">
        <ele>2153.01</ele>
        <time>2019-09-04T09:21:32Z</time>
      </trkpt>
      <trkpt lat="44.98079" lon="6.43514">
        <ele>2153.01</ele>
        <time>2019-09-04T09:21:58Z</time>
      </trkpt>
      <trkpt lat="44.98078" lon="6.43513">
        <ele>2152.05</ele>
        <time>2019-09-04T09:22:31Z</time>
      </trkpt>
      <trkpt lat="44.98078" lon="6.43512">
        <ele>2152.53</ele>
        <time>2019-09-04T09:23:02Z</time>
      </trkpt>
      <trkpt lat="44.98078" lon="6.43512">
        <ele>2152.53</ele>
        <time>2019-09-04T09:23:20Z</time>
      </trkpt>
      <trkpt lat="44.98077" lon="6.43516">
        <ele>2153.01</ele>
        <time>2019-09-04T09:23:39Z</time>
      </trkpt>
      <trkpt lat="44.98078" lon="6.43514">
        <ele>2153.01</ele>
        <time>2019-09-04T09:24:04Z</time>
      </trkpt>
      <trkpt lat="44.98076" lon="6.43511">
        <ele>2153.49</ele>
        <time>2019-09-04T09:24:33Z</time>
      </trkpt>
      <trkpt lat="44.98076" lon="6.43516">
        <ele>2153.49</ele>
        <time>2019-09-04T09:25:05Z</time>
      </trkpt>
      <trkpt lat="44.98075" lon="6.43512">
        <ele>2154.93</ele>
        <time>2019-09-04T09:25:31Z</time>
      </trkpt>
      <trkpt lat="44.98076" lon="6.43512">
        <ele>2154.93</ele>
        <time>2019-09-04T09:25:44Z</time>
      </trkpt>
      <trkpt lat="44.98077" lon="6.43511">
        <ele>2155.89</ele>
        <time>2019-09-04T09:25:58Z</time>
      </trkpt>
      <trkpt lat="44.98077" lon="6.43511">
        <ele>2155.89</ele>
        <time>2019-09-04T09:26:16Z</time>
      </trkpt>
      <trkpt lat="44.98077" lon="6.43511">
        <ele>2154.45</ele>
        <time>2019-09-04T09:26:17Z</time>
      </trkpt>
      <trkpt lat="44.98077" lon="6.43511">
        <ele>2153.01</ele>
        <time>2019-09-04T09:36:07Z</time>
      </trkpt>
      <trkpt lat="44.98088" lon="6.43502">
        <ele>2153.01</ele>
        <time>2019-09-04T09:36:09Z</time>
      </trkpt>
      <trkpt lat="44.98075" lon="6.43508">
        <ele>2155.89</ele>
        <time>2019-09-04T09:36:17Z</time>
      </trkpt>
      <trkpt lat="44.98075" lon="6.43512">
        <ele>2159.26</ele>
        <time>2019-09-04T09:36:22Z</time>
      </trkpt>
      <trkpt lat="44.98077" lon="6.43514">
        <ele>2162.14</ele>
        <time>2019-09-04T09:36:31Z</time>
      </trkpt>
      <trkpt lat="44.98076" lon="6.43513">
        <ele>2165.03</ele>
        <time>2019-09-04T09:36:43Z</time>
      </trkpt>
      <trkpt lat="44.98077" lon="6.43509">
        <ele>2165.03</ele>
        <time>2019-09-04T09:37:01Z</time>
      </trkpt>
      <trkpt lat="44.98076" lon="6.43504">
        <ele>2165.03</ele>
        <time>2019-09-04T09:37:15Z</time>
      </trkpt>
      <trkpt lat="44.98073" lon="6.4349">
        <ele>2164.06</ele>
        <time>2019-09-04T09:37:29Z</time>
      </trkpt>
      <trkpt lat="44.98073" lon="6.43489">
        <ele>2164.06</ele>
        <time>2019-09-04T09:37:30Z</time>
      </trkpt>
      <trkpt lat="44.98073" lon="6.4348">
        <ele>2165.51</ele>
        <time>2019-09-04T09:37:36Z</time>
      </trkpt>
      <trkpt lat="44.9807" lon="6.43472">
        <ele>2165.51</ele>
        <time>2019-09-04T09:37:42Z</time>
      </trkpt>
      <trkpt lat="44.98071" lon="6.43468">
        <ele>2164.06</ele>
        <time>2019-09-04T09:37:44Z</time>
      </trkpt>
      <trkpt lat="44.98076" lon="6.43451">
        <ele>2165.03</ele>
        <time>2019-09-04T09:37:59Z</time>
      </trkpt>
      <trkpt lat="44.98075" lon="6.43449">
        <ele>2165.03</ele>
        <time>2019-09-04T09:38:00Z</time>
      </trkpt>
      <trkpt lat="44.98075" lon="6.43447">
        <ele>2165.03</ele>
        <time>2019-09-04T09:38:02Z</time>
      </trkpt>
      <trkpt lat="44.98078" lon="6.43432">
        <ele>2164.06</ele>
        <time>2019-09-04T09:38:15Z</time>
      </trkpt>
      <trkpt lat="44.9808" lon="6.4343">
        <ele>2165.03</ele>
        <time>2019-09-04T09:38:17Z</time>
      </trkpt>
      <trkpt lat="44.98085" lon="6.43413">
        <ele>2165.03</ele>
        <time>2019-09-04T09:38:33Z</time>
      </trkpt>
      <trkpt lat="44.98088" lon="6.43398">
        <ele>2165.99</ele>
        <time>2019-09-04T09:38:48Z</time>
      </trkpt>
      <trkpt lat="44.9809" lon="6.43375">
        <ele>2165.99</ele>
        <time>2019-09-04T09:39:06Z</time>
      </trkpt>
      <trkpt lat="44.98094" lon="6.43352">
        <ele>2166.95</ele>
        <time>2019-09-04T09:39:24Z</time>
      </trkpt>
      <trkpt lat="44.981" lon="6.43334">
        <ele>2168.87</ele>
        <time>2019-09-04T09:39:43Z</time>
      </trkpt>
      <trkpt lat="44.98102" lon="6.43328">
        <ele>2167.43</ele>
        <time>2019-09-04T09:39:52Z</time>
      </trkpt>
      <trkpt lat="44.98103" lon="6.43317">
        <ele>2168.87</ele>
        <time>2019-09-04T09:40:01Z</time>
      </trkpt>
      <trkpt lat="44.98103" lon="6.43303">
        <ele>2169.35</ele>
        <time>2019-09-04T09:40:18Z</time>
      </trkpt>
      <trkpt lat="44.98103" lon="6.43298">
        <ele>2167.91</ele>
        <time>2019-09-04T09:40:21Z</time>
      </trkpt>
      <trkpt lat="44.98104" lon="6.43294">
        <ele>2169.35</ele>
        <time>2019-09-04T09:40:24Z</time>
      </trkpt>
      <trkpt lat="44.98104" lon="6.43283">
        <ele>2169.83</ele>
        <time>2019-09-04T09:40:40Z</time>
      </trkpt>
      <trkpt lat="44.98105" lon="6.43263">
        <ele>2170.79</ele>
        <time>2019-09-04T09:40:56Z</time>
      </trkpt>
      <trkpt lat="44.98109" lon="6.43249">
        <ele>2173.2</ele>
        <time>2019-09-04T09:41:11Z</time>
      </trkpt>
      <trkpt lat="44.98115" lon="6.43234">
        <ele>2173.68</ele>
        <time>2019-09-04T09:41:25Z</time>
      </trkpt>
      <trkpt lat="44.98116" lon="6.4322">
        <ele>2174.16</ele>
        <time>2019-09-04T09:41:41Z</time>
      </trkpt>
      <trkpt lat="44.98116" lon="6.43218">
        <ele>2176.08</ele>
        <time>2019-09-04T09:41:43Z</time>
      </trkpt>
      <trkpt lat="44.98118" lon="6.43201">
        <ele>2176.56</ele>
        <time>2019-09-04T09:41:58Z</time>
      </trkpt>
      <trkpt lat="44.98121" lon="6.43182">
        <ele>2177.52</ele>
        <time>2019-09-04T09:42:14Z</time>
      </trkpt>
      <trkpt lat="44.98124" lon="6.43171">
        <ele>2178.48</ele>
        <time>2019-09-04T09:42:24Z</time>
      </trkpt>
      <trkpt lat="44.98129" lon="6.43152">
        <ele>2179.45</ele>
        <time>2019-09-04T09:42:39Z</time>
      </trkpt>
      <trkpt lat="44.98128" lon="6.43134">
        <ele>2180.89</ele>
        <time>2019-09-04T09:42:55Z</time>
      </trkpt>
      <trkpt lat="44.9813" lon="6.43116">
        <ele>2182.33</ele>
        <time>2019-09-04T09:43:10Z</time>
      </trkpt>
      <trkpt lat="44.98131" lon="6.43101">
        <ele>2183.77</ele>
        <time>2019-09-04T09:43:24Z</time>
      </trkpt>
      <trkpt lat="44.98135" lon="6.43084">
        <ele>2184.25</ele>
        <time>2019-09-04T09:43:41Z</time>
      </trkpt>
      <trkpt lat="44.98135" lon="6.4307">
        <ele>2186.66</ele>
        <time>2019-09-04T09:43:55Z</time>
      </trkpt>
      <trkpt lat="44.98141" lon="6.43059">
        <ele>2187.62</ele>
        <time>2019-09-04T09:44:09Z</time>
      </trkpt>
      <trkpt lat="44.98142" lon="6.4305">
        <ele>2188.58</ele>
        <time>2019-09-04T09:44:21Z</time>
      </trkpt>
      <trkpt lat="44.98145" lon="6.43038">
        <ele>2190.02</ele>
        <time>2019-09-04T09:44:36Z</time>
      </trkpt>
      <trkpt lat="44.98144" lon="6.43024">
        <ele>2190.98</ele>
        <time>2019-09-04T09:44:52Z</time>
      </trkpt>
      <trkpt lat="44.98148" lon="6.43013">
        <ele>2193.39</ele>
        <time>2019-09-04T09:45:06Z</time>
      </trkpt>
      <trkpt lat="44.98146" lon="6.43013">
        <ele>2193.87</ele>
        <time>2019-09-04T09:45:27Z</time>
      </trkpt>
      <trkpt lat="44.9815" lon="6.43">
        <ele>2194.83</ele>
        <time>2019-09-04T09:45:46Z</time>
      </trkpt>
      <trkpt lat="44.9815" lon="6.42999">
        <ele>2194.83</ele>
        <time>2019-09-04T09:45:47Z</time>
      </trkpt>
      <trkpt lat="44.9815" lon="6.42989">
        <ele>2196.27</ele>
        <time>2019-09-04T09:45:59Z</time>
      </trkpt>
      <trkpt lat="44.98152" lon="6.42972">
        <ele>2198.67</ele>
        <time>2019-09-04T09:46:14Z</time>
      </trkpt>
      <trkpt lat="44.98156" lon="6.42961">
        <ele>2199.15</ele>
        <time>2019-09-04T09:46:28Z</time>
      </trkpt>
      <trkpt lat="44.9816" lon="6.4295">
        <ele>2202.04</ele>
        <time>2019-09-04T09:46:42Z</time>
      </trkpt>
      <trkpt lat="44.98162" lon="6.42936">
        <ele>2203.96</ele>
        <time>2019-09-04T09:46:56Z</time>
      </trkpt>
      <trkpt lat="44.98164" lon="6.42923">
        <ele>2205.4</ele>
        <time>2019-09-04T09:47:07Z</time>
      </trkpt>
      <trkpt lat="44.98165" lon="6.42909">
        <ele>2206.84</ele>
        <time>2019-09-04T09:47:18Z</time>
      </trkpt>
      <trkpt lat="44.98172" lon="6.42904">
        <ele>2208.77</ele>
        <time>2019-09-04T09:47:31Z</time>
      </trkpt>
      <trkpt lat="44.98176" lon="6.42893">
        <ele>2209.25</ele>
        <time>2019-09-04T09:47:39Z</time>
      </trkpt>
      <trkpt lat="44.98181" lon="6.42875">
        <ele>2210.21</ele>
        <time>2019-09-04T09:47:53Z</time>
      </trkpt>
      <trkpt lat="44.98182" lon="6.42867">
        <ele>2210.69</ele>
        <time>2019-09-04T09:48:00Z</time>
      </trkpt>
      <trkpt lat="44.98189" lon="6.42849">
        <ele>2211.65</ele>
        <time>2019-09-04T09:48:14Z</time>
      </trkpt>
      <trkpt lat="44.98192" lon="6.42828">
        <ele>2213.09</ele>
        <time>2019-09-04T09:48:27Z</time>
      </trkpt>
      <trkpt lat="44.98197" lon="6.42814">
        <ele>2214.53</ele>
        <time>2019-09-04T09:48:38Z</time>
      </trkpt>
      <trkpt lat="44.98201" lon="6.42785">
        <ele>2214.53</ele>
        <time>2019-09-04T09:48:55Z</time>
      </trkpt>
      <trkpt lat="44.98206" lon="6.42775">
        <ele>2215.01</ele>
        <time>2019-09-04T09:49:04Z</time>
      </trkpt>
      <trkpt lat="44.98213" lon="6.42747">
        <ele>2215.98</ele>
        <time>2019-09-04T09:49:24Z</time>
      </trkpt>
      <trkpt lat="44.98214" lon="6.42745">
        <ele>2215.98</ele>
        <time>2019-09-04T09:49:26Z</time>
      </trkpt>
      <trkpt lat="44.98223" lon="6.4273">
        <ele>2216.46</ele>
        <time>2019-09-04T09:49:38Z</time>
      </trkpt>
      <trkpt lat="44.98226" lon="6.42719">
        <ele>2216.46</ele>
        <time>2019-09-04T09:49:54Z</time>
      </trkpt>
      <trkpt lat="44.98227" lon="6.42712">
        <ele>2216.46</ele>
        <time>2019-09-04T09:50:07Z</time>
      </trkpt>
      <trkpt lat="44.98229" lon="6.42708">
        <ele>2216.46</ele>
        <time>2019-09-04T09:50:10Z</time>
      </trkpt>
      <trkpt lat="44.98231" lon="6.42696">
        <ele>2216.94</ele>
        <time>2019-09-04T09:50:20Z</time>
      </trkpt>
      <trkpt lat="44.98231" lon="6.42691">
        <ele>2216.94</ele>
        <time>2019-09-04T09:50:23Z</time>
      </trkpt>
      <trkpt lat="44.98237" lon="6.42665">
        <ele>2218.86</ele>
        <time>2019-09-04T09:50:40Z</time>
      </trkpt>
      <trkpt lat="44.98238" lon="6.42644">
        <ele>2219.34</ele>
        <time>2019-09-04T09:50:54Z</time>
      </trkpt>
      <trkpt lat="44.98238" lon="6.42643">
        <ele>2219.34</ele>
        <time>2019-09-04T09:50:55Z</time>
      </trkpt>
      <trkpt lat="44.98242" lon="6.42629">
        <ele>2219.82</ele>
        <time>2019-09-04T09:51:06Z</time>
      </trkpt>
      <trkpt lat="44.98242" lon="6.42618">
        <ele>2219.82</ele>
        <time>2019-09-04T09:51:12Z</time>
      </trkpt>
      <trkpt lat="44.98243" lon="6.42597">
        <ele>2220.3</ele>
        <time>2019-09-04T09:51:25Z</time>
      </trkpt>
      <trkpt lat="44.98243" lon="6.42594">
        <ele>2221.26</ele>
        <time>2019-09-04T09:51:27Z</time>
      </trkpt>
      <trkpt lat="44.98242" lon="6.42575">
        <ele>2222.22</ele>
        <time>2019-09-04T09:51:40Z</time>
      </trkpt>
      <trkpt lat="44.9824" lon="6.42569">
        <ele>2222.22</ele>
        <time>2019-09-04T09:52:00Z</time>
      </trkpt>
      <trkpt lat="44.98239" lon="6.42546">
        <ele>2223.19</ele>
        <time>2019-09-04T09:52:15Z</time>
      </trkpt>
      <trkpt lat="44.98238" lon="6.42537">
        <ele>2224.15</ele>
        <time>2019-09-04T09:52:22Z</time>
      </trkpt>
      <trkpt lat="44.9824" lon="6.42523">
        <ele>2227.03</ele>
        <time>2019-09-04T09:52:37Z</time>
      </trkpt>
      <trkpt lat="44.9824" lon="6.42517">
        <ele>2228.47</ele>
        <time>2019-09-04T09:52:53Z</time>
      </trkpt>
      <trkpt lat="44.9824" lon="6.42519">
        <ele>2228.47</ele>
        <time>2019-09-04T09:53:00Z</time>
      </trkpt>
      <trkpt lat="44.98238" lon="6.42496">
        <ele>2230.4</ele>
        <time>2019-09-04T09:53:15Z</time>
      </trkpt>
      <trkpt lat="44.98238" lon="6.42487">
        <ele>2231.36</ele>
        <time>2019-09-04T09:53:42Z</time>
      </trkpt>
      <trkpt lat="44.98236" lon="6.42468">
        <ele>2231.36</ele>
        <time>2019-09-04T09:53:57Z</time>
      </trkpt>
      <trkpt lat="44.98237" lon="6.42464">
        <ele>2232.32</ele>
        <time>2019-09-04T09:54:03Z</time>
      </trkpt>
      <trkpt lat="44.98237" lon="6.42462">
        <ele>2232.8</ele>
        <time>2019-09-04T09:54:16Z</time>
      </trkpt>
      <trkpt lat="44.98239" lon="6.42453">
        <ele>2232.8</ele>
        <time>2019-09-04T09:54:23Z</time>
      </trkpt>
      <trkpt lat="44.98236" lon="6.42438">
        <ele>2235.2</ele>
        <time>2019-09-04T09:54:38Z</time>
      </trkpt>
      <trkpt lat="44.98237" lon="6.42438">
        <ele>2236.16</ele>
        <time>2019-09-04T09:55:14Z</time>
      </trkpt>
      <trkpt lat="44.9824" lon="6.42434">
        <ele>2236.16</ele>
        <time>2019-09-04T09:55:28Z</time>
      </trkpt>
      <trkpt lat="44.98239" lon="6.42416">
        <ele>2239.05</ele>
        <time>2019-09-04T09:55:43Z</time>
      </trkpt>
      <trkpt lat="44.98239" lon="6.42415">
        <ele>2239.05</ele>
        <time>2019-09-04T09:55:44Z</time>
      </trkpt>
      <trkpt lat="44.98238" lon="6.42412">
        <ele>2238.57</ele>
        <time>2019-09-04T09:55:47Z</time>
      </trkpt>
      <trkpt lat="44.9824" lon="6.42403">
        <ele>2240.01</ele>
        <time>2019-09-04T09:55:55Z</time>
      </trkpt>
      <trkpt lat="44.98242" lon="6.42392">
        <ele>2241.45</ele>
        <time>2019-09-04T09:56:07Z</time>
      </trkpt>
      <trkpt lat="44.98241" lon="6.42387">
        <ele>2241.45</ele>
        <time>2019-09-04T09:56:12Z</time>
      </trkpt>
      <trkpt lat="44.98238" lon="6.42381">
        <ele>2241.45</ele>
        <time>2019-09-04T09:56:17Z</time>
      </trkpt>
      <trkpt lat="44.98237" lon="6.42376">
        <ele>2241.45</ele>
        <time>2019-09-04T09:56:21Z</time>
      </trkpt>
      <trkpt lat="44.98235" lon="6.42373">
        <ele>2241.45</ele>
        <time>2019-09-04T09:56:24Z</time>
      </trkpt>
      <trkpt lat="44.98235" lon="6.42364">
        <ele>2241.45</ele>
        <time>2019-09-04T09:56:31Z</time>
      </trkpt>
      <trkpt lat="44.98233" lon="6.42358">
        <ele>2241.45</ele>
        <time>2019-09-04T09:56:35Z</time>
      </trkpt>
      <trkpt lat="44.98227" lon="6.42341">
        <ele>2242.89</ele>
        <time>2019-09-04T09:56:50Z</time>
      </trkpt>
      <trkpt lat="44.98226" lon="6.42337">
        <ele>2244.33</ele>
        <time>2019-09-04T09:56:53Z</time>
      </trkpt>
      <trkpt lat="44.98222" lon="6.42335">
        <ele>2244.82</ele>
        <time>2019-09-04T09:57:07Z</time>
      </trkpt>
      <trkpt lat="44.98219" lon="6.42324">
        <ele>2243.85</ele>
        <time>2019-09-04T09:57:24Z</time>
      </trkpt>
      <trkpt lat="44.98218" lon="6.42319">
        <ele>2243.85</ele>
        <time>2019-09-04T09:57:27Z</time>
      </trkpt>
      <trkpt lat="44.98218" lon="6.42302">
        <ele>2245.78</ele>
        <time>2019-09-04T09:57:38Z</time>
      </trkpt>
      <trkpt lat="44.98219" lon="6.42298">
        <ele>2246.26</ele>
        <time>2019-09-04T09:57:41Z</time>
      </trkpt>
      <trkpt lat="44.98211" lon="6.42274">
        <ele>2247.22</ele>
        <time>2019-09-04T09:57:56Z</time>
      </trkpt>
      <trkpt lat="44.98213" lon="6.42267">
        <ele>2247.22</ele>
        <time>2019-09-04T09:58:08Z</time>
      </trkpt>
      <trkpt lat="44.98212" lon="6.42262">
        <ele>2247.7</ele>
        <time>2019-09-04T09:58:21Z</time>
      </trkpt>
      <trkpt lat="44.98209" lon="6.4225">
        <ele>2249.14</ele>
        <time>2019-09-04T09:58:35Z</time>
      </trkpt>
      <trkpt lat="44.98205" lon="6.42249">
        <ele>2249.62</ele>
        <time>2019-09-04T09:58:53Z</time>
      </trkpt>
      <trkpt lat="44.98204" lon="6.42248">
        <ele>2248.66</ele>
        <time>2019-09-04T09:59:05Z</time>
      </trkpt>
      <trkpt lat="44.98205" lon="6.4225">
        <ele>2248.18</ele>
        <time>2019-09-04T09:59:22Z</time>
      </trkpt>
      <trkpt lat="44.9821" lon="6.42247">
        <ele>2249.14</ele>
        <time>2019-09-04T09:59:45Z</time>
      </trkpt>
      <trkpt lat="44.9821" lon="6.42243">
        <ele>2249.14</ele>
        <time>2019-09-04T09:59:51Z</time>
      </trkpt>
      <trkpt lat="44.98214" lon="6.42241">
        <ele>2249.14</ele>
        <time>2019-09-04T09:59:55Z</time>
      </trkpt>
      <trkpt lat="44.98222" lon="6.42231">
        <ele>2249.14</ele>
        <time>2019-09-04T10:00:05Z</time>
      </trkpt>
      <trkpt lat="44.98223" lon="6.42227">
        <ele>2249.14</ele>
        <time>2019-09-04T10:00:08Z</time>
      </trkpt>
      <trkpt lat="44.98223" lon="6.42223">
        <ele>2247.7</ele>
        <time>2019-09-04T10:00:11Z</time>
      </trkpt>
      <trkpt lat="44.98222" lon="6.42214">
        <ele>2248.66</ele>
        <time>2019-09-04T10:00:17Z</time>
      </trkpt>
      <trkpt lat="44.98221" lon="6.4221">
        <ele>2247.7</ele>
        <time>2019-09-04T10:00:21Z</time>
      </trkpt>
      <trkpt lat="44.9822" lon="6.42206">
        <ele>2248.66</ele>
        <time>2019-09-04T10:00:26Z</time>
      </trkpt>
      <trkpt lat="44.98224" lon="6.42199">
        <ele>2247.7</ele>
        <time>2019-09-04T10:00:40Z</time>
      </trkpt>
      <trkpt lat="44.98224" lon="6.42197">
        <ele>2249.14</ele>
        <time>2019-09-04T10:00:42Z</time>
      </trkpt>
      <trkpt lat="44.9822" lon="6.42188">
        <ele>2246.74</ele>
        <time>2019-09-04T10:00:47Z</time>
      </trkpt>
      <trkpt lat="44.98213" lon="6.42182">
        <ele>2248.66</ele>
        <time>2019-09-04T10:00:54Z</time>
      </trkpt>
      <trkpt lat="44.98212" lon="6.42182">
        <ele>2248.66</ele>
        <time>2019-09-04T10:00:55Z</time>
      </trkpt>
      <trkpt lat="44.982" lon="6.42172">
        <ele>2251.06</ele>
        <time>2019-09-04T10:01:11Z</time>
      </trkpt>
      <trkpt lat="44.98194" lon="6.42172">
        <ele>2251.54</ele>
        <time>2019-09-04T10:01:25Z</time>
      </trkpt>
      <trkpt lat="44.98191" lon="6.42166">
        <ele>2250.58</ele>
        <time>2019-09-04T10:01:35Z</time>
      </trkpt>
      <trkpt lat="44.98185" lon="6.42139">
        <ele>2250.58</ele>
        <time>2019-09-04T10:01:52Z</time>
      </trkpt>
      <trkpt lat="44.98174" lon="6.42129">
        <ele>2248.66</ele>
        <time>2019-09-04T10:02:05Z</time>
      </trkpt>
      <trkpt lat="44.98161" lon="6.42119">
        <ele>2246.74</ele>
        <time>2019-09-04T10:02:19Z</time>
      </trkpt>
      <trkpt lat="44.9816" lon="6.42119">
        <ele>2247.7</ele>
        <time>2019-09-04T10:02:20Z</time>
      </trkpt>
      <trkpt lat="44.98151" lon="6.42113">
        <ele>2248.18</ele>
        <time>2019-09-04T10:02:27Z</time>
      </trkpt>
      <trkpt lat="44.98138" lon="6.42107">
        <ele>2248.18</ele>
        <time>2019-09-04T10:02:38Z</time>
      </trkpt>
      <trkpt lat="44.98136" lon="6.42107">
        <ele>2248.66</ele>
        <time>2019-09-04T10:02:40Z</time>
      </trkpt>
      <trkpt lat="44.98134" lon="6.42108">
        <ele>2248.66</ele>
        <time>2019-09-04T10:02:42Z</time>
      </trkpt>
      <trkpt lat="44.98125" lon="6.42104">
        <ele>2250.58</ele>
        <time>2019-09-04T10:02:55Z</time>
      </trkpt>
      <trkpt lat="44.98121" lon="6.421">
        <ele>2250.58</ele>
        <time>2019-09-04T10:03:02Z</time>
      </trkpt>
      <trkpt lat="44.98115" lon="6.42083">
        <ele>2252.51</ele>
        <time>2019-09-04T10:03:17Z</time>
      </trkpt>
      <trkpt lat="44.98109" lon="6.42071">
        <ele>2254.91</ele>
        <time>2019-09-04T10:03:32Z</time>
      </trkpt>
      <trkpt lat="44.98108" lon="6.42073">
        <ele>2255.39</ele>
        <time>2019-09-04T10:03:54Z</time>
      </trkpt>
      <trkpt lat="44.98107" lon="6.42071">
        <ele>2255.39</ele>
        <time>2019-09-04T10:03:56Z</time>
      </trkpt>
      <trkpt lat="44.98099" lon="6.42044">
        <ele>2256.83</ele>
        <time>2019-09-04T10:04:12Z</time>
      </trkpt>
      <trkpt lat="44.9809" lon="6.42024">
        <ele>2256.83</ele>
        <time>2019-09-04T10:04:28Z</time>
      </trkpt>
      <trkpt lat="44.98081" lon="6.42012">
        <ele>2257.31</ele>
        <time>2019-09-04T10:04:42Z</time>
      </trkpt>
      <trkpt lat="44.98077" lon="6.42">
        <ele>2259.72</ele>
        <time>2019-09-04T10:04:55Z</time>
      </trkpt>
      <trkpt lat="44.98073" lon="6.41993">
        <ele>2261.16</ele>
        <time>2019-09-04T10:05:10Z</time>
      </trkpt>
      <trkpt lat="44.98073" lon="6.41979">
        <ele>2263.08</ele>
        <time>2019-09-04T10:05:21Z</time>
      </trkpt>
      <trkpt lat="44.98068" lon="6.41962">
        <ele>2264.04</ele>
        <time>2019-09-04T10:05:35Z</time>
      </trkpt>
      <trkpt lat="44.98066" lon="6.41941">
        <ele>2265.48</ele>
        <time>2019-09-04T10:05:50Z</time>
      </trkpt>
      <trkpt lat="44.98065" lon="6.41922">
        <ele>2266.45</ele>
        <time>2019-09-04T10:06:04Z</time>
      </trkpt>
      <trkpt lat="44.98056" lon="6.419">
        <ele>2267.89</ele>
        <time>2019-09-04T10:06:21Z</time>
      </trkpt>
      <trkpt lat="44.98048" lon="6.41885">
        <ele>2269.33</ele>
        <time>2019-09-04T10:06:36Z</time>
      </trkpt>
      <trkpt lat="44.98043" lon="6.4188">
        <ele>2270.77</ele>
        <time>2019-09-04T10:06:44Z</time>
      </trkpt>
      <trkpt lat="44.98037" lon="6.41876">
        <ele>2271.73</ele>
        <time>2019-09-04T10:07:00Z</time>
      </trkpt>
      <trkpt lat="44.98035" lon="6.41878">
        <ele>2270.77</ele>
        <time>2019-09-04T10:07:15Z</time>
      </trkpt>
      <trkpt lat="44.98029" lon="6.4187">
        <ele>2271.73</ele>
        <time>2019-09-04T10:07:24Z</time>
      </trkpt>
      <trkpt lat="44.9802" lon="6.4186">
        <ele>2275.1</ele>
        <time>2019-09-04T10:07:38Z</time>
      </trkpt>
      <trkpt lat="44.98015" lon="6.41848">
        <ele>2277.02</ele>
        <time>2019-09-04T10:07:51Z</time>
      </trkpt>
      <trkpt lat="44.98011" lon="6.41838">
        <ele>2279.42</ele>
        <time>2019-09-04T10:08:05Z</time>
      </trkpt>
      <trkpt lat="44.98005" lon="6.41832">
        <ele>2281.83</ele>
        <time>2019-09-04T10:08:20Z</time>
      </trkpt>
      <trkpt lat="44.98004" lon="6.4182">
        <ele>2283.27</ele>
        <time>2019-09-04T10:08:36Z</time>
      </trkpt>
      <trkpt lat="44.97999" lon="6.41809">
        <ele>2284.71</ele>
        <time>2019-09-04T10:08:49Z</time>
      </trkpt>
      <trkpt lat="44.97998" lon="6.41806">
        <ele>2285.19</ele>
        <time>2019-09-04T10:08:58Z</time>
      </trkpt>
      <trkpt lat="44.97995" lon="6.41801">
        <ele>2286.63</ele>
        <time>2019-09-04T10:09:04Z</time>
      </trkpt>
      <trkpt lat="44.97994" lon="6.41794">
        <ele>2288.56</ele>
        <time>2019-09-04T10:09:19Z</time>
      </trkpt>
      <trkpt lat="44.97992" lon="6.41796">
        <ele>2289.52</ele>
        <time>2019-09-04T10:09:44Z</time>
      </trkpt>
      <trkpt lat="44.97997" lon="6.41799">
        <ele>2289.52</ele>
        <time>2019-09-04T10:10:03Z</time>
      </trkpt>
      <trkpt lat="44.98001" lon="6.41793">
        <ele>2289.52</ele>
        <time>2019-09-04T10:10:08Z</time>
      </trkpt>
      <trkpt lat="44.98002" lon="6.41787">
        <ele>2289.52</ele>
        <time>2019-09-04T10:10:12Z</time>
      </trkpt>
      <trkpt lat="44.97999" lon="6.41769">
        <ele>2290.48</ele>
        <time>2019-09-04T10:10:28Z</time>
      </trkpt>
      <trkpt lat="44.97998" lon="6.41754">
        <ele>2288.56</ele>
        <time>2019-09-04T10:10:44Z</time>
      </trkpt>
      <trkpt lat="44.97997" lon="6.41744">
        <ele>2290</ele>
        <time>2019-09-04T10:10:54Z</time>
      </trkpt>
      <trkpt lat="44.97992" lon="6.41733">
        <ele>2293.36</ele>
        <time>2019-09-04T10:11:08Z</time>
      </trkpt>
      <trkpt lat="44.97991" lon="6.41723">
        <ele>2295.77</ele>
        <time>2019-09-04T10:11:26Z</time>
      </trkpt>
      <trkpt lat="44.97986" lon="6.41704">
        <ele>2298.17</ele>
        <time>2019-09-04T10:11:42Z</time>
      </trkpt>
      <trkpt lat="44.97986" lon="6.4169">
        <ele>2300.57</ele>
        <time>2019-09-04T10:11:56Z</time>
      </trkpt>
      <trkpt lat="44.97986" lon="6.41687">
        <ele>2301.05</ele>
        <time>2019-09-04T10:12:01Z</time>
      </trkpt>
      <trkpt lat="44.97984" lon="6.4168">
        <ele>2302.01</ele>
        <time>2019-09-04T10:12:15Z</time>
      </trkpt>
      <trkpt lat="44.97983" lon="6.41675">
        <ele>2302.01</ele>
        <time>2019-09-04T10:12:21Z</time>
      </trkpt>
      <trkpt lat="44.97977" lon="6.41657">
        <ele>2304.42</ele>
        <time>2019-09-04T10:12:35Z</time>
      </trkpt>
      <trkpt lat="44.97967" lon="6.41643">
        <ele>2306.34</ele>
        <time>2019-09-04T10:12:50Z</time>
      </trkpt>
      <trkpt lat="44.97961" lon="6.41633">
        <ele>2308.26</ele>
        <time>2019-09-04T10:13:05Z</time>
      </trkpt>
      <trkpt lat="44.97958" lon="6.41628">
        <ele>2309.7</ele>
        <time>2019-09-04T10:13:10Z</time>
      </trkpt>
      <trkpt lat="44.97956" lon="6.41625">
        <ele>2308.26</ele>
        <time>2019-09-04T10:13:13Z</time>
      </trkpt>
      <trkpt lat="44.97955" lon="6.41622">
        <ele>2310.19</ele>
        <time>2019-09-04T10:13:16Z</time>
      </trkpt>
      <trkpt lat="44.97952" lon="6.41608">
        <ele>2312.11</ele>
        <time>2019-09-04T10:13:30Z</time>
      </trkpt>
      <trkpt lat="44.97949" lon="6.41597">
        <ele>2314.51</ele>
        <time>2019-09-04T10:13:43Z</time>
      </trkpt>
      <trkpt lat="44.97944" lon="6.41586">
        <ele>2316.43</ele>
        <time>2019-09-04T10:13:59Z</time>
      </trkpt>
      <trkpt lat="44.97942" lon="6.41571">
        <ele>2317.88</ele>
        <time>2019-09-04T10:14:12Z</time>
      </trkpt>
      <trkpt lat="44.97938" lon="6.41559">
        <ele>2320.28</ele>
        <time>2019-09-04T10:14:29Z</time>
      </trkpt>
      <trkpt lat="44.97936" lon="6.4155">
        <ele>2321.24</ele>
        <time>2019-09-04T10:14:50Z</time>
      </trkpt>
      <trkpt lat="44.97933" lon="6.41538">
        <ele>2324.12</ele>
        <time>2019-09-04T10:15:02Z</time>
      </trkpt>
      <trkpt lat="44.97931" lon="6.41525">
        <ele>2326.05</ele>
        <time>2019-09-04T10:15:19Z</time>
      </trkpt>
      <trkpt lat="44.97931" lon="6.41524">
        <ele>2326.05</ele>
        <time>2019-09-04T10:15:39Z</time>
      </trkpt>
      <trkpt lat="44.97932" lon="6.41518">
        <ele>2326.05</ele>
        <time>2019-09-04T10:15:44Z</time>
      </trkpt>
      <trkpt lat="44.97933" lon="6.41514">
        <ele>2326.53</ele>
        <time>2019-09-04T10:15:47Z</time>
      </trkpt>
      <trkpt lat="44.97934" lon="6.41508">
        <ele>2327.49</ele>
        <time>2019-09-04T10:15:52Z</time>
      </trkpt>
      <trkpt lat="44.97931" lon="6.41493">
        <ele>2329.41</ele>
        <time>2019-09-04T10:16:06Z</time>
      </trkpt>
      <trkpt lat="44.97924" lon="6.41474">
        <ele>2331.81</ele>
        <time>2019-09-04T10:16:20Z</time>
      </trkpt>
      <trkpt lat="44.97917" lon="6.41453">
        <ele>2335.18</ele>
        <time>2019-09-04T10:16:36Z</time>
      </trkpt>
      <trkpt lat="44.97913" lon="6.41437">
        <ele>2338.54</ele>
        <time>2019-09-04T10:16:51Z</time>
      </trkpt>
      <trkpt lat="44.97912" lon="6.4143">
        <ele>2338.54</ele>
        <time>2019-09-04T10:17:06Z</time>
      </trkpt>
      <trkpt lat="44.97909" lon="6.41422">
        <ele>2339.99</ele>
        <time>2019-09-04T10:17:13Z</time>
      </trkpt>
      <trkpt lat="44.97904" lon="6.41407">
        <ele>2341.91</ele>
        <time>2019-09-04T10:17:27Z</time>
      </trkpt>
      <trkpt lat="44.97898" lon="6.41397">
        <ele>2341.43</ele>
        <time>2019-09-04T10:17:36Z</time>
      </trkpt>
      <trkpt lat="44.97893" lon="6.41379">
        <ele>2343.35</ele>
        <time>2019-09-04T10:17:51Z</time>
      </trkpt>
      <trkpt lat="44.97893" lon="6.41377">
        <ele>2343.35</ele>
        <time>2019-09-04T10:18:06Z</time>
      </trkpt>
      <trkpt lat="44.97893" lon="6.41378">
        <ele>2343.83</ele>
        <time>2019-09-04T10:18:31Z</time>
      </trkpt>
      <trkpt lat="44.97893" lon="6.41375">
        <ele>2342.39</ele>
        <time>2019-09-04T10:18:37Z</time>
      </trkpt>
      <trkpt lat="44.9789" lon="6.41354">
        <ele>2342.87</ele>
        <time>2019-09-04T10:18:51Z</time>
      </trkpt>
      <trkpt lat="44.97889" lon="6.41342">
        <ele>2343.83</ele>
        <time>2019-09-04T10:18:58Z</time>
      </trkpt>
      <trkpt lat="44.97884" lon="6.41326">
        <ele>2344.79</ele>
        <time>2019-09-04T10:19:09Z</time>
      </trkpt>
      <trkpt lat="44.97883" lon="6.41323">
        <ele>2343.35</ele>
        <time>2019-09-04T10:19:11Z</time>
      </trkpt>
      <trkpt lat="44.97883" lon="6.41322">
        <ele>2343.35</ele>
        <time>2019-09-04T10:19:12Z</time>
      </trkpt>
      <trkpt lat="44.97881" lon="6.41314">
        <ele>2345.27</ele>
        <time>2019-09-04T10:19:17Z</time>
      </trkpt>
      <trkpt lat="44.9788" lon="6.41311">
        <ele>2343.35</ele>
        <time>2019-09-04T10:19:19Z</time>
      </trkpt>
      <trkpt lat="44.97879" lon="6.41309">
        <ele>2344.79</ele>
        <time>2019-09-04T10:19:21Z</time>
      </trkpt>
      <trkpt lat="44.97878" lon="6.41305">
        <ele>2344.79</ele>
        <time>2019-09-04T10:19:24Z</time>
      </trkpt>
      <trkpt lat="44.97876" lon="6.41296">
        <ele>2344.79</ele>
        <time>2019-09-04T10:19:29Z</time>
      </trkpt>
      <trkpt lat="44.97873" lon="6.4129">
        <ele>2344.79</ele>
        <time>2019-09-04T10:19:34Z</time>
      </trkpt>
      <trkpt lat="44.97872" lon="6.41283">
        <ele>2344.79</ele>
        <time>2019-09-04T10:19:39Z</time>
      </trkpt>
      <trkpt lat="44.97865" lon="6.41262">
        <ele>2345.27</ele>
        <time>2019-09-04T10:19:52Z</time>
      </trkpt>
      <trkpt lat="44.97863" lon="6.41255">
        <ele>2345.27</ele>
        <time>2019-09-04T10:19:56Z</time>
      </trkpt>
      <trkpt lat="44.97856" lon="6.41237">
        <ele>2345.27</ele>
        <time>2019-09-04T10:20:08Z</time>
      </trkpt>
      <trkpt lat="44.97855" lon="6.41222">
        <ele>2345.75</ele>
        <time>2019-09-04T10:20:17Z</time>
      </trkpt>
      <trkpt lat="44.97854" lon="6.41203">
        <ele>2343.83</ele>
        <time>2019-09-04T10:20:29Z</time>
      </trkpt>
      <trkpt lat="44.97851" lon="6.41186">
        <ele>2343.35</ele>
        <time>2019-09-04T10:20:39Z</time>
      </trkpt>
      <trkpt lat="44.97849" lon="6.4117">
        <ele>2343.83</ele>
        <time>2019-09-04T10:20:48Z</time>
      </trkpt>
      <trkpt lat="44.97845" lon="6.41161">
        <ele>2344.79</ele>
        <time>2019-09-04T10:20:53Z</time>
      </trkpt>
      <trkpt lat="44.97834" lon="6.41147">
        <ele>2345.27</ele>
        <time>2019-09-04T10:21:04Z</time>
      </trkpt>
      <trkpt lat="44.97828" lon="6.41131">
        <ele>2345.27</ele>
        <time>2019-09-04T10:21:16Z</time>
      </trkpt>
      <trkpt lat="44.97821" lon="6.41118">
        <ele>2345.27</ele>
        <time>2019-09-04T10:21:25Z</time>
      </trkpt>
      <trkpt lat="44.9782" lon="6.41115">
        <ele>2345.27</ele>
        <time>2019-09-04T10:21:27Z</time>
      </trkpt>
      <trkpt lat="44.97817" lon="6.41098">
        <ele>2344.31</ele>
        <time>2019-09-04T10:21:36Z</time>
      </trkpt>
      <trkpt lat="44.97817" lon="6.41087">
        <ele>2345.75</ele>
        <time>2019-09-04T10:21:42Z</time>
      </trkpt>
      <trkpt lat="44.97817" lon="6.41084">
        <ele>2345.75</ele>
        <time>2019-09-04T10:21:43Z</time>
      </trkpt>
      <trkpt lat="44.97817" lon="6.41083">
        <ele>2345.75</ele>
        <time>2019-09-04T10:21:44Z</time>
      </trkpt>
      <trkpt lat="44.97816" lon="6.41082">
        <ele>2345.75</ele>
        <time>2019-09-04T10:21:45Z</time>
      </trkpt>
      <trkpt lat="44.97815" lon="6.4108">
        <ele>2345.75</ele>
        <time>2019-09-04T10:21:46Z</time>
      </trkpt>
      <trkpt lat="44.97814" lon="6.41078">
        <ele>2345.75</ele>
        <time>2019-09-04T10:21:47Z</time>
      </trkpt>
      <trkpt lat="44.97813" lon="6.41077">
        <ele>2345.75</ele>
        <time>2019-09-04T10:21:48Z</time>
      </trkpt>
      <trkpt lat="44.97812" lon="6.41076">
        <ele>2345.75</ele>
        <time>2019-09-04T10:21:49Z</time>
      </trkpt>
      <trkpt lat="44.97797" lon="6.41054">
        <ele>2345.27</ele>
        <time>2019-09-04T10:22:07Z</time>
      </trkpt>
      <trkpt lat="44.97792" lon="6.41038">
        <ele>2345.27</ele>
        <time>2019-09-04T10:22:17Z</time>
      </trkpt>
      <trkpt lat="44.97792" lon="6.41036">
        <ele>2345.27</ele>
        <time>2019-09-04T10:22:18Z</time>
      </trkpt>
      <trkpt lat="44.97791" lon="6.4103">
        <ele>2345.27</ele>
        <time>2019-09-04T10:22:22Z</time>
      </trkpt>
      <trkpt lat="44.97791" lon="6.41028">
        <ele>2345.27</ele>
        <time>2019-09-04T10:22:23Z</time>
      </trkpt>
      <trkpt lat="44.97789" lon="6.41014">
        <ele>2345.27</ele>
        <time>2019-09-04T10:22:30Z</time>
      </trkpt>
      <trkpt lat="44.97788" lon="6.41011">
        <ele>2345.27</ele>
        <time>2019-09-04T10:22:31Z</time>
      </trkpt>
      <trkpt lat="44.97788" lon="6.41009">
        <ele>2345.27</ele>
        <time>2019-09-04T10:22:32Z</time>
      </trkpt>
      <trkpt lat="44.97788" lon="6.41002">
        <ele>2345.27</ele>
        <time>2019-09-04T10:22:36Z</time>
      </trkpt>
      <trkpt lat="44.97788" lon="6.41001">
        <ele>2345.27</ele>
        <time>2019-09-04T10:22:37Z</time>
      </trkpt>
      <trkpt lat="44.97788" lon="6.41">
        <ele>2345.75</ele>
        <time>2019-09-04T10:22:38Z</time>
      </trkpt>
      <trkpt lat="44.97788" lon="6.40998">
        <ele>2345.75</ele>
        <time>2019-09-04T10:22:39Z</time>
      </trkpt>
      <trkpt lat="44.97788" lon="6.40997">
        <ele>2345.75</ele>
        <time>2019-09-04T10:22:40Z</time>
      </trkpt>
      <trkpt lat="44.97789" lon="6.40992">
        <ele>2345.75</ele>
        <time>2019-09-04T10:22:43Z</time>
      </trkpt>
      <trkpt lat="44.97789" lon="6.40991">
        <ele>2345.75</ele>
        <time>2019-09-04T10:22:44Z</time>
      </trkpt>
      <trkpt lat="44.9779" lon="6.40989">
        <ele>2345.75</ele>
        <time>2019-09-04T10:22:45Z</time>
      </trkpt>
      <trkpt lat="44.97791" lon="6.40986">
        <ele>2345.27</ele>
        <time>2019-09-04T10:22:47Z</time>
      </trkpt>
      <trkpt lat="44.97793" lon="6.40984">
        <ele>2346.23</ele>
        <time>2019-09-04T10:23:00Z</time>
      </trkpt>
      <trkpt lat="44.97794" lon="6.40976">
        <ele>2344.79</ele>
        <time>2019-09-04T10:23:18Z</time>
      </trkpt>
      <trkpt lat="44.97794" lon="6.40974">
        <ele>2344.79</ele>
        <time>2019-09-04T10:23:19Z</time>
      </trkpt>
      <trkpt lat="44.97794" lon="6.40973">
        <ele>2344.31</ele>
        <time>2019-09-04T10:23:20Z</time>
      </trkpt>
      <trkpt lat="44.97794" lon="6.4097">
        <ele>2344.31</ele>
        <time>2019-09-04T10:23:21Z</time>
      </trkpt>
      <trkpt lat="44.97794" lon="6.40969">
        <ele>2344.31</ele>
        <time>2019-09-04T10:23:22Z</time>
      </trkpt>
      <trkpt lat="44.97795" lon="6.40968">
        <ele>2344.31</ele>
        <time>2019-09-04T10:23:23Z</time>
      </trkpt>
      <trkpt lat="44.97795" lon="6.40966">
        <ele>2344.31</ele>
        <time>2019-09-04T10:23:24Z</time>
      </trkpt>
      <trkpt lat="44.97796" lon="6.40965">
        <ele>2344.31</ele>
        <time>2019-09-04T10:23:25Z</time>
      </trkpt>
      <trkpt lat="44.97796" lon="6.40964">
        <ele>2344.31</ele>
        <time>2019-09-04T10:23:26Z</time>
      </trkpt>
      <trkpt lat="44.97797" lon="6.40962">
        <ele>2344.31</ele>
        <time>2019-09-04T10:23:27Z</time>
      </trkpt>
      <trkpt lat="44.97797" lon="6.4096">
        <ele>2344.31</ele>
        <time>2019-09-04T10:23:28Z</time>
      </trkpt>
      <trkpt lat="44.97796" lon="6.40958">
        <ele>2344.31</ele>
        <time>2019-09-04T10:23:30Z</time>
      </trkpt>
      <trkpt lat="44.97788" lon="6.40937">
        <ele>2344.31</ele>
        <time>2019-09-04T10:23:44Z</time>
      </trkpt>
      <trkpt lat="44.97787" lon="6.40937">
        <ele>2345.75</ele>
        <time>2019-09-04T10:24:04Z</time>
      </trkpt>
      <trkpt lat="44.9778" lon="6.40937">
        <ele>2345.75</ele>
        <time>2019-09-04T10:24:18Z</time>
      </trkpt>
      <trkpt lat="44.97776" lon="6.40939">
        <ele>2345.75</ele>
        <time>2019-09-04T10:24:32Z</time>
      </trkpt>
      <trkpt lat="44.97777" lon="6.40939">
        <ele>2345.75</ele>
        <time>2019-09-04T10:24:56Z</time>
      </trkpt>
      <trkpt lat="44.97776" lon="6.40939">
        <ele>2346.23</ele>
        <time>2019-09-04T10:25:18Z</time>
      </trkpt>
      <trkpt lat="44.97777" lon="6.4094">
        <ele>2346.23</ele>
        <time>2019-09-04T10:25:34Z</time>
      </trkpt>
      <trkpt lat="44.97776" lon="6.4094">
        <ele>2346.72</ele>
        <time>2019-09-04T10:25:46Z</time>
      </trkpt>
      <trkpt lat="44.97776" lon="6.40941">
        <ele>2346.72</ele>
        <time>2019-09-04T10:25:51Z</time>
      </trkpt>
      <trkpt lat="44.97776" lon="6.40941">
        <ele>2347.2</ele>
        <time>2019-09-04T10:26:02Z</time>
      </trkpt>
      <trkpt lat="44.97775" lon="6.4094">
        <ele>2347.68</ele>
        <time>2019-09-04T10:26:13Z</time>
      </trkpt>
      <trkpt lat="44.97775" lon="6.40941">
        <ele>2347.68</ele>
        <time>2019-09-04T10:26:25Z</time>
      </trkpt>
      <trkpt lat="44.97774" lon="6.40942">
        <ele>2347.68</ele>
        <time>2019-09-04T10:26:41Z</time>
      </trkpt>
      <trkpt lat="44.97774" lon="6.40941">
        <ele>2348.16</ele>
        <time>2019-09-04T10:26:58Z</time>
      </trkpt>
      <trkpt lat="44.97775" lon="6.40939">
        <ele>2348.16</ele>
        <time>2019-09-04T10:27:15Z</time>
      </trkpt>
      <trkpt lat="44.97778" lon="6.40939">
        <ele>2348.16</ele>
        <time>2019-09-04T10:27:29Z</time>
      </trkpt>
      <trkpt lat="44.97777" lon="6.40939">
        <ele>2348.16</ele>
        <time>2019-09-04T10:27:48Z</time>
      </trkpt>
      <trkpt lat="44.97778" lon="6.40939">
        <ele>2346.72</ele>
        <time>2019-09-04T10:27:52Z</time>
      </trkpt>
      <trkpt lat="44.97776" lon="6.40941">
        <ele>2347.2</ele>
        <time>2019-09-04T10:28:14Z</time>
      </trkpt>
      <trkpt lat="44.97776" lon="6.40935">
        <ele>2347.2</ele>
        <time>2019-09-04T10:28:32Z</time>
      </trkpt>
      <trkpt lat="44.97776" lon="6.40935">
        <ele>2348.64</ele>
        <time>2019-09-04T10:28:34Z</time>
      </trkpt>
      <trkpt lat="44.97778" lon="6.40925">
        <ele>2347.68</ele>
        <time>2019-09-04T10:28:47Z</time>
      </trkpt>
      <trkpt lat="44.97775" lon="6.40927">
        <ele>2347.68</ele>
        <time>2019-09-04T10:29:00Z</time>
      </trkpt>
      <trkpt lat="44.97776" lon="6.40925">
        <ele>2347.68</ele>
        <time>2019-09-04T10:29:17Z</time>
      </trkpt>
      <trkpt lat="44.97777" lon="6.40925">
        <ele>2347.68</ele>
        <time>2019-09-04T10:29:33Z</time>
      </trkpt>
      <trkpt lat="44.97777" lon="6.40927">
        <ele>2348.16</ele>
        <time>2019-09-04T10:29:46Z</time>
      </trkpt>
      <trkpt lat="44.97778" lon="6.40929">
        <ele>2348.16</ele>
        <time>2019-09-04T10:29:59Z</time>
      </trkpt>
      <trkpt lat="44.97778" lon="6.40934">
        <ele>2349.12</ele>
        <time>2019-09-04T10:30:06Z</time>
      </trkpt>
      <trkpt lat="44.97776" lon="6.40936">
        <ele>2349.6</ele>
        <time>2019-09-04T10:30:24Z</time>
      </trkpt>
      <trkpt lat="44.97776" lon="6.40939">
        <ele>2349.6</ele>
        <time>2019-09-04T10:30:37Z</time>
      </trkpt>
      <trkpt lat="44.97774" lon="6.40942">
        <ele>2349.6</ele>
        <time>2019-09-04T10:30:51Z</time>
      </trkpt>
      <trkpt lat="44.97775" lon="6.40955">
        <ele>2347.2</ele>
        <time>2019-09-04T10:31:04Z</time>
      </trkpt>
      <trkpt lat="44.97774" lon="6.40965">
        <ele>2345.27</ele>
        <time>2019-09-04T10:31:19Z</time>
      </trkpt>
      <trkpt lat="44.97773" lon="6.40975">
        <ele>2344.79</ele>
        <time>2019-09-04T10:31:31Z</time>
      </trkpt>
      <trkpt lat="44.97772" lon="6.40973">
        <ele>2345.27</ele>
        <time>2019-09-04T10:31:48Z</time>
      </trkpt>
      <trkpt lat="44.97774" lon="6.40973">
        <ele>2345.75</ele>
        <time>2019-09-04T10:32:04Z</time>
      </trkpt>
      <trkpt lat="44.97774" lon="6.40974">
        <ele>2346.23</ele>
        <time>2019-09-04T10:32:23Z</time>
      </trkpt>
      <trkpt lat="44.97774" lon="6.40974">
        <ele>2346.23</ele>
        <time>2019-09-04T10:32:34Z</time>
      </trkpt>
      <trkpt lat="44.97785" lon="6.40976">
        <ele>2341.91</ele>
        <time>2019-09-04T11:46:24Z</time>
      </trkpt>
      <trkpt lat="44.97776" lon="6.40974">
        <ele>2343.35</ele>
        <time>2019-09-04T11:46:30Z</time>
      </trkpt>
      <trkpt lat="44.97777" lon="6.40974">
        <ele>2346.23</ele>
        <time>2019-09-04T11:46:41Z</time>
      </trkpt>
      <trkpt lat="44.97777" lon="6.40974">
        <ele>2346.72</ele>
        <time>2019-09-04T11:46:42Z</time>
      </trkpt>
      <trkpt lat="44.97778" lon="6.40975">
        <ele>2347.68</ele>
        <time>2019-09-04T11:46:50Z</time>
      </trkpt>
      <trkpt lat="44.97785" lon="6.40967">
        <ele>2349.12</ele>
        <time>2019-09-04T11:47:04Z</time>
      </trkpt>
      <trkpt lat="44.97794" lon="6.40966">
        <ele>2350.56</ele>
        <time>2019-09-04T11:47:19Z</time>
      </trkpt>
      <trkpt lat="44.97795" lon="6.40974">
        <ele>2352.48</ele>
        <time>2019-09-04T11:47:34Z</time>
      </trkpt>
      <trkpt lat="44.97795" lon="6.40979">
        <ele>2352.96</ele>
        <time>2019-09-04T11:47:49Z</time>
      </trkpt>
      <trkpt lat="44.97793" lon="6.40991">
        <ele>2353.93</ele>
        <time>2019-09-04T11:48:03Z</time>
      </trkpt>
      <trkpt lat="44.97791" lon="6.41006">
        <ele>2355.37</ele>
        <time>2019-09-04T11:48:18Z</time>
      </trkpt>
      <trkpt lat="44.9779" lon="6.41016">
        <ele>2355.37</ele>
        <time>2019-09-04T11:48:26Z</time>
      </trkpt>
      <trkpt lat="44.97791" lon="6.41026">
        <ele>2355.37</ele>
        <time>2019-09-04T11:48:34Z</time>
      </trkpt>
      <trkpt lat="44.97792" lon="6.41045">
        <ele>2355.37</ele>
        <time>2019-09-04T11:48:50Z</time>
      </trkpt>
      <trkpt lat="44.97801" lon="6.41062">
        <ele>2355.37</ele>
        <time>2019-09-04T11:49:06Z</time>
      </trkpt>
      <trkpt lat="44.97809" lon="6.41074">
        <ele>2355.37</ele>
        <time>2019-09-04T11:49:19Z</time>
      </trkpt>
      <trkpt lat="44.97813" lon="6.41079">
        <ele>2354.41</ele>
        <time>2019-09-04T11:49:24Z</time>
      </trkpt>
      <trkpt lat="44.97814" lon="6.41081">
        <ele>2354.41</ele>
        <time>2019-09-04T11:49:26Z</time>
      </trkpt>
      <trkpt lat="44.97816" lon="6.41104">
        <ele>2353.93</ele>
        <time>2019-09-04T11:49:42Z</time>
      </trkpt>
      <trkpt lat="44.9782" lon="6.41122">
        <ele>2353.44</ele>
        <time>2019-09-04T11:49:56Z</time>
      </trkpt>
      <trkpt lat="44.97822" lon="6.41125">
        <ele>2353.44</ele>
        <time>2019-09-04T11:49:59Z</time>
      </trkpt>
      <trkpt lat="44.97834" lon="6.41151">
        <ele>2354.41</ele>
        <time>2019-09-04T11:50:20Z</time>
      </trkpt>
      <trkpt lat="44.97844" lon="6.41165">
        <ele>2354.41</ele>
        <time>2019-09-04T11:50:34Z</time>
      </trkpt>
      <trkpt lat="44.97849" lon="6.41193">
        <ele>2353.44</ele>
        <time>2019-09-04T11:50:53Z</time>
      </trkpt>
      <trkpt lat="44.97852" lon="6.41217">
        <ele>2354.41</ele>
        <time>2019-09-04T11:51:11Z</time>
      </trkpt>
      <trkpt lat="44.97857" lon="6.41241">
        <ele>2355.85</ele>
        <time>2019-09-04T11:51:30Z</time>
      </trkpt>
      <trkpt lat="44.9786" lon="6.41249">
        <ele>2354.89</ele>
        <time>2019-09-04T11:51:36Z</time>
      </trkpt>
      <trkpt lat="44.97867" lon="6.41275">
        <ele>2354.89</ele>
        <time>2019-09-04T11:51:55Z</time>
      </trkpt>
      <trkpt lat="44.9787" lon="6.41282">
        <ele>2354.41</ele>
        <time>2019-09-04T11:52:01Z</time>
      </trkpt>
      <trkpt lat="44.97873" lon="6.41291">
        <ele>2354.41</ele>
        <time>2019-09-04T11:52:08Z</time>
      </trkpt>
      <trkpt lat="44.97881" lon="6.41315">
        <ele>2354.41</ele>
        <time>2019-09-04T11:52:26Z</time>
      </trkpt>
      <trkpt lat="44.97882" lon="6.4132">
        <ele>2354.41</ele>
        <time>2019-09-04T11:52:30Z</time>
      </trkpt>
      <trkpt lat="44.97884" lon="6.41323">
        <ele>2354.41</ele>
        <time>2019-09-04T11:52:33Z</time>
      </trkpt>
      <trkpt lat="44.97889" lon="6.41351">
        <ele>2353.93</ele>
        <time>2019-09-04T11:52:52Z</time>
      </trkpt>
      <trkpt lat="44.97893" lon="6.41375">
        <ele>2352.48</ele>
        <time>2019-09-04T11:53:09Z</time>
      </trkpt>
      <trkpt lat="44.97898" lon="6.41392">
        <ele>2352.48</ele>
        <time>2019-09-04T11:53:22Z</time>
      </trkpt>
      <trkpt lat="44.97907" lon="6.4141">
        <ele>2352</ele>
        <time>2019-09-04T11:53:37Z</time>
      </trkpt>
      <trkpt lat="44.97912" lon="6.41425">
        <ele>2350.56</ele>
        <time>2019-09-04T11:53:52Z</time>
      </trkpt>
      <trkpt lat="44.97917" lon="6.41442">
        <ele>2348.16</ele>
        <time>2019-09-04T11:54:08Z</time>
      </trkpt>
      <trkpt lat="44.97924" lon="6.41463">
        <ele>2344.79</ele>
        <time>2019-09-04T11:54:25Z</time>
      </trkpt>
      <trkpt lat="44.97931" lon="6.41489">
        <ele>2342.87</ele>
        <time>2019-09-04T11:54:43Z</time>
      </trkpt>
      <trkpt lat="44.97934" lon="6.415">
        <ele>2339.51</ele>
        <time>2019-09-04T11:54:55Z</time>
      </trkpt>
      <trkpt lat="44.97933" lon="6.41516">
        <ele>2337.58</ele>
        <time>2019-09-04T11:55:09Z</time>
      </trkpt>
      <trkpt lat="44.97933" lon="6.41536">
        <ele>2335.66</ele>
        <time>2019-09-04T11:55:24Z</time>
      </trkpt>
      <trkpt lat="44.97936" lon="6.41549">
        <ele>2333.26</ele>
        <time>2019-09-04T11:55:39Z</time>
      </trkpt>
      <trkpt lat="44.97943" lon="6.41561">
        <ele>2331.81</ele>
        <time>2019-09-04T11:55:53Z</time>
      </trkpt>
      <trkpt lat="44.97945" lon="6.41577">
        <ele>2328.93</ele>
        <time>2019-09-04T11:56:06Z</time>
      </trkpt>
      <trkpt lat="44.97946" lon="6.41586">
        <ele>2328.45</ele>
        <time>2019-09-04T11:56:13Z</time>
      </trkpt>
      <trkpt lat="44.97954" lon="6.41602">
        <ele>2325.57</ele>
        <time>2019-09-04T11:56:29Z</time>
      </trkpt>
      <trkpt lat="44.97955" lon="6.4161">
        <ele>2324.12</ele>
        <time>2019-09-04T11:56:38Z</time>
      </trkpt>
      <trkpt lat="44.97957" lon="6.41619">
        <ele>2322.2</ele>
        <time>2019-09-04T11:56:46Z</time>
      </trkpt>
      <trkpt lat="44.97964" lon="6.41634">
        <ele>2320.28</ele>
        <time>2019-09-04T11:57:00Z</time>
      </trkpt>
      <trkpt lat="44.97971" lon="6.41649">
        <ele>2317.88</ele>
        <time>2019-09-04T11:57:14Z</time>
      </trkpt>
      <trkpt lat="44.97974" lon="6.41654">
        <ele>2317.4</ele>
        <time>2019-09-04T11:57:18Z</time>
      </trkpt>
      <trkpt lat="44.97981" lon="6.4167">
        <ele>2314.51</ele>
        <time>2019-09-04T11:57:32Z</time>
      </trkpt>
      <trkpt lat="44.97986" lon="6.41686">
        <ele>2313.55</ele>
        <time>2019-09-04T11:57:47Z</time>
      </trkpt>
      <trkpt lat="44.97986" lon="6.41698">
        <ele>2311.63</ele>
        <time>2019-09-04T11:57:59Z</time>
      </trkpt>
      <trkpt lat="44.97987" lon="6.41716">
        <ele>2309.7</ele>
        <time>2019-09-04T11:58:11Z</time>
      </trkpt>
      <trkpt lat="44.9799" lon="6.41732">
        <ele>2306.82</ele>
        <time>2019-09-04T11:58:23Z</time>
      </trkpt>
      <trkpt lat="44.97995" lon="6.41743">
        <ele>2303.94</ele>
        <time>2019-09-04T11:58:36Z</time>
      </trkpt>
      <trkpt lat="44.97997" lon="6.41748">
        <ele>2302.49</ele>
        <time>2019-09-04T11:58:43Z</time>
      </trkpt>
      <trkpt lat="44.98" lon="6.4177">
        <ele>2304.42</ele>
        <time>2019-09-04T11:58:58Z</time>
      </trkpt>
      <trkpt lat="44.98" lon="6.41775">
        <ele>2304.42</ele>
        <time>2019-09-04T11:59:01Z</time>
      </trkpt>
      <trkpt lat="44.97999" lon="6.41779">
        <ele>2304.42</ele>
        <time>2019-09-04T11:59:04Z</time>
      </trkpt>
      <trkpt lat="44.98001" lon="6.41786">
        <ele>2302.98</ele>
        <time>2019-09-04T11:59:08Z</time>
      </trkpt>
      <trkpt lat="44.97999" lon="6.41797">
        <ele>2302.01</ele>
        <time>2019-09-04T11:59:15Z</time>
      </trkpt>
      <trkpt lat="44.97998" lon="6.41799">
        <ele>2302.49</ele>
        <time>2019-09-04T11:59:16Z</time>
      </trkpt>
      <trkpt lat="44.97996" lon="6.41815">
        <ele>2299.13</ele>
        <time>2019-09-04T11:59:30Z</time>
      </trkpt>
      <trkpt lat="44.97996" lon="6.4182">
        <ele>2298.65</ele>
        <time>2019-09-04T11:59:32Z</time>
      </trkpt>
      <trkpt lat="44.97995" lon="6.41823">
        <ele>2298.65</ele>
        <time>2019-09-04T11:59:34Z</time>
      </trkpt>
      <trkpt lat="44.97996" lon="6.41826">
        <ele>2298.17</ele>
        <time>2019-09-04T11:59:36Z</time>
      </trkpt>
      <trkpt lat="44.97996" lon="6.4183">
        <ele>2297.21</ele>
        <time>2019-09-04T11:59:43Z</time>
      </trkpt>
      <trkpt lat="44.97997" lon="6.41829">
        <ele>2300.09</ele>
        <time>2019-09-04T11:59:44Z</time>
      </trkpt>
      <trkpt lat="44.97996" lon="6.41829">
        <ele>2298.17</ele>
        <time>2019-09-04T11:59:45Z</time>
      </trkpt>
      <trkpt lat="44.97996" lon="6.41829">
        <ele>2300.09</ele>
        <time>2019-09-04T11:59:46Z</time>
      </trkpt>
      <trkpt lat="44.97996" lon="6.41833">
        <ele>2300.09</ele>
        <time>2019-09-04T12:00:03Z</time>
      </trkpt>
      <trkpt lat="44.97997" lon="6.41827">
        <ele>2298.17</ele>
        <time>2019-09-04T12:00:16Z</time>
      </trkpt>
      <trkpt lat="44.98005" lon="6.41829">
        <ele>2297.21</ele>
        <time>2019-09-04T12:00:29Z</time>
      </trkpt>
      <trkpt lat="44.98008" lon="6.41835">
        <ele>2294.8</ele>
        <time>2019-09-04T12:00:42Z</time>
      </trkpt>
      <trkpt lat="44.9801" lon="6.4184">
        <ele>2293.36</ele>
        <time>2019-09-04T12:00:47Z</time>
      </trkpt>
      <trkpt lat="44.98015" lon="6.41848">
        <ele>2291.44</ele>
        <time>2019-09-04T12:00:56Z</time>
      </trkpt>
      <trkpt lat="44.98023" lon="6.41865">
        <ele>2288.08</ele>
        <time>2019-09-04T12:01:11Z</time>
      </trkpt>
      <trkpt lat="44.98033" lon="6.41877">
        <ele>2285.67</ele>
        <time>2019-09-04T12:01:23Z</time>
      </trkpt>
      <trkpt lat="44.98034" lon="6.41878">
        <ele>2285.67</ele>
        <time>2019-09-04T12:01:24Z</time>
      </trkpt>
      <trkpt lat="44.98038" lon="6.41881">
        <ele>2285.67</ele>
        <time>2019-09-04T12:01:29Z</time>
      </trkpt>
      <trkpt lat="44.98046" lon="6.41888">
        <ele>2284.71</ele>
        <time>2019-09-04T12:01:40Z</time>
      </trkpt>
      <trkpt lat="44.98052" lon="6.41902">
        <ele>2282.31</ele>
        <time>2019-09-04T12:01:53Z</time>
      </trkpt>
      <trkpt lat="44.98058" lon="6.41923">
        <ele>2280.87</ele>
        <time>2019-09-04T12:02:07Z</time>
      </trkpt>
      <trkpt lat="44.9806" lon="6.41928">
        <ele>2280.38</ele>
        <time>2019-09-04T12:02:11Z</time>
      </trkpt>
      <trkpt lat="44.98062" lon="6.41953">
        <ele>2278.46</ele>
        <time>2019-09-04T12:02:28Z</time>
      </trkpt>
      <trkpt lat="44.98067" lon="6.4197">
        <ele>2277.98</ele>
        <time>2019-09-04T12:02:39Z</time>
      </trkpt>
      <trkpt lat="44.98071" lon="6.41996">
        <ele>2276.54</ele>
        <time>2019-09-04T12:02:56Z</time>
      </trkpt>
      <trkpt lat="44.98072" lon="6.42001">
        <ele>2275.58</ele>
        <time>2019-09-04T12:03:00Z</time>
      </trkpt>
      <trkpt lat="44.98078" lon="6.42009">
        <ele>2273.17</ele>
        <time>2019-09-04T12:03:13Z</time>
      </trkpt>
      <trkpt lat="44.98078" lon="6.4201">
        <ele>2273.17</ele>
        <time>2019-09-04T12:03:14Z</time>
      </trkpt>
      <trkpt lat="44.98083" lon="6.4202">
        <ele>2271.73</ele>
        <time>2019-09-04T12:03:22Z</time>
      </trkpt>
      <trkpt lat="44.98094" lon="6.42044">
        <ele>2270.77</ele>
        <time>2019-09-04T12:03:39Z</time>
      </trkpt>
      <trkpt lat="44.98098" lon="6.42051">
        <ele>2269.81</ele>
        <time>2019-09-04T12:03:45Z</time>
      </trkpt>
      <trkpt lat="44.98098" lon="6.42054">
        <ele>2269.81</ele>
        <time>2019-09-04T12:03:46Z</time>
      </trkpt>
      <trkpt lat="44.98108" lon="6.42068">
        <ele>2268.85</ele>
        <time>2019-09-04T12:04:02Z</time>
      </trkpt>
      <trkpt lat="44.98108" lon="6.4207">
        <ele>2268.85</ele>
        <time>2019-09-04T12:04:03Z</time>
      </trkpt>
      <trkpt lat="44.98111" lon="6.42078">
        <ele>2268.85</ele>
        <time>2019-09-04T12:04:18Z</time>
      </trkpt>
      <trkpt lat="44.98118" lon="6.42086">
        <ele>2266.45</ele>
        <time>2019-09-04T12:04:32Z</time>
      </trkpt>
      <trkpt lat="44.9812" lon="6.42096">
        <ele>2265.48</ele>
        <time>2019-09-04T12:04:39Z</time>
      </trkpt>
      <trkpt lat="44.98132" lon="6.42105">
        <ele>2264.04</ele>
        <time>2019-09-04T12:04:56Z</time>
      </trkpt>
      <trkpt lat="44.98134" lon="6.42104">
        <ele>2263.56</ele>
        <time>2019-09-04T12:04:58Z</time>
      </trkpt>
      <trkpt lat="44.98137" lon="6.42103">
        <ele>2263.08</ele>
        <time>2019-09-04T12:05:01Z</time>
      </trkpt>
      <trkpt lat="44.98143" lon="6.42105">
        <ele>2262.6</ele>
        <time>2019-09-04T12:05:08Z</time>
      </trkpt>
      <trkpt lat="44.98158" lon="6.42116">
        <ele>2262.6</ele>
        <time>2019-09-04T12:05:23Z</time>
      </trkpt>
      <trkpt lat="44.98174" lon="6.42129">
        <ele>2262.6</ele>
        <time>2019-09-04T12:05:40Z</time>
      </trkpt>
      <trkpt lat="44.98184" lon="6.42136">
        <ele>2264.04</ele>
        <time>2019-09-04T12:05:50Z</time>
      </trkpt>
      <trkpt lat="44.98187" lon="6.42149">
        <ele>2265</ele>
        <time>2019-09-04T12:06:04Z</time>
      </trkpt>
      <trkpt lat="44.98187" lon="6.42169">
        <ele>2264.04</ele>
        <time>2019-09-04T12:06:18Z</time>
      </trkpt>
      <trkpt lat="44.98186" lon="6.42177">
        <ele>2264.04</ele>
        <time>2019-09-04T12:06:29Z</time>
      </trkpt>
      <trkpt lat="44.98187" lon="6.42179">
        <ele>2264.04</ele>
        <time>2019-09-04T12:06:54Z</time>
      </trkpt>
      <trkpt lat="44.98187" lon="6.42179">
        <ele>2264.04</ele>
        <time>2019-09-04T12:07:00Z</time>
      </trkpt>
      <trkpt lat="44.98191" lon="6.42171">
        <ele>2265.96</ele>
        <time>2019-09-04T12:07:06Z</time>
      </trkpt>
      <trkpt lat="44.98196" lon="6.42171">
        <ele>2265.96</ele>
        <time>2019-09-04T12:07:16Z</time>
      </trkpt>
      <trkpt lat="44.98201" lon="6.42177">
        <ele>2264.52</ele>
        <time>2019-09-04T12:07:29Z</time>
      </trkpt>
      <trkpt lat="44.98214" lon="6.42188">
        <ele>2261.64</ele>
        <time>2019-09-04T12:07:42Z</time>
      </trkpt>
      <trkpt lat="44.9822" lon="6.42198">
        <ele>2262.6</ele>
        <time>2019-09-04T12:07:51Z</time>
      </trkpt>
      <trkpt lat="44.9822" lon="6.42202">
        <ele>2262.6</ele>
        <time>2019-09-04T12:07:54Z</time>
      </trkpt>
      <trkpt lat="44.98222" lon="6.42224">
        <ele>2262.6</ele>
        <time>2019-09-04T12:08:06Z</time>
      </trkpt>
      <trkpt lat="44.98219" lon="6.42234">
        <ele>2262.6</ele>
        <time>2019-09-04T12:08:10Z</time>
      </trkpt>
      <trkpt lat="44.98207" lon="6.42237">
        <ele>2262.6</ele>
        <time>2019-09-04T12:08:26Z</time>
      </trkpt>
      <trkpt lat="44.98202" lon="6.4225">
        <ele>2262.6</ele>
        <time>2019-09-04T12:08:42Z</time>
      </trkpt>
      <trkpt lat="44.98197" lon="6.42253">
        <ele>2263.08</ele>
        <time>2019-09-04T12:08:49Z</time>
      </trkpt>
      <trkpt lat="44.98196" lon="6.42254">
        <ele>2263.08</ele>
        <time>2019-09-04T12:08:52Z</time>
      </trkpt>
      <trkpt lat="44.98194" lon="6.42254">
        <ele>2261.64</ele>
        <time>2019-09-04T12:08:55Z</time>
      </trkpt>
      <trkpt lat="44.98194" lon="6.42253">
        <ele>2260.68</ele>
        <time>2019-09-04T12:08:56Z</time>
      </trkpt>
      <trkpt lat="44.98193" lon="6.42251">
        <ele>2259.72</ele>
        <time>2019-09-04T12:08:58Z</time>
      </trkpt>
      <trkpt lat="44.98182" lon="6.42245">
        <ele>2261.16</ele>
        <time>2019-09-04T12:09:07Z</time>
      </trkpt>
      <trkpt lat="44.98179" lon="6.42245">
        <ele>2261.16</ele>
        <time>2019-09-04T12:09:10Z</time>
      </trkpt>
      <trkpt lat="44.98176" lon="6.42244">
        <ele>2261.16</ele>
        <time>2019-09-04T12:09:13Z</time>
      </trkpt>
      <trkpt lat="44.98175" lon="6.42235">
        <ele>2261.16</ele>
        <time>2019-09-04T12:09:26Z</time>
      </trkpt>
      <trkpt lat="44.98179" lon="6.42236">
        <ele>2261.16</ele>
        <time>2019-09-04T12:09:48Z</time>
      </trkpt>
      <trkpt lat="44.98176" lon="6.42237">
        <ele>2261.64</ele>
        <time>2019-09-04T12:10:10Z</time>
      </trkpt>
      <trkpt lat="44.9818" lon="6.42246">
        <ele>2261.64</ele>
        <time>2019-09-04T12:10:24Z</time>
      </trkpt>
      <trkpt lat="44.98189" lon="6.42247">
        <ele>2262.12</ele>
        <time>2019-09-04T12:10:39Z</time>
      </trkpt>
      <trkpt lat="44.98195" lon="6.42251">
        <ele>2262.12</ele>
        <time>2019-09-04T12:10:47Z</time>
      </trkpt>
      <trkpt lat="44.98203" lon="6.42251">
        <ele>2262.12</ele>
        <time>2019-09-04T12:10:58Z</time>
      </trkpt>
      <trkpt lat="44.98201" lon="6.42252">
        <ele>2262.6</ele>
        <time>2019-09-04T12:11:15Z</time>
      </trkpt>
      <trkpt lat="44.98198" lon="6.42259">
        <ele>2262.6</ele>
        <time>2019-09-04T12:11:31Z</time>
      </trkpt>
      <trkpt lat="44.98198" lon="6.42259">
        <ele>2262.6</ele>
        <time>2019-09-04T12:11:53Z</time>
      </trkpt>
      <trkpt lat="44.982" lon="6.42258">
        <ele>2262.12</ele>
        <time>2019-09-04T12:12:08Z</time>
      </trkpt>
      <trkpt lat="44.98197" lon="6.42249">
        <ele>2262.12</ele>
        <time>2019-09-04T12:12:35Z</time>
      </trkpt>
      <trkpt lat="44.98196" lon="6.42249">
        <ele>2262.12</ele>
        <time>2019-09-04T12:12:56Z</time>
      </trkpt>
      <trkpt lat="44.98199" lon="6.42249">
        <ele>2262.12</ele>
        <time>2019-09-04T12:13:15Z</time>
      </trkpt>
      <trkpt lat="44.98197" lon="6.4225">
        <ele>2262.12</ele>
        <time>2019-09-04T12:13:39Z</time>
      </trkpt>
      <trkpt lat="44.98196" lon="6.42251">
        <ele>2263.56</ele>
        <time>2019-09-04T12:14:06Z</time>
      </trkpt>
      <trkpt lat="44.98201" lon="6.42252">
        <ele>2263.56</ele>
        <time>2019-09-04T12:14:32Z</time>
      </trkpt>
      <trkpt lat="44.98204" lon="6.42254">
        <ele>2263.56</ele>
        <time>2019-09-04T12:14:54Z</time>
      </trkpt>
      <trkpt lat="44.98202" lon="6.42258">
        <ele>2262.12</ele>
        <time>2019-09-04T12:14:58Z</time>
      </trkpt>
      <trkpt lat="44.98209" lon="6.4227">
        <ele>2261.64</ele>
        <time>2019-09-04T12:15:06Z</time>
      </trkpt>
      <trkpt lat="44.98214" lon="6.4229">
        <ele>2261.16</ele>
        <time>2019-09-04T12:15:19Z</time>
      </trkpt>
      <trkpt lat="44.98218" lon="6.42303">
        <ele>2260.2</ele>
        <time>2019-09-04T12:15:29Z</time>
      </trkpt>
      <trkpt lat="44.98216" lon="6.42309">
        <ele>2259.72</ele>
        <time>2019-09-04T12:15:33Z</time>
      </trkpt>
      <trkpt lat="44.98223" lon="6.42331">
        <ele>2259.24</ele>
        <time>2019-09-04T12:15:47Z</time>
      </trkpt>
      <trkpt lat="44.98223" lon="6.42338">
        <ele>2258.75</ele>
        <time>2019-09-04T12:15:51Z</time>
      </trkpt>
      <trkpt lat="44.98227" lon="6.4234">
        <ele>2259.24</ele>
        <time>2019-09-04T12:15:57Z</time>
      </trkpt>
      <trkpt lat="44.98231" lon="6.42353">
        <ele>2257.79</ele>
        <time>2019-09-04T12:16:14Z</time>
      </trkpt>
      <trkpt lat="44.98231" lon="6.42361">
        <ele>2256.35</ele>
        <time>2019-09-04T12:16:32Z</time>
      </trkpt>
      <trkpt lat="44.98235" lon="6.42371">
        <ele>2255.87</ele>
        <time>2019-09-04T12:16:39Z</time>
      </trkpt>
      <trkpt lat="44.98238" lon="6.42378">
        <ele>2255.87</ele>
        <time>2019-09-04T12:16:44Z</time>
      </trkpt>
      <trkpt lat="44.98241" lon="6.42395">
        <ele>2255.39</ele>
        <time>2019-09-04T12:16:57Z</time>
      </trkpt>
      <trkpt lat="44.98237" lon="6.42398">
        <ele>2254.91</ele>
        <time>2019-09-04T12:17:08Z</time>
      </trkpt>
      <trkpt lat="44.98241" lon="6.42406">
        <ele>2254.43</ele>
        <time>2019-09-04T12:17:29Z</time>
      </trkpt>
      <trkpt lat="44.98241" lon="6.42408">
        <ele>2254.43</ele>
        <time>2019-09-04T12:17:30Z</time>
      </trkpt>
      <trkpt lat="44.9824" lon="6.42425">
        <ele>2252.51</ele>
        <time>2019-09-04T12:17:42Z</time>
      </trkpt>
      <trkpt lat="44.98241" lon="6.42433">
        <ele>2251.06</ele>
        <time>2019-09-04T12:17:49Z</time>
      </trkpt>
      <trkpt lat="44.98242" lon="6.42436">
        <ele>2251.06</ele>
        <time>2019-09-04T12:17:51Z</time>
      </trkpt>
      <trkpt lat="44.98244" lon="6.42459">
        <ele>2247.22</ele>
        <time>2019-09-04T12:18:02Z</time>
      </trkpt>
      <trkpt lat="44.98242" lon="6.4248">
        <ele>2246.26</ele>
        <time>2019-09-04T12:18:15Z</time>
      </trkpt>
      <trkpt lat="44.98241" lon="6.4249">
        <ele>2245.78</ele>
        <time>2019-09-04T12:18:22Z</time>
      </trkpt>
      <trkpt lat="44.98242" lon="6.42509">
        <ele>2244.33</ele>
        <time>2019-09-04T12:18:36Z</time>
      </trkpt>
      <trkpt lat="44.98243" lon="6.42514">
        <ele>2243.85</ele>
        <time>2019-09-04T12:18:39Z</time>
      </trkpt>
      <trkpt lat="44.98241" lon="6.42536">
        <ele>2240.49</ele>
        <time>2019-09-04T12:18:55Z</time>
      </trkpt>
      <trkpt lat="44.98241" lon="6.42537">
        <ele>2240.49</ele>
        <time>2019-09-04T12:18:57Z</time>
      </trkpt>
      <trkpt lat="44.98241" lon="6.42545">
        <ele>2239.53</ele>
        <time>2019-09-04T12:19:13Z</time>
      </trkpt>
      <trkpt lat="44.98243" lon="6.42567">
        <ele>2237.61</ele>
        <time>2019-09-04T12:19:29Z</time>
      </trkpt>
      <trkpt lat="44.98243" lon="6.42572">
        <ele>2237.61</ele>
        <time>2019-09-04T12:19:32Z</time>
      </trkpt>
      <trkpt lat="44.98244" lon="6.4259">
        <ele>2236.64</ele>
        <time>2019-09-04T12:19:44Z</time>
      </trkpt>
      <trkpt lat="44.98243" lon="6.42596">
        <ele>2236.64</ele>
        <time>2019-09-04T12:19:47Z</time>
      </trkpt>
      <trkpt lat="44.98245" lon="6.42617">
        <ele>2235.2</ele>
        <time>2019-09-04T12:20:00Z</time>
      </trkpt>
      <trkpt lat="44.98244" lon="6.4264">
        <ele>2234.72</ele>
        <time>2019-09-04T12:20:15Z</time>
      </trkpt>
      <trkpt lat="44.98239" lon="6.42661">
        <ele>2234.24</ele>
        <time>2019-09-04T12:20:28Z</time>
      </trkpt>
      <trkpt lat="44.98235" lon="6.42687">
        <ele>2232.8</ele>
        <time>2019-09-04T12:20:44Z</time>
      </trkpt>
      <trkpt lat="44.98233" lon="6.42695">
        <ele>2232.32</ele>
        <time>2019-09-04T12:20:50Z</time>
      </trkpt>
      <trkpt lat="44.98233" lon="6.42705">
        <ele>2231.84</ele>
        <time>2019-09-04T12:20:57Z</time>
      </trkpt>
      <trkpt lat="44.98225" lon="6.42716">
        <ele>2230.88</ele>
        <time>2019-09-04T12:21:12Z</time>
      </trkpt>
      <trkpt lat="44.98224" lon="6.42723">
        <ele>2230.88</ele>
        <time>2019-09-04T12:21:16Z</time>
      </trkpt>
      <trkpt lat="44.98219" lon="6.42743">
        <ele>2230.4</ele>
        <time>2019-09-04T12:21:30Z</time>
      </trkpt>
      <trkpt lat="44.98211" lon="6.42763">
        <ele>2230.4</ele>
        <time>2019-09-04T12:21:45Z</time>
      </trkpt>
      <trkpt lat="44.98208" lon="6.42778">
        <ele>2229.92</ele>
        <time>2019-09-04T12:21:54Z</time>
      </trkpt>
      <trkpt lat="44.98199" lon="6.42801">
        <ele>2228.95</ele>
        <time>2019-09-04T12:22:08Z</time>
      </trkpt>
      <trkpt lat="44.98199" lon="6.42804">
        <ele>2228.95</ele>
        <time>2019-09-04T12:22:10Z</time>
      </trkpt>
      <trkpt lat="44.98191" lon="6.42828">
        <ele>2227.99</ele>
        <time>2019-09-04T12:22:25Z</time>
      </trkpt>
      <trkpt lat="44.98191" lon="6.42829">
        <ele>2227.99</ele>
        <time>2019-09-04T12:22:26Z</time>
      </trkpt>
      <trkpt lat="44.98191" lon="6.42836">
        <ele>2227.03</ele>
        <time>2019-09-04T12:22:30Z</time>
      </trkpt>
      <trkpt lat="44.98188" lon="6.42855">
        <ele>2226.55</ele>
        <time>2019-09-04T12:22:41Z</time>
      </trkpt>
      <trkpt lat="44.98176" lon="6.42882">
        <ele>2225.11</ele>
        <time>2019-09-04T12:22:59Z</time>
      </trkpt>
      <trkpt lat="44.98172" lon="6.42896">
        <ele>2224.15</ele>
        <time>2019-09-04T12:23:08Z</time>
      </trkpt>
      <trkpt lat="44.98173" lon="6.42907">
        <ele>2223.67</ele>
        <time>2019-09-04T12:23:14Z</time>
      </trkpt>
      <trkpt lat="44.98169" lon="6.42918">
        <ele>2222.71</ele>
        <time>2019-09-04T12:23:26Z</time>
      </trkpt>
      <trkpt lat="44.98166" lon="6.42934">
        <ele>2220.78</ele>
        <time>2019-09-04T12:23:40Z</time>
      </trkpt>
      <trkpt lat="44.98161" lon="6.42951">
        <ele>2217.9</ele>
        <time>2019-09-04T12:23:55Z</time>
      </trkpt>
      <trkpt lat="44.98159" lon="6.42958">
        <ele>2216.46</ele>
        <time>2019-09-04T12:24:01Z</time>
      </trkpt>
      <trkpt lat="44.98157" lon="6.42967">
        <ele>2215.98</ele>
        <time>2019-09-04T12:24:08Z</time>
      </trkpt>
      <trkpt lat="44.98152" lon="6.4297">
        <ele>2214.53</ele>
        <time>2019-09-04T12:24:14Z</time>
      </trkpt>
      <trkpt lat="44.98148" lon="6.42983">
        <ele>2211.65</ele>
        <time>2019-09-04T12:24:26Z</time>
      </trkpt>
      <trkpt lat="44.98144" lon="6.42997">
        <ele>2209.25</ele>
        <time>2019-09-04T12:24:38Z</time>
      </trkpt>
      <trkpt lat="44.98148" lon="6.43017">
        <ele>2206.36</ele>
        <time>2019-09-04T12:24:54Z</time>
      </trkpt>
      <trkpt lat="44.98145" lon="6.43028">
        <ele>2204.44</ele>
        <time>2019-09-04T12:25:05Z</time>
      </trkpt>
      <trkpt lat="44.98144" lon="6.43038">
        <ele>2203</ele>
        <time>2019-09-04T12:25:11Z</time>
      </trkpt>
      <trkpt lat="44.98141" lon="6.43058">
        <ele>2201.56</ele>
        <time>2019-09-04T12:25:24Z</time>
      </trkpt>
      <trkpt lat="44.98141" lon="6.43061">
        <ele>2201.08</ele>
        <time>2019-09-04T12:25:26Z</time>
      </trkpt>
      <trkpt lat="44.98141" lon="6.43066">
        <ele>2200.59</ele>
        <time>2019-09-04T12:25:30Z</time>
      </trkpt>
      <trkpt lat="44.9814" lon="6.43068">
        <ele>2200.59</ele>
        <time>2019-09-04T12:25:32Z</time>
      </trkpt>
      <trkpt lat="44.98137" lon="6.43072">
        <ele>2199.15</ele>
        <time>2019-09-04T12:25:36Z</time>
      </trkpt>
      <trkpt lat="44.98136" lon="6.43082">
        <ele>2198.67</ele>
        <time>2019-09-04T12:25:42Z</time>
      </trkpt>
      <trkpt lat="44.98133" lon="6.4309">
        <ele>2197.71</ele>
        <time>2019-09-04T12:25:47Z</time>
      </trkpt>
      <trkpt lat="44.9813" lon="6.43109">
        <ele>2195.79</ele>
        <time>2019-09-04T12:25:59Z</time>
      </trkpt>
      <trkpt lat="44.98131" lon="6.43117">
        <ele>2195.31</ele>
        <time>2019-09-04T12:26:04Z</time>
      </trkpt>
      <trkpt lat="44.98132" lon="6.43129">
        <ele>2194.35</ele>
        <time>2019-09-04T12:26:11Z</time>
      </trkpt>
      <trkpt lat="44.98133" lon="6.43142">
        <ele>2192.9</ele>
        <time>2019-09-04T12:26:19Z</time>
      </trkpt>
      <trkpt lat="44.98128" lon="6.43171">
        <ele>2191.94</ele>
        <time>2019-09-04T12:26:35Z</time>
      </trkpt>
      <trkpt lat="44.98124" lon="6.43193">
        <ele>2189.54</ele>
        <time>2019-09-04T12:26:47Z</time>
      </trkpt>
      <trkpt lat="44.98123" lon="6.43209">
        <ele>2189.06</ele>
        <time>2019-09-04T12:26:56Z</time>
      </trkpt>
      <trkpt lat="44.9812" lon="6.43215">
        <ele>2188.1</ele>
        <time>2019-09-04T12:27:00Z</time>
      </trkpt>
      <trkpt lat="44.98117" lon="6.43224">
        <ele>2187.62</ele>
        <time>2019-09-04T12:27:05Z</time>
      </trkpt>
      <trkpt lat="44.98112" lon="6.43245">
        <ele>2185.69</ele>
        <time>2019-09-04T12:27:18Z</time>
      </trkpt>
      <trkpt lat="44.98112" lon="6.43248">
        <ele>2185.69</ele>
        <time>2019-09-04T12:27:20Z</time>
      </trkpt>
      <trkpt lat="44.98109" lon="6.43255">
        <ele>2185.21</ele>
        <time>2019-09-04T12:27:26Z</time>
      </trkpt>
      <trkpt lat="44.98106" lon="6.43265">
        <ele>2183.77</ele>
        <time>2019-09-04T12:27:33Z</time>
      </trkpt>
      <trkpt lat="44.98102" lon="6.43286">
        <ele>2181.85</ele>
        <time>2019-09-04T12:27:49Z</time>
      </trkpt>
      <trkpt lat="44.98101" lon="6.43286">
        <ele>2181.85</ele>
        <time>2019-09-04T12:27:53Z</time>
      </trkpt>
      <trkpt lat="44.9809" lon="6.43297">
        <ele>2180.89</ele>
        <time>2019-09-04T12:28:05Z</time>
      </trkpt>
      <trkpt lat="44.98085" lon="6.43297">
        <ele>2180.89</ele>
        <time>2019-09-04T12:28:17Z</time>
      </trkpt>
      <trkpt lat="44.98086" lon="6.43298">
        <ele>2180.41</ele>
        <time>2019-09-04T12:28:37Z</time>
      </trkpt>
      <trkpt lat="44.98089" lon="6.43298">
        <ele>2180.41</ele>
        <time>2019-09-04T12:28:41Z</time>
      </trkpt>
      <trkpt lat="44.98091" lon="6.43304">
        <ele>2179.45</ele>
        <time>2019-09-04T12:28:45Z</time>
      </trkpt>
      <trkpt lat="44.98085" lon="6.4333">
        <ele>2178.97</ele>
        <time>2019-09-04T12:29:01Z</time>
      </trkpt>
      <trkpt lat="44.98077" lon="6.43352">
        <ele>2177.52</ele>
        <time>2019-09-04T12:29:16Z</time>
      </trkpt>
      <trkpt lat="44.98077" lon="6.43359">
        <ele>2177.04</ele>
        <time>2019-09-04T12:29:20Z</time>
      </trkpt>
      <trkpt lat="44.98075" lon="6.43372">
        <ele>2176.56</ele>
        <time>2019-09-04T12:29:28Z</time>
      </trkpt>
      <trkpt lat="44.9807" lon="6.43375">
        <ele>2175.6</ele>
        <time>2019-09-04T12:29:42Z</time>
      </trkpt>
      <trkpt lat="44.98072" lon="6.43378">
        <ele>2175.6</ele>
        <time>2019-09-04T12:30:02Z</time>
      </trkpt>
      <trkpt lat="44.98075" lon="6.43386">
        <ele>2175.6</ele>
        <time>2019-09-04T12:30:23Z</time>
      </trkpt>
      <trkpt lat="44.98076" lon="6.43386">
        <ele>2175.6</ele>
        <time>2019-09-04T12:30:24Z</time>
      </trkpt>
      <trkpt lat="44.98078" lon="6.43389">
        <ele>2175.12</ele>
        <time>2019-09-04T12:30:27Z</time>
      </trkpt>
      <trkpt lat="44.98078" lon="6.43408">
        <ele>2175.12</ele>
        <time>2019-09-04T12:30:41Z</time>
      </trkpt>
      <trkpt lat="44.98077" lon="6.43413">
        <ele>2175.12</ele>
        <time>2019-09-04T12:30:45Z</time>
      </trkpt>
      <trkpt lat="44.98082" lon="6.43419">
        <ele>2174.64</ele>
        <time>2019-09-04T12:30:51Z</time>
      </trkpt>
      <trkpt lat="44.9808" lon="6.4343">
        <ele>2175.6</ele>
        <time>2019-09-04T12:31:00Z</time>
      </trkpt>
      <trkpt lat="44.98078" lon="6.43435">
        <ele>2175.6</ele>
        <time>2019-09-04T12:31:13Z</time>
      </trkpt>
      <trkpt lat="44.98075" lon="6.43441">
        <ele>2175.6</ele>
        <time>2019-09-04T12:31:18Z</time>
      </trkpt>
      <trkpt lat="44.98074" lon="6.43452">
        <ele>2175.6</ele>
        <time>2019-09-04T12:31:25Z</time>
      </trkpt>
      <trkpt lat="44.98073" lon="6.43463">
        <ele>2174.16</ele>
        <time>2019-09-04T12:31:35Z</time>
      </trkpt>
      <trkpt lat="44.98071" lon="6.43479">
        <ele>2175.12</ele>
        <time>2019-09-04T12:31:45Z</time>
      </trkpt>
      <trkpt lat="44.98073" lon="6.435">
        <ele>2175.12</ele>
        <time>2019-09-04T12:31:59Z</time>
      </trkpt>
      <trkpt lat="44.98078" lon="6.4352">
        <ele>2175.12</ele>
        <time>2019-09-04T12:32:12Z</time>
      </trkpt>
      <trkpt lat="44.98075" lon="6.43534">
        <ele>2173.68</ele>
        <time>2019-09-04T12:32:20Z</time>
      </trkpt>
      <trkpt lat="44.98069" lon="6.43548">
        <ele>2173.2</ele>
        <time>2019-09-04T12:32:30Z</time>
      </trkpt>
      <trkpt lat="44.98067" lon="6.43554">
        <ele>2173.2</ele>
        <time>2019-09-04T12:32:34Z</time>
      </trkpt>
      <trkpt lat="44.98068" lon="6.43558">
        <ele>2173.2</ele>
        <time>2019-09-04T12:32:37Z</time>
      </trkpt>
      <trkpt lat="44.98067" lon="6.43567">
        <ele>2173.2</ele>
        <time>2019-09-04T12:32:44Z</time>
      </trkpt>
      <trkpt lat="44.98064" lon="6.43574">
        <ele>2174.16</ele>
        <time>2019-09-04T12:32:50Z</time>
      </trkpt>
      <trkpt lat="44.98063" lon="6.43581">
        <ele>2174.64</ele>
        <time>2019-09-04T12:33:02Z</time>
      </trkpt>
      <trkpt lat="44.98062" lon="6.43582">
        <ele>2174.64</ele>
        <time>2019-09-04T12:33:03Z</time>
      </trkpt>
      <trkpt lat="44.98064" lon="6.43591">
        <ele>2174.64</ele>
        <time>2019-09-04T12:33:08Z</time>
      </trkpt>
      <trkpt lat="44.98063" lon="6.43603">
        <ele>2174.64</ele>
        <time>2019-09-04T12:33:16Z</time>
      </trkpt>
      <trkpt lat="44.98066" lon="6.43611">
        <ele>2174.64</ele>
        <time>2019-09-04T12:33:21Z</time>
      </trkpt>
      <trkpt lat="44.98069" lon="6.43616">
        <ele>2173.2</ele>
        <time>2019-09-04T12:33:25Z</time>
      </trkpt>
      <trkpt lat="44.98069" lon="6.43629">
        <ele>2173.2</ele>
        <time>2019-09-04T12:33:38Z</time>
      </trkpt>
      <trkpt lat="44.98068" lon="6.43642">
        <ele>2173.2</ele>
        <time>2019-09-04T12:33:50Z</time>
      </trkpt>
      <trkpt lat="44.98068" lon="6.43653">
        <ele>2172.72</ele>
        <time>2019-09-04T12:34:02Z</time>
      </trkpt>
      <trkpt lat="44.98064" lon="6.43664">
        <ele>2170.31</ele>
        <time>2019-09-04T12:34:17Z</time>
      </trkpt>
      <trkpt lat="44.98063" lon="6.43669">
        <ele>2169.35</ele>
        <time>2019-09-04T12:34:23Z</time>
      </trkpt>
      <trkpt lat="44.98064" lon="6.43683">
        <ele>2168.87</ele>
        <time>2019-09-04T12:34:32Z</time>
      </trkpt>
      <trkpt lat="44.98067" lon="6.43708">
        <ele>2168.39</ele>
        <time>2019-09-04T12:34:48Z</time>
      </trkpt>
      <trkpt lat="44.98068" lon="6.43723">
        <ele>2166.47</ele>
        <time>2019-09-04T12:34:59Z</time>
      </trkpt>
      <trkpt lat="44.98068" lon="6.43728">
        <ele>2165.99</ele>
        <time>2019-09-04T12:35:03Z</time>
      </trkpt>
      <trkpt lat="44.98069" lon="6.43747">
        <ele>2164.06</ele>
        <time>2019-09-04T12:35:18Z</time>
      </trkpt>
      <trkpt lat="44.98068" lon="6.43762">
        <ele>2162.62</ele>
        <time>2019-09-04T12:35:28Z</time>
      </trkpt>
      <trkpt lat="44.98062" lon="6.43781">
        <ele>2160.7</ele>
        <time>2019-09-04T12:35:41Z</time>
      </trkpt>
      <trkpt lat="44.98062" lon="6.43783">
        <ele>2160.7</ele>
        <time>2019-09-04T12:35:42Z</time>
      </trkpt>
      <trkpt lat="44.98062" lon="6.43797">
        <ele>2160.22</ele>
        <time>2019-09-04T12:35:50Z</time>
      </trkpt>
      <trkpt lat="44.98059" lon="6.43805">
        <ele>2160.22</ele>
        <time>2019-09-04T12:35:55Z</time>
      </trkpt>
      <trkpt lat="44.98059" lon="6.43808">
        <ele>2160.22</ele>
        <time>2019-09-04T12:35:57Z</time>
      </trkpt>
      <trkpt lat="44.98059" lon="6.43812">
        <ele>2161.18</ele>
        <time>2019-09-04T12:35:59Z</time>
      </trkpt>
      <trkpt lat="44.98054" lon="6.43833">
        <ele>2162.14</ele>
        <time>2019-09-04T12:36:14Z</time>
      </trkpt>
      <trkpt lat="44.98053" lon="6.43835">
        <ele>2160.7</ele>
        <time>2019-09-04T12:36:16Z</time>
      </trkpt>
      <trkpt lat="44.9805" lon="6.43841">
        <ele>2160.22</ele>
        <time>2019-09-04T12:36:20Z</time>
      </trkpt>
      <trkpt lat="44.98045" lon="6.43862">
        <ele>2159.26</ele>
        <time>2019-09-04T12:36:35Z</time>
      </trkpt>
      <trkpt lat="44.9804" lon="6.4387">
        <ele>2160.22</ele>
        <time>2019-09-04T12:36:41Z</time>
      </trkpt>
      <trkpt lat="44.98024" lon="6.4389">
        <ele>2160.22</ele>
        <time>2019-09-04T12:36:58Z</time>
      </trkpt>
      <trkpt lat="44.98015" lon="6.43903">
        <ele>2158.78</ele>
        <time>2019-09-04T12:37:11Z</time>
      </trkpt>
      <trkpt lat="44.98007" lon="6.43911">
        <ele>2156.86</ele>
        <time>2019-09-04T12:37:20Z</time>
      </trkpt>
      <trkpt lat="44.98002" lon="6.43926">
        <ele>2155.41</ele>
        <time>2019-09-04T12:37:30Z</time>
      </trkpt>
      <trkpt lat="44.97995" lon="6.4394">
        <ele>2153.01</ele>
        <time>2019-09-04T12:37:43Z</time>
      </trkpt>
      <trkpt lat="44.97989" lon="6.43958">
        <ele>2150.13</ele>
        <time>2019-09-04T12:37:59Z</time>
      </trkpt>
      <trkpt lat="44.97986" lon="6.43963">
        <ele>2149.16</ele>
        <time>2019-09-04T12:38:04Z</time>
      </trkpt>
      <trkpt lat="44.97985" lon="6.43973">
        <ele>2148.68</ele>
        <time>2019-09-04T12:38:11Z</time>
      </trkpt>
      <trkpt lat="44.97981" lon="6.43991">
        <ele>2145.8</ele>
        <time>2019-09-04T12:38:26Z</time>
      </trkpt>
      <trkpt lat="44.97978" lon="6.44">
        <ele>2142.92</ele>
        <time>2019-09-04T12:38:41Z</time>
      </trkpt>
      <trkpt lat="44.97972" lon="6.44008">
        <ele>2140.03</ele>
        <time>2019-09-04T12:38:55Z</time>
      </trkpt>
      <trkpt lat="44.9797" lon="6.44017">
        <ele>2137.15</ele>
        <time>2019-09-04T12:39:08Z</time>
      </trkpt>
      <trkpt lat="44.97966" lon="6.44024">
        <ele>2134.74</ele>
        <time>2019-09-04T12:39:23Z</time>
      </trkpt>
      <trkpt lat="44.97964" lon="6.44041">
        <ele>2131.38</ele>
        <time>2019-09-04T12:39:37Z</time>
      </trkpt>
      <trkpt lat="44.97952" lon="6.4406">
        <ele>2128.98</ele>
        <time>2019-09-04T12:39:53Z</time>
      </trkpt>
      <trkpt lat="44.97945" lon="6.44085">
        <ele>2127.05</ele>
        <time>2019-09-04T12:40:10Z</time>
      </trkpt>
      <trkpt lat="44.97942" lon="6.44103">
        <ele>2124.65</ele>
        <time>2019-09-04T12:40:23Z</time>
      </trkpt>
      <trkpt lat="44.97942" lon="6.44106">
        <ele>2123.69</ele>
        <time>2019-09-04T12:40:25Z</time>
      </trkpt>
      <trkpt lat="44.97939" lon="6.44127">
        <ele>2121.29</ele>
        <time>2019-09-04T12:40:42Z</time>
      </trkpt>
      <trkpt lat="44.97936" lon="6.44137">
        <ele>2118.4</ele>
        <time>2019-09-04T12:40:55Z</time>
      </trkpt>
      <trkpt lat="44.97933" lon="6.44148">
        <ele>2115.52</ele>
        <time>2019-09-04T12:41:09Z</time>
      </trkpt>
      <trkpt lat="44.97931" lon="6.44161">
        <ele>2112.15</ele>
        <time>2019-09-04T12:41:24Z</time>
      </trkpt>
      <trkpt lat="44.97927" lon="6.44175">
        <ele>2109.27</ele>
        <time>2019-09-04T12:41:40Z</time>
      </trkpt>
      <trkpt lat="44.97926" lon="6.44189">
        <ele>2106.39</ele>
        <time>2019-09-04T12:41:55Z</time>
      </trkpt>
      <trkpt lat="44.97923" lon="6.44205">
        <ele>2103.02</ele>
        <time>2019-09-04T12:42:12Z</time>
      </trkpt>
      <trkpt lat="44.97923" lon="6.44208">
        <ele>2103.02</ele>
        <time>2019-09-04T12:42:14Z</time>
      </trkpt>
      <trkpt lat="44.97927" lon="6.44225">
        <ele>2102.54</ele>
        <time>2019-09-04T12:42:27Z</time>
      </trkpt>
      <trkpt lat="44.9792" lon="6.44252">
        <ele>2099.66</ele>
        <time>2019-09-04T12:42:46Z</time>
      </trkpt>
      <trkpt lat="44.97914" lon="6.44257">
        <ele>2096.29</ele>
        <time>2019-09-04T12:42:59Z</time>
      </trkpt>
      <trkpt lat="44.97912" lon="6.44247">
        <ele>2093.41</ele>
        <time>2019-09-04T12:43:15Z</time>
      </trkpt>
      <trkpt lat="44.9791" lon="6.4424">
        <ele>2092.45</ele>
        <time>2019-09-04T12:43:21Z</time>
      </trkpt>
      <trkpt lat="44.9791" lon="6.44218">
        <ele>2090.04</ele>
        <time>2019-09-04T12:43:37Z</time>
      </trkpt>
      <trkpt lat="44.97902" lon="6.44222">
        <ele>2087.64</ele>
        <time>2019-09-04T12:43:52Z</time>
      </trkpt>
      <trkpt lat="44.97899" lon="6.4423">
        <ele>2085.24</ele>
        <time>2019-09-04T12:44:06Z</time>
      </trkpt>
      <trkpt lat="44.97896" lon="6.44242">
        <ele>2081.87</ele>
        <time>2019-09-04T12:44:19Z</time>
      </trkpt>
      <trkpt lat="44.9789" lon="6.44245">
        <ele>2080.43</ele>
        <time>2019-09-04T12:44:29Z</time>
      </trkpt>
      <trkpt lat="44.97883" lon="6.4426">
        <ele>2077.55</ele>
        <time>2019-09-04T12:44:44Z</time>
      </trkpt>
      <trkpt lat="44.97879" lon="6.44267">
        <ele>2075.14</ele>
        <time>2019-09-04T12:44:57Z</time>
      </trkpt>
      <trkpt lat="44.97879" lon="6.44279">
        <ele>2073.7</ele>
        <time>2019-09-04T12:45:13Z</time>
      </trkpt>
      <trkpt lat="44.97878" lon="6.44292">
        <ele>2071.78</ele>
        <time>2019-09-04T12:45:26Z</time>
      </trkpt>
      <trkpt lat="44.97877" lon="6.44308">
        <ele>2067.93</ele>
        <time>2019-09-04T12:45:40Z</time>
      </trkpt>
      <trkpt lat="44.97875" lon="6.4431">
        <ele>2066.01</ele>
        <time>2019-09-04T12:45:55Z</time>
      </trkpt>
      <trkpt lat="44.97873" lon="6.44321">
        <ele>2063.13</ele>
        <time>2019-09-04T12:46:08Z</time>
      </trkpt>
      <trkpt lat="44.97869" lon="6.44333">
        <ele>2059.76</ele>
        <time>2019-09-04T12:46:23Z</time>
      </trkpt>
      <trkpt lat="44.97865" lon="6.44339">
        <ele>2056.88</ele>
        <time>2019-09-04T12:46:38Z</time>
      </trkpt>
      <trkpt lat="44.97865" lon="6.44335">
        <ele>2056.4</ele>
        <time>2019-09-04T12:46:42Z</time>
      </trkpt>
      <trkpt lat="44.97858" lon="6.44311">
        <ele>2053.99</ele>
        <time>2019-09-04T12:46:58Z</time>
      </trkpt>
      <trkpt lat="44.97857" lon="6.44311">
        <ele>2053.99</ele>
        <time>2019-09-04T12:47:00Z</time>
      </trkpt>
      <trkpt lat="44.97855" lon="6.44323">
        <ele>2051.59</ele>
        <time>2019-09-04T12:47:14Z</time>
      </trkpt>
      <trkpt lat="44.97854" lon="6.44337">
        <ele>2049.19</ele>
        <time>2019-09-04T12:47:27Z</time>
      </trkpt>
      <trkpt lat="44.9785" lon="6.44361">
        <ele>2045.82</ele>
        <time>2019-09-04T12:47:45Z</time>
      </trkpt>
      <trkpt lat="44.97846" lon="6.44371">
        <ele>2042.94</ele>
        <time>2019-09-04T12:47:59Z</time>
      </trkpt>
      <trkpt lat="44.97844" lon="6.44382">
        <ele>2040.05</ele>
        <time>2019-09-04T12:48:12Z</time>
      </trkpt>
      <trkpt lat="44.97841" lon="6.44383">
        <ele>2037.65</ele>
        <time>2019-09-04T12:48:25Z</time>
      </trkpt>
      <trkpt lat="44.97838" lon="6.44384">
        <ele>2035.73</ele>
        <time>2019-09-04T12:48:37Z</time>
      </trkpt>
      <trkpt lat="44.97834" lon="6.44386">
        <ele>2033.81</ele>
        <time>2019-09-04T12:48:50Z</time>
      </trkpt>
      <trkpt lat="44.9783" lon="6.44401">
        <ele>2030.92</ele>
        <time>2019-09-04T12:49:05Z</time>
      </trkpt>
      <trkpt lat="44.97829" lon="6.444">
        <ele>2030.44</ele>
        <time>2019-09-04T12:49:07Z</time>
      </trkpt>
      <trkpt lat="44.97823" lon="6.44386">
        <ele>2028.04</ele>
        <time>2019-09-04T12:49:22Z</time>
      </trkpt>
      <trkpt lat="44.9782" lon="6.44389">
        <ele>2026.6</ele>
        <time>2019-09-04T12:49:34Z</time>
      </trkpt>
      <trkpt lat="44.9782" lon="6.44399">
        <ele>2023.23</ele>
        <time>2019-09-04T12:49:48Z</time>
      </trkpt>
      <trkpt lat="44.97815" lon="6.44414">
        <ele>2020.35</ele>
        <time>2019-09-04T12:50:04Z</time>
      </trkpt>
      <trkpt lat="44.9781" lon="6.4442">
        <ele>2017.94</ele>
        <time>2019-09-04T12:50:16Z</time>
      </trkpt>
      <trkpt lat="44.97806" lon="6.4443">
        <ele>2015.54</ele>
        <time>2019-09-04T12:50:31Z</time>
      </trkpt>
      <trkpt lat="44.97803" lon="6.44431">
        <ele>2013.62</ele>
        <time>2019-09-04T12:50:41Z</time>
      </trkpt>
      <trkpt lat="44.97798" lon="6.44439">
        <ele>2011.22</ele>
        <time>2019-09-04T12:50:54Z</time>
      </trkpt>
      <trkpt lat="44.97795" lon="6.44447">
        <ele>2009.29</ele>
        <time>2019-09-04T12:51:05Z</time>
      </trkpt>
      <trkpt lat="44.9779" lon="6.44456">
        <ele>2006.41</ele>
        <time>2019-09-04T12:51:19Z</time>
      </trkpt>
      <trkpt lat="44.97787" lon="6.44464">
        <ele>2004.49</ele>
        <time>2019-09-04T12:51:32Z</time>
      </trkpt>
      <trkpt lat="44.97785" lon="6.44476">
        <ele>2002.08</ele>
        <time>2019-09-04T12:51:46Z</time>
      </trkpt>
      <trkpt lat="44.97781" lon="6.44471">
        <ele>2000.16</ele>
        <time>2019-09-04T12:51:58Z</time>
      </trkpt>
      <trkpt lat="44.97776" lon="6.44478">
        <ele>1997.76</ele>
        <time>2019-09-04T12:52:10Z</time>
      </trkpt>
      <trkpt lat="44.97775" lon="6.44495">
        <ele>1994.87</ele>
        <time>2019-09-04T12:52:25Z</time>
      </trkpt>
      <trkpt lat="44.97771" lon="6.44492">
        <ele>1992.95</ele>
        <time>2019-09-04T12:52:39Z</time>
      </trkpt>
      <trkpt lat="44.97767" lon="6.44498">
        <ele>1990.55</ele>
        <time>2019-09-04T12:52:51Z</time>
      </trkpt>
      <trkpt lat="44.97767" lon="6.445">
        <ele>1990.55</ele>
        <time>2019-09-04T12:52:53Z</time>
      </trkpt>
      <trkpt lat="44.97766" lon="6.44504">
        <ele>1989.1</ele>
        <time>2019-09-04T12:52:56Z</time>
      </trkpt>
      <trkpt lat="44.97765" lon="6.44521">
        <ele>1986.22</ele>
        <time>2019-09-04T12:53:12Z</time>
      </trkpt>
      <trkpt lat="44.97763" lon="6.44522">
        <ele>1985.74</ele>
        <time>2019-09-04T12:53:15Z</time>
      </trkpt>
      <trkpt lat="44.97758" lon="6.44523">
        <ele>1983.82</ele>
        <time>2019-09-04T12:53:27Z</time>
      </trkpt>
      <trkpt lat="44.97752" lon="6.44522">
        <ele>1980.93</ele>
        <time>2019-09-04T12:53:41Z</time>
      </trkpt>
      <trkpt lat="44.97751" lon="6.44531">
        <ele>1979.49</ele>
        <time>2019-09-04T12:53:50Z</time>
      </trkpt>
      <trkpt lat="44.97748" lon="6.4455">
        <ele>1976.61</ele>
        <time>2019-09-04T12:54:04Z</time>
      </trkpt>
      <trkpt lat="44.97745" lon="6.44564">
        <ele>1973.72</ele>
        <time>2019-09-04T12:54:16Z</time>
      </trkpt>
      <trkpt lat="44.97744" lon="6.44575">
        <ele>1971.8</ele>
        <time>2019-09-04T12:54:28Z</time>
      </trkpt>
      <trkpt lat="44.97745" lon="6.44589">
        <ele>1968.44</ele>
        <time>2019-09-04T12:54:42Z</time>
      </trkpt>
      <trkpt lat="44.97741" lon="6.446">
        <ele>1966.03</ele>
        <time>2019-09-04T12:54:57Z</time>
      </trkpt>
      <trkpt lat="44.9774" lon="6.44598">
        <ele>1964.59</ele>
        <time>2019-09-04T12:55:00Z</time>
      </trkpt>
      <trkpt lat="44.97736" lon="6.44586">
        <ele>1962.67</ele>
        <time>2019-09-04T12:55:12Z</time>
      </trkpt>
      <trkpt lat="44.97733" lon="6.44595">
        <ele>1960.75</ele>
        <time>2019-09-04T12:55:24Z</time>
      </trkpt>
      <trkpt lat="44.9773" lon="6.44607">
        <ele>1957.38</ele>
        <time>2019-09-04T12:55:38Z</time>
      </trkpt>
      <trkpt lat="44.97728" lon="6.44618">
        <ele>1954.98</ele>
        <time>2019-09-04T12:55:51Z</time>
      </trkpt>
      <trkpt lat="44.97724" lon="6.44614">
        <ele>1951.13</ele>
        <time>2019-09-04T12:56:03Z</time>
      </trkpt>
      <trkpt lat="44.97718" lon="6.44617">
        <ele>1949.69</ele>
        <time>2019-09-04T12:56:16Z</time>
      </trkpt>
      <trkpt lat="44.97716" lon="6.44635">
        <ele>1946.81</ele>
        <time>2019-09-04T12:56:31Z</time>
      </trkpt>
      <trkpt lat="44.97712" lon="6.44651">
        <ele>1943.44</ele>
        <time>2019-09-04T12:56:47Z</time>
      </trkpt>
      <trkpt lat="44.97709" lon="6.44659">
        <ele>1941.52</ele>
        <time>2019-09-04T12:57:01Z</time>
      </trkpt>
      <trkpt lat="44.97706" lon="6.44668">
        <ele>1939.6</ele>
        <time>2019-09-04T12:57:27Z</time>
      </trkpt>
      <trkpt lat="44.97699" lon="6.44664">
        <ele>1936.71</ele>
        <time>2019-09-04T12:57:40Z</time>
      </trkpt>
      <trkpt lat="44.97696" lon="6.44679">
        <ele>1934.31</ele>
        <time>2019-09-04T12:57:53Z</time>
      </trkpt>
      <trkpt lat="44.97696" lon="6.44689">
        <ele>1931.43</ele>
        <time>2019-09-04T12:58:03Z</time>
      </trkpt>
      <trkpt lat="44.97692" lon="6.44706">
        <ele>1928.06</ele>
        <time>2019-09-04T12:58:18Z</time>
      </trkpt>
      <trkpt lat="44.97691" lon="6.44708">
        <ele>1928.06</ele>
        <time>2019-09-04T12:58:20Z</time>
      </trkpt>
      <trkpt lat="44.97686" lon="6.44721">
        <ele>1925.18</ele>
        <time>2019-09-04T12:58:34Z</time>
      </trkpt>
      <trkpt lat="44.97683" lon="6.44729">
        <ele>1924.22</ele>
        <time>2019-09-04T12:58:41Z</time>
      </trkpt>
      <trkpt lat="44.97672" lon="6.4475">
        <ele>1923.25</ele>
        <time>2019-09-04T12:58:57Z</time>
      </trkpt>
      <trkpt lat="44.97669" lon="6.44756">
        <ele>1922.77</ele>
        <time>2019-09-04T12:59:02Z</time>
      </trkpt>
      <trkpt lat="44.97667" lon="6.44761">
        <ele>1922.29</ele>
        <time>2019-09-04T12:59:08Z</time>
      </trkpt>
      <trkpt lat="44.97663" lon="6.44779">
        <ele>1920.85</ele>
        <time>2019-09-04T12:59:22Z</time>
      </trkpt>
      <trkpt lat="44.97657" lon="6.44788">
        <ele>1919.89</ele>
        <time>2019-09-04T12:59:37Z</time>
      </trkpt>
      <trkpt lat="44.97651" lon="6.44789">
        <ele>1918.93</ele>
        <time>2019-09-04T12:59:55Z</time>
      </trkpt>
      <trkpt lat="44.97651" lon="6.4479">
        <ele>1918.93</ele>
        <time>2019-09-04T13:00:14Z</time>
      </trkpt>
      <trkpt lat="44.97652" lon="6.4479">
        <ele>1918.45</ele>
        <time>2019-09-04T13:00:21Z</time>
      </trkpt>
      <trkpt lat="44.97661" lon="6.44785">
        <ele>1917.97</ele>
        <time>2019-09-04T13:30:49Z</time>
      </trkpt>
      <trkpt lat="44.97654" lon="6.44803">
        <ele>1917.97</ele>
        <time>2019-09-04T13:30:50Z</time>
      </trkpt>
      <trkpt lat="44.97656" lon="6.44803">
        <ele>1918.45</ele>
        <time>2019-09-04T13:31:10Z</time>
      </trkpt>
      <trkpt lat="44.97652" lon="6.44808">
        <ele>1918.45</ele>
        <time>2019-09-04T13:31:22Z</time>
      </trkpt>
      <trkpt lat="44.9765" lon="6.44814">
        <ele>1918.45</ele>
        <time>2019-09-04T13:31:28Z</time>
      </trkpt>
      <trkpt lat="44.97641" lon="6.44818">
        <ele>1918.45</ele>
        <time>2019-09-04T13:31:39Z</time>
      </trkpt>
      <trkpt lat="44.97639" lon="6.44818">
        <ele>1918.45</ele>
        <time>2019-09-04T13:31:41Z</time>
      </trkpt>
      <trkpt lat="44.97622" lon="6.44811">
        <ele>1918.45</ele>
        <time>2019-09-04T13:31:59Z</time>
      </trkpt>
      <trkpt lat="44.97613" lon="6.44813">
        <ele>1919.41</ele>
        <time>2019-09-04T13:32:15Z</time>
      </trkpt>
      <trkpt lat="44.97612" lon="6.44817">
        <ele>1918.93</ele>
        <time>2019-09-04T13:32:23Z</time>
      </trkpt>
      <trkpt lat="44.97613" lon="6.44825">
        <ele>1918.93</ele>
        <time>2019-09-04T13:32:29Z</time>
      </trkpt>
      <trkpt lat="44.97611" lon="6.44829">
        <ele>1918.93</ele>
        <time>2019-09-04T13:32:32Z</time>
      </trkpt>
      <trkpt lat="44.9761" lon="6.44832">
        <ele>1918.93</ele>
        <time>2019-09-04T13:32:34Z</time>
      </trkpt>
      <trkpt lat="44.97611" lon="6.44845">
        <ele>1918.93</ele>
        <time>2019-09-04T13:32:45Z</time>
      </trkpt>
      <trkpt lat="44.97607" lon="6.4485">
        <ele>1918.93</ele>
        <time>2019-09-04T13:32:49Z</time>
      </trkpt>
      <trkpt lat="44.97604" lon="6.44856">
        <ele>1918.93</ele>
        <time>2019-09-04T13:32:54Z</time>
      </trkpt>
      <trkpt lat="44.97599" lon="6.44865">
        <ele>1918.93</ele>
        <time>2019-09-04T13:33:04Z</time>
      </trkpt>
      <trkpt lat="44.976" lon="6.44868">
        <ele>1918.93</ele>
        <time>2019-09-04T13:33:06Z</time>
      </trkpt>
      <trkpt lat="44.97599" lon="6.44874">
        <ele>1918.93</ele>
        <time>2019-09-04T13:33:10Z</time>
      </trkpt>
      <trkpt lat="44.97599" lon="6.44877">
        <ele>1915.56</ele>
        <time>2019-09-04T13:33:12Z</time>
      </trkpt>
      <trkpt lat="44.97599" lon="6.44879">
        <ele>1917.49</ele>
        <time>2019-09-04T13:33:13Z</time>
      </trkpt>
      <trkpt lat="44.97599" lon="6.44881">
        <ele>1917.49</ele>
        <time>2019-09-04T13:33:14Z</time>
      </trkpt>
      <trkpt lat="44.97601" lon="6.44901">
        <ele>1917.49</ele>
        <time>2019-09-04T13:33:27Z</time>
      </trkpt>
      <trkpt lat="44.97601" lon="6.44906">
        <ele>1915.56</ele>
        <time>2019-09-04T13:33:30Z</time>
      </trkpt>
      <trkpt lat="44.97598" lon="6.44912">
        <ele>1915.56</ele>
        <time>2019-09-04T13:33:34Z</time>
      </trkpt>
      <trkpt lat="44.97594" lon="6.44924">
        <ele>1915.08</ele>
        <time>2019-09-04T13:33:41Z</time>
      </trkpt>
      <trkpt lat="44.97594" lon="6.44939">
        <ele>1914.6</ele>
        <time>2019-09-04T13:33:51Z</time>
      </trkpt>
      <trkpt lat="44.97596" lon="6.4495">
        <ele>1913.16</ele>
        <time>2019-09-04T13:33:59Z</time>
      </trkpt>
      <trkpt lat="44.97595" lon="6.44966">
        <ele>1912.2</ele>
        <time>2019-09-04T13:34:08Z</time>
      </trkpt>
      <trkpt lat="44.97597" lon="6.44973">
        <ele>1911.72</ele>
        <time>2019-09-04T13:34:14Z</time>
      </trkpt>
      <trkpt lat="44.97586" lon="6.45004">
        <ele>1910.28</ele>
        <time>2019-09-04T13:34:32Z</time>
      </trkpt>
      <trkpt lat="44.97585" lon="6.45008">
        <ele>1909.32</ele>
        <time>2019-09-04T13:34:35Z</time>
      </trkpt>
      <trkpt lat="44.97584" lon="6.45012">
        <ele>1909.32</ele>
        <time>2019-09-04T13:34:37Z</time>
      </trkpt>
      <trkpt lat="44.97578" lon="6.45032">
        <ele>1907.87</ele>
        <time>2019-09-04T13:34:52Z</time>
      </trkpt>
      <trkpt lat="44.97576" lon="6.45048">
        <ele>1905.47</ele>
        <time>2019-09-04T13:35:05Z</time>
      </trkpt>
      <trkpt lat="44.97576" lon="6.45049">
        <ele>1905.47</ele>
        <time>2019-09-04T13:35:06Z</time>
      </trkpt>
      <trkpt lat="44.9757" lon="6.45057">
        <ele>1904.51</ele>
        <time>2019-09-04T13:35:14Z</time>
      </trkpt>
      <trkpt lat="44.97566" lon="6.45067">
        <ele>1904.03</ele>
        <time>2019-09-04T13:35:22Z</time>
      </trkpt>
      <trkpt lat="44.9756" lon="6.45078">
        <ele>1903.55</ele>
        <time>2019-09-04T13:35:30Z</time>
      </trkpt>
      <trkpt lat="44.9756" lon="6.45084">
        <ele>1902.59</ele>
        <time>2019-09-04T13:35:32Z</time>
      </trkpt>
      <trkpt lat="44.97561" lon="6.45096">
        <ele>1902.11</ele>
        <time>2019-09-04T13:35:39Z</time>
      </trkpt>
      <trkpt lat="44.97555" lon="6.45108">
        <ele>1901.14</ele>
        <time>2019-09-04T13:35:48Z</time>
      </trkpt>
      <trkpt lat="44.97555" lon="6.45131">
        <ele>1897.78</ele>
        <time>2019-09-04T13:36:03Z</time>
      </trkpt>
      <trkpt lat="44.97555" lon="6.45142">
        <ele>1894.9</ele>
        <time>2019-09-04T13:36:12Z</time>
      </trkpt>
      <trkpt lat="44.97554" lon="6.45166">
        <ele>1892.01</ele>
        <time>2019-09-04T13:36:27Z</time>
      </trkpt>
      <trkpt lat="44.97559" lon="6.45172">
        <ele>1890.57</ele>
        <time>2019-09-04T13:36:32Z</time>
      </trkpt>
      <trkpt lat="44.97575" lon="6.45187">
        <ele>1887.69</ele>
        <time>2019-09-04T13:36:46Z</time>
      </trkpt>
      <trkpt lat="44.97578" lon="6.45195">
        <ele>1884.8</ele>
        <time>2019-09-04T13:36:57Z</time>
      </trkpt>
      <trkpt lat="44.97578" lon="6.45208">
        <ele>1881.92</ele>
        <time>2019-09-04T13:37:11Z</time>
      </trkpt>
      <trkpt lat="44.97576" lon="6.45233">
        <ele>1878.55</ele>
        <time>2019-09-04T13:37:25Z</time>
      </trkpt>
      <trkpt lat="44.97573" lon="6.45246">
        <ele>1877.59</ele>
        <time>2019-09-04T13:37:33Z</time>
      </trkpt>
      <trkpt lat="44.97572" lon="6.45248">
        <ele>1877.59</ele>
        <time>2019-09-04T13:37:34Z</time>
      </trkpt>
      <trkpt lat="44.97571" lon="6.4527">
        <ele>1874.23</ele>
        <time>2019-09-04T13:37:47Z</time>
      </trkpt>
      <trkpt lat="44.97572" lon="6.45274">
        <ele>1873.27</ele>
        <time>2019-09-04T13:37:50Z</time>
      </trkpt>
      <trkpt lat="44.9758" lon="6.45283">
        <ele>1870.38</ele>
        <time>2019-09-04T13:38:01Z</time>
      </trkpt>
      <trkpt lat="44.9758" lon="6.45284">
        <ele>1869.9</ele>
        <time>2019-09-04T13:38:02Z</time>
      </trkpt>
      <trkpt lat="44.97569" lon="6.45298">
        <ele>1868.46</ele>
        <time>2019-09-04T13:38:14Z</time>
      </trkpt>
      <trkpt lat="44.97564" lon="6.45313">
        <ele>1866.06</ele>
        <time>2019-09-04T13:38:26Z</time>
      </trkpt>
      <trkpt lat="44.97563" lon="6.45324">
        <ele>1864.61</ele>
        <time>2019-09-04T13:38:35Z</time>
      </trkpt>
      <trkpt lat="44.97561" lon="6.45342">
        <ele>1861.25</ele>
        <time>2019-09-04T13:38:47Z</time>
      </trkpt>
      <trkpt lat="44.9756" lon="6.45349">
        <ele>1859.81</ele>
        <time>2019-09-04T13:38:51Z</time>
      </trkpt>
      <trkpt lat="44.97558" lon="6.45352">
        <ele>1859.81</ele>
        <time>2019-09-04T13:38:53Z</time>
      </trkpt>
      <trkpt lat="44.97558" lon="6.45356">
        <ele>1857.89</ele>
        <time>2019-09-04T13:38:55Z</time>
      </trkpt>
      <trkpt lat="44.97557" lon="6.45374">
        <ele>1856.92</ele>
        <time>2019-09-04T13:39:06Z</time>
      </trkpt>
      <trkpt lat="44.97558" lon="6.45394">
        <ele>1854.04</ele>
        <time>2019-09-04T13:39:20Z</time>
      </trkpt>
      <trkpt lat="44.97563" lon="6.45408">
        <ele>1851.16</ele>
        <time>2019-09-04T13:39:32Z</time>
      </trkpt>
      <trkpt lat="44.97564" lon="6.45411">
        <ele>1850.68</ele>
        <time>2019-09-04T13:39:35Z</time>
      </trkpt>
      <trkpt lat="44.97576" lon="6.45424">
        <ele>1846.83</ele>
        <time>2019-09-04T13:39:48Z</time>
      </trkpt>
      <trkpt lat="44.97572" lon="6.45438">
        <ele>1843.95</ele>
        <time>2019-09-04T13:40:01Z</time>
      </trkpt>
      <trkpt lat="44.97573" lon="6.45439">
        <ele>1843.95</ele>
        <time>2019-09-04T13:40:02Z</time>
      </trkpt>
      <trkpt lat="44.97573" lon="6.45446">
        <ele>1842.98</ele>
        <time>2019-09-04T13:40:06Z</time>
      </trkpt>
      <trkpt lat="44.97586" lon="6.45468">
        <ele>1839.62</ele>
        <time>2019-09-04T13:40:21Z</time>
      </trkpt>
      <trkpt lat="44.97586" lon="6.45486">
        <ele>1835.77</ele>
        <time>2019-09-04T13:40:35Z</time>
      </trkpt>
      <trkpt lat="44.97586" lon="6.45487">
        <ele>1835.77</ele>
        <time>2019-09-04T13:40:36Z</time>
      </trkpt>
      <trkpt lat="44.97585" lon="6.45505">
        <ele>1832.89</ele>
        <time>2019-09-04T13:40:51Z</time>
      </trkpt>
      <trkpt lat="44.9759" lon="6.45521">
        <ele>1829.05</ele>
        <time>2019-09-04T13:41:05Z</time>
      </trkpt>
      <trkpt lat="44.97591" lon="6.45529">
        <ele>1828.08</ele>
        <time>2019-09-04T13:41:11Z</time>
      </trkpt>
      <trkpt lat="44.97593" lon="6.45543">
        <ele>1826.64</ele>
        <time>2019-09-04T13:41:21Z</time>
      </trkpt>
      <trkpt lat="44.97594" lon="6.45555">
        <ele>1826.64</ele>
        <time>2019-09-04T13:41:27Z</time>
      </trkpt>
      <trkpt lat="44.97593" lon="6.45562">
        <ele>1825.68</ele>
        <time>2019-09-04T13:41:31Z</time>
      </trkpt>
      <trkpt lat="44.97595" lon="6.45571">
        <ele>1825.2</ele>
        <time>2019-09-04T13:41:35Z</time>
      </trkpt>
      <trkpt lat="44.97597" lon="6.45587">
        <ele>1823.28</ele>
        <time>2019-09-04T13:41:45Z</time>
      </trkpt>
      <trkpt lat="44.97602" lon="6.45604">
        <ele>1819.91</ele>
        <time>2019-09-04T13:41:58Z</time>
      </trkpt>
      <trkpt lat="44.9761" lon="6.45621">
        <ele>1816.55</ele>
        <time>2019-09-04T13:42:10Z</time>
      </trkpt>
      <trkpt lat="44.97614" lon="6.45623">
        <ele>1815.11</ele>
        <time>2019-09-04T13:42:14Z</time>
      </trkpt>
      <trkpt lat="44.97622" lon="6.45635">
        <ele>1811.26</ele>
        <time>2019-09-04T13:42:30Z</time>
      </trkpt>
      <trkpt lat="44.97625" lon="6.45644">
        <ele>1810.78</ele>
        <time>2019-09-04T13:42:36Z</time>
      </trkpt>
      <trkpt lat="44.97633" lon="6.45663">
        <ele>1807.42</ele>
        <time>2019-09-04T13:42:51Z</time>
      </trkpt>
      <trkpt lat="44.97641" lon="6.45677">
        <ele>1804.05</ele>
        <time>2019-09-04T13:43:06Z</time>
      </trkpt>
      <trkpt lat="44.97654" lon="6.45682">
        <ele>1801.17</ele>
        <time>2019-09-04T13:43:17Z</time>
      </trkpt>
      <trkpt lat="44.97661" lon="6.45698">
        <ele>1798.28</ele>
        <time>2019-09-04T13:43:30Z</time>
      </trkpt>
      <trkpt lat="44.97663" lon="6.45714">
        <ele>1794.92</ele>
        <time>2019-09-04T13:43:43Z</time>
      </trkpt>
      <trkpt lat="44.97668" lon="6.45731">
        <ele>1792.52</ele>
        <time>2019-09-04T13:43:55Z</time>
      </trkpt>
      <trkpt lat="44.97672" lon="6.45754">
        <ele>1789.15</ele>
        <time>2019-09-04T13:44:10Z</time>
      </trkpt>
      <trkpt lat="44.97676" lon="6.45771">
        <ele>1785.79</ele>
        <time>2019-09-04T13:44:23Z</time>
      </trkpt>
      <trkpt lat="44.97677" lon="6.45775">
        <ele>1785.31</ele>
        <time>2019-09-04T13:44:25Z</time>
      </trkpt>
      <trkpt lat="44.97669" lon="6.458">
        <ele>1783.38</ele>
        <time>2019-09-04T13:44:43Z</time>
      </trkpt>
      <trkpt lat="44.97667" lon="6.45824">
        <ele>1781.46</ele>
        <time>2019-09-04T13:44:57Z</time>
      </trkpt>
      <trkpt lat="44.9767" lon="6.45848">
        <ele>1778.58</ele>
        <time>2019-09-04T13:45:13Z</time>
      </trkpt>
      <trkpt lat="44.97675" lon="6.4586">
        <ele>1775.69</ele>
        <time>2019-09-04T13:45:26Z</time>
      </trkpt>
      <trkpt lat="44.97681" lon="6.45877">
        <ele>1772.81</ele>
        <time>2019-09-04T13:45:40Z</time>
      </trkpt>
      <trkpt lat="44.97683" lon="6.45882">
        <ele>1770.89</ele>
        <time>2019-09-04T13:45:44Z</time>
      </trkpt>
      <trkpt lat="44.97684" lon="6.45885">
        <ele>1770.89</ele>
        <time>2019-09-04T13:45:46Z</time>
      </trkpt>
      <trkpt lat="44.97684" lon="6.4591">
        <ele>1767.52</ele>
        <time>2019-09-04T13:46:03Z</time>
      </trkpt>
      <trkpt lat="44.97681" lon="6.45922">
        <ele>1766.08</ele>
        <time>2019-09-04T13:46:11Z</time>
      </trkpt>
      <trkpt lat="44.97681" lon="6.45944">
        <ele>1764.64</ele>
        <time>2019-09-04T13:46:24Z</time>
      </trkpt>
      <trkpt lat="44.97691" lon="6.45965">
        <ele>1761.75</ele>
        <time>2019-09-04T13:46:39Z</time>
      </trkpt>
      <trkpt lat="44.97695" lon="6.45973">
        <ele>1759.83</ele>
        <time>2019-09-04T13:46:45Z</time>
      </trkpt>
      <trkpt lat="44.97704" lon="6.4599">
        <ele>1757.43</ele>
        <time>2019-09-04T13:47:01Z</time>
      </trkpt>
      <trkpt lat="44.97715" lon="6.46008">
        <ele>1754.54</ele>
        <time>2019-09-04T13:47:17Z</time>
      </trkpt>
      <trkpt lat="44.97724" lon="6.46027">
        <ele>1750.7</ele>
        <time>2019-09-04T13:47:33Z</time>
      </trkpt>
      <trkpt lat="44.97729" lon="6.46043">
        <ele>1749.26</ele>
        <time>2019-09-04T13:47:46Z</time>
      </trkpt>
      <trkpt lat="44.97739" lon="6.46059">
        <ele>1745.89</ele>
        <time>2019-09-04T13:47:59Z</time>
      </trkpt>
      <trkpt lat="44.9774" lon="6.4606">
        <ele>1745.89</ele>
        <time>2019-09-04T13:48:00Z</time>
      </trkpt>
      <trkpt lat="44.97741" lon="6.46064">
        <ele>1745.41</ele>
        <time>2019-09-04T13:48:03Z</time>
      </trkpt>
      <trkpt lat="44.97754" lon="6.46092">
        <ele>1742.53</ele>
        <time>2019-09-04T13:48:20Z</time>
      </trkpt>
      <trkpt lat="44.97759" lon="6.4611">
        <ele>1739.16</ele>
        <time>2019-09-04T13:48:33Z</time>
      </trkpt>
      <trkpt lat="44.97766" lon="6.46133">
        <ele>1735.8</ele>
        <time>2019-09-04T13:48:49Z</time>
      </trkpt>
      <trkpt lat="44.97781" lon="6.46157">
        <ele>1732.91</ele>
        <time>2019-09-04T13:49:06Z</time>
      </trkpt>
      <trkpt lat="44.97784" lon="6.46161">
        <ele>1732.43</ele>
        <time>2019-09-04T13:49:09Z</time>
      </trkpt>
      <trkpt lat="44.97791" lon="6.46175">
        <ele>1730.51</ele>
        <time>2019-09-04T13:49:19Z</time>
      </trkpt>
      <trkpt lat="44.97797" lon="6.46189">
        <ele>1729.07</ele>
        <time>2019-09-04T13:49:28Z</time>
      </trkpt>
      <trkpt lat="44.97799" lon="6.46193">
        <ele>1728.59</ele>
        <time>2019-09-04T13:49:31Z</time>
      </trkpt>
      <trkpt lat="44.97802" lon="6.46198">
        <ele>1727.63</ele>
        <time>2019-09-04T13:49:36Z</time>
      </trkpt>
      <trkpt lat="44.97816" lon="6.46222">
        <ele>1725.22</ele>
        <time>2019-09-04T13:49:53Z</time>
      </trkpt>
      <trkpt lat="44.97822" lon="6.46235">
        <ele>1722.34</ele>
        <time>2019-09-04T13:50:06Z</time>
      </trkpt>
      <trkpt lat="44.9783" lon="6.46251">
        <ele>1720.9</ele>
        <time>2019-09-04T13:50:19Z</time>
      </trkpt>
      <trkpt lat="44.97836" lon="6.4627">
        <ele>1719.46</ele>
        <time>2019-09-04T13:50:29Z</time>
      </trkpt>
      <trkpt lat="44.97842" lon="6.46273">
        <ele>1718.49</ele>
        <time>2019-09-04T13:50:34Z</time>
      </trkpt>
      <trkpt lat="44.97857" lon="6.46287">
        <ele>1716.09</ele>
        <time>2019-09-04T13:50:49Z</time>
      </trkpt>
      <trkpt lat="44.97871" lon="6.46299">
        <ele>1713.21</ele>
        <time>2019-09-04T13:51:05Z</time>
      </trkpt>
      <trkpt lat="44.97868" lon="6.46314">
        <ele>1711.76</ele>
        <time>2019-09-04T13:51:19Z</time>
      </trkpt>
      <trkpt lat="44.97877" lon="6.4632">
        <ele>1709.36</ele>
        <time>2019-09-04T13:51:31Z</time>
      </trkpt>
      <trkpt lat="44.97869" lon="6.46335">
        <ele>1706.96</ele>
        <time>2019-09-04T13:51:47Z</time>
      </trkpt>
      <trkpt lat="44.97868" lon="6.4634">
        <ele>1706.96</ele>
        <time>2019-09-04T13:51:50Z</time>
      </trkpt>
      <trkpt lat="44.97867" lon="6.46348">
        <ele>1706.96</ele>
        <time>2019-09-04T13:51:55Z</time>
      </trkpt>
      <trkpt lat="44.97873" lon="6.4635">
        <ele>1706</ele>
        <time>2019-09-04T13:51:59Z</time>
      </trkpt>
      <trkpt lat="44.97883" lon="6.46363">
        <ele>1705.52</ele>
        <time>2019-09-04T13:52:08Z</time>
      </trkpt>
      <trkpt lat="44.97891" lon="6.46369">
        <ele>1705.52</ele>
        <time>2019-09-04T13:52:15Z</time>
      </trkpt>
      <trkpt lat="44.97899" lon="6.46368">
        <ele>1705.52</ele>
        <time>2019-09-04T13:52:27Z</time>
      </trkpt>
      <trkpt lat="44.97902" lon="6.46394">
        <ele>1704.55</ele>
        <time>2019-09-04T13:52:42Z</time>
      </trkpt>
      <trkpt lat="44.97904" lon="6.46402">
        <ele>1703.59</ele>
        <time>2019-09-04T13:52:47Z</time>
      </trkpt>
      <trkpt lat="44.97915" lon="6.46424">
        <ele>1702.15</ele>
        <time>2019-09-04T13:53:01Z</time>
      </trkpt>
      <trkpt lat="44.97922" lon="6.4644">
        <ele>1701.19</ele>
        <time>2019-09-04T13:53:10Z</time>
      </trkpt>
      <trkpt lat="44.97933" lon="6.46452">
        <ele>1699.75</ele>
        <time>2019-09-04T13:53:22Z</time>
      </trkpt>
      <trkpt lat="44.97945" lon="6.46474">
        <ele>1697.83</ele>
        <time>2019-09-04T13:53:38Z</time>
      </trkpt>
      <trkpt lat="44.97954" lon="6.46486">
        <ele>1695.9</ele>
        <time>2019-09-04T13:53:50Z</time>
      </trkpt>
      <trkpt lat="44.97956" lon="6.46489">
        <ele>1695.9</ele>
        <time>2019-09-04T13:53:52Z</time>
      </trkpt>
      <trkpt lat="44.97973" lon="6.46496">
        <ele>1693.98</ele>
        <time>2019-09-04T13:54:07Z</time>
      </trkpt>
      <trkpt lat="44.97991" lon="6.46501">
        <ele>1691.1</ele>
        <time>2019-09-04T13:54:23Z</time>
      </trkpt>
      <trkpt lat="44.98006" lon="6.46503">
        <ele>1688.21</ele>
        <time>2019-09-04T13:54:39Z</time>
      </trkpt>
      <trkpt lat="44.9802" lon="6.46512">
        <ele>1685.33</ele>
        <time>2019-09-04T13:54:52Z</time>
      </trkpt>
      <trkpt lat="44.98029" lon="6.46514">
        <ele>1681.96</ele>
        <time>2019-09-04T13:55:02Z</time>
      </trkpt>
      <trkpt lat="44.98036" lon="6.46517">
        <ele>1679.56</ele>
        <time>2019-09-04T13:55:12Z</time>
      </trkpt>
      <trkpt lat="44.98047" lon="6.46526">
        <ele>1677.16</ele>
        <time>2019-09-04T13:55:25Z</time>
      </trkpt>
      <trkpt lat="44.98057" lon="6.46537">
        <ele>1676.2</ele>
        <time>2019-09-04T13:55:37Z</time>
      </trkpt>
      <trkpt lat="44.98064" lon="6.46537">
        <ele>1673.79</ele>
        <time>2019-09-04T13:55:46Z</time>
      </trkpt>
      <trkpt lat="44.98074" lon="6.46546">
        <ele>1673.31</ele>
        <time>2019-09-04T13:55:57Z</time>
      </trkpt>
      <trkpt lat="44.98088" lon="6.46552">
        <ele>1670.91</ele>
        <time>2019-09-04T13:56:13Z</time>
      </trkpt>
      <trkpt lat="44.98088" lon="6.46551">
        <ele>1670.91</ele>
        <time>2019-09-04T13:56:14Z</time>
      </trkpt>
      <trkpt lat="44.98097" lon="6.46539">
        <ele>1672.35</ele>
        <time>2019-09-04T13:56:30Z</time>
      </trkpt>
      <trkpt lat="44.98097" lon="6.46537">
        <ele>1672.35</ele>
        <time>2019-09-04T13:56:33Z</time>
      </trkpt>
      <trkpt lat="44.98101" lon="6.46531">
        <ele>1673.79</ele>
        <time>2019-09-04T13:56:46Z</time>
      </trkpt>
      <trkpt lat="44.98097" lon="6.46527">
        <ele>1673.79</ele>
        <time>2019-09-04T13:57:04Z</time>
      </trkpt>
      <trkpt lat="44.98095" lon="6.46521">
        <ele>1673.31</ele>
        <time>2019-09-04T13:57:29Z</time>
      </trkpt>
      <trkpt lat="44.98094" lon="6.46529">
        <ele>1671.87</ele>
        <time>2019-09-04T13:57:47Z</time>
      </trkpt>
      <trkpt lat="44.98094" lon="6.46531">
        <ele>1673.79</ele>
        <time>2019-09-04T13:57:50Z</time>
      </trkpt>
      <trkpt lat="44.98092" lon="6.46534">
        <ele>1671.87</ele>
        <time>2019-09-04T13:58:04Z</time>
      </trkpt>
      <trkpt lat="44.98093" lon="6.46545">
        <ele>1670.91</ele>
        <time>2019-09-04T13:58:20Z</time>
      </trkpt>
      <trkpt lat="44.9809" lon="6.46549">
        <ele>1669.95</ele>
        <time>2019-09-04T13:58:28Z</time>
      </trkpt>
      <trkpt lat="44.9809" lon="6.46546">
        <ele>1669.47</ele>
        <time>2019-09-04T13:58:39Z</time>
      </trkpt>
      <trkpt lat="44.98091" lon="6.46547">
        <ele>1669.47</ele>
        <time>2019-09-04T13:58:54Z</time>
      </trkpt>
      <trkpt lat="44.98085" lon="6.46548">
        <ele>1669.47</ele>
        <time>2019-09-04T13:59:14Z</time>
      </trkpt>
      <trkpt lat="44.98084" lon="6.46548">
        <ele>1669.47</ele>
        <time>2019-09-04T13:59:15Z</time>
      </trkpt>
      <trkpt lat="44.98073" lon="6.46547">
        <ele>1670.91</ele>
        <time>2019-09-04T13:59:28Z</time>
      </trkpt>
      <trkpt lat="44.98073" lon="6.4655">
        <ele>1670.91</ele>
        <time>2019-09-04T13:59:42Z</time>
      </trkpt>
      <trkpt lat="44.98071" lon="6.4655">
        <ele>1670.91</ele>
        <time>2019-09-04T14:00:06Z</time>
      </trkpt>
      <trkpt lat="44.98076" lon="6.46549">
        <ele>1670.43</ele>
        <time>2019-09-04T14:00:35Z</time>
      </trkpt>
      <trkpt lat="44.98071" lon="6.4655">
        <ele>1670.43</ele>
        <time>2019-09-04T14:01:09Z</time>
      </trkpt>
      <trkpt lat="44.98071" lon="6.46546">
        <ele>1669.95</ele>
        <time>2019-09-04T14:01:48Z</time>
      </trkpt>
      <trkpt lat="44.98074" lon="6.4655">
        <ele>1669.47</ele>
        <time>2019-09-04T14:02:22Z</time>
      </trkpt>
      <trkpt lat="44.98072" lon="6.46547">
        <ele>1669.47</ele>
        <time>2019-09-04T14:02:55Z</time>
      </trkpt>
      <trkpt lat="44.98071" lon="6.46548">
        <ele>1668.99</ele>
        <time>2019-09-04T14:03:26Z</time>
      </trkpt>
      <trkpt lat="44.98072" lon="6.46542">
        <ele>1668.99</ele>
        <time>2019-09-04T14:03:58Z</time>
      </trkpt>
      <trkpt lat="44.98074" lon="6.46548">
        <ele>1668.51</ele>
        <time>2019-09-04T14:04:36Z</time>
      </trkpt>
      <trkpt lat="44.98075" lon="6.46547">
        <ele>1668.51</ele>
        <time>2019-09-04T14:04:43Z</time>
      </trkpt>
      <trkpt lat="44.98071" lon="6.4654">
        <ele>1668.99</ele>
        <time>2019-09-04T14:04:51Z</time>
      </trkpt>
      <trkpt lat="44.98059" lon="6.46541">
        <ele>1670.43</ele>
        <time>2019-09-04T14:05:04Z</time>
      </trkpt>
      <trkpt lat="44.98054" lon="6.46557">
        <ele>1668.99</ele>
        <time>2019-09-04T14:05:19Z</time>
      </trkpt>
      <trkpt lat="44.98052" lon="6.46582">
        <ele>1667.06</ele>
        <time>2019-09-04T14:05:33Z</time>
      </trkpt>
      <trkpt lat="44.98055" lon="6.46609">
        <ele>1665.14</ele>
        <time>2019-09-04T14:05:47Z</time>
      </trkpt>
      <trkpt lat="44.98055" lon="6.46629">
        <ele>1663.7</ele>
        <time>2019-09-04T14:05:58Z</time>
      </trkpt>
      <trkpt lat="44.98059" lon="6.46639">
        <ele>1662.26</ele>
        <time>2019-09-04T14:06:05Z</time>
      </trkpt>
      <trkpt lat="44.98071" lon="6.46664">
        <ele>1659.85</ele>
        <time>2019-09-04T14:06:22Z</time>
      </trkpt>
      <trkpt lat="44.98074" lon="6.46689">
        <ele>1658.41</ele>
        <time>2019-09-04T14:06:36Z</time>
      </trkpt>
      <trkpt lat="44.98075" lon="6.46697">
        <ele>1657.45</ele>
        <time>2019-09-04T14:06:40Z</time>
      </trkpt>
      <trkpt lat="44.98077" lon="6.467">
        <ele>1657.45</ele>
        <time>2019-09-04T14:06:43Z</time>
      </trkpt>
      <trkpt lat="44.98088" lon="6.46719">
        <ele>1654.09</ele>
        <time>2019-09-04T14:06:56Z</time>
      </trkpt>
      <trkpt lat="44.98106" lon="6.46739">
        <ele>1651.2</ele>
        <time>2019-09-04T14:07:14Z</time>
      </trkpt>
      <trkpt lat="44.98119" lon="6.46755">
        <ele>1649.28</ele>
        <time>2019-09-04T14:07:29Z</time>
      </trkpt>
      <trkpt lat="44.98133" lon="6.46772">
        <ele>1646.4</ele>
        <time>2019-09-04T14:07:46Z</time>
      </trkpt>
      <trkpt lat="44.98141" lon="6.46771">
        <ele>1644.95</ele>
        <time>2019-09-04T14:07:55Z</time>
      </trkpt>
      <trkpt lat="44.98142" lon="6.46769">
        <ele>1643.99</ele>
        <time>2019-09-04T14:07:57Z</time>
      </trkpt>
      <trkpt lat="44.98148" lon="6.46769">
        <ele>1643.03</ele>
        <time>2019-09-04T14:08:03Z</time>
      </trkpt>
      <trkpt lat="44.98156" lon="6.46777">
        <ele>1641.11</ele>
        <time>2019-09-04T14:08:12Z</time>
      </trkpt>
      <trkpt lat="44.98161" lon="6.46785">
        <ele>1639.19</ele>
        <time>2019-09-04T14:08:21Z</time>
      </trkpt>
      <trkpt lat="44.9817" lon="6.46804">
        <ele>1636.78</ele>
        <time>2019-09-04T14:08:36Z</time>
      </trkpt>
      <trkpt lat="44.98172" lon="6.46832">
        <ele>1634.38</ele>
        <time>2019-09-04T14:08:52Z</time>
      </trkpt>
      <trkpt lat="44.98181" lon="6.46847">
        <ele>1633.42</ele>
        <time>2019-09-04T14:09:07Z</time>
      </trkpt>
      <trkpt lat="44.98192" lon="6.46864">
        <ele>1631.49</ele>
        <time>2019-09-04T14:09:20Z</time>
      </trkpt>
      <trkpt lat="44.98207" lon="6.46877">
        <ele>1629.09</ele>
        <time>2019-09-04T14:09:35Z</time>
      </trkpt>
      <trkpt lat="44.98218" lon="6.46888">
        <ele>1626.69</ele>
        <time>2019-09-04T14:09:51Z</time>
      </trkpt>
      <trkpt lat="44.98229" lon="6.46899">
        <ele>1623.8</ele>
        <time>2019-09-04T14:10:06Z</time>
      </trkpt>
      <trkpt lat="44.98234" lon="6.46904">
        <ele>1622.84</ele>
        <time>2019-09-04T14:10:11Z</time>
      </trkpt>
      <trkpt lat="44.98242" lon="6.46931">
        <ele>1621.4</ele>
        <time>2019-09-04T14:10:26Z</time>
      </trkpt>
      <trkpt lat="44.98257" lon="6.46951">
        <ele>1619</ele>
        <time>2019-09-04T14:10:43Z</time>
      </trkpt>
      <trkpt lat="44.98263" lon="6.46959">
        <ele>1618.52</ele>
        <time>2019-09-04T14:10:49Z</time>
      </trkpt>
      <trkpt lat="44.98283" lon="6.46978">
        <ele>1616.59</ele>
        <time>2019-09-04T14:11:05Z</time>
      </trkpt>
      <trkpt lat="44.98296" lon="6.46993">
        <ele>1614.67</ele>
        <time>2019-09-04T14:11:18Z</time>
      </trkpt>
      <trkpt lat="44.98305" lon="6.46999">
        <ele>1613.71</ele>
        <time>2019-09-04T14:11:25Z</time>
      </trkpt>
      <trkpt lat="44.98314" lon="6.47008">
        <ele>1612.27</ele>
        <time>2019-09-04T14:11:33Z</time>
      </trkpt>
      <trkpt lat="44.98333" lon="6.47017">
        <ele>1609.86</ele>
        <time>2019-09-04T14:11:48Z</time>
      </trkpt>
      <trkpt lat="44.98349" lon="6.47032">
        <ele>1607.46</ele>
        <time>2019-09-04T14:12:02Z</time>
      </trkpt>
      <trkpt lat="44.98349" lon="6.47038">
        <ele>1606.5</ele>
        <time>2019-09-04T14:12:06Z</time>
      </trkpt>
      <trkpt lat="44.98352" lon="6.4705">
        <ele>1604.58</ele>
        <time>2019-09-04T14:12:19Z</time>
      </trkpt>
      <trkpt lat="44.98351" lon="6.4706">
        <ele>1600.73</ele>
        <time>2019-09-04T14:12:29Z</time>
      </trkpt>
      <trkpt lat="44.98341" lon="6.47064">
        <ele>1597.85</ele>
        <time>2019-09-04T14:12:39Z</time>
      </trkpt>
      <trkpt lat="44.98336" lon="6.4707">
        <ele>1596.41</ele>
        <time>2019-09-04T14:12:44Z</time>
      </trkpt>
      <trkpt lat="44.98333" lon="6.47078">
        <ele>1594.96</ele>
        <time>2019-09-04T14:12:50Z</time>
      </trkpt>
      <trkpt lat="44.98335" lon="6.47083">
        <ele>1594.48</ele>
        <time>2019-09-04T14:12:55Z</time>
      </trkpt>
      <trkpt lat="44.98338" lon="6.47082">
        <ele>1594.48</ele>
        <time>2019-09-04T14:12:58Z</time>
      </trkpt>
      <trkpt lat="44.98343" lon="6.47082">
        <ele>1594</ele>
        <time>2019-09-04T14:13:02Z</time>
      </trkpt>
      <trkpt lat="44.98349" lon="6.47087">
        <ele>1592.08</ele>
        <time>2019-09-04T14:13:07Z</time>
      </trkpt>
      <trkpt lat="44.98345" lon="6.47117">
        <ele>1590.16</ele>
        <time>2019-09-04T14:13:23Z</time>
      </trkpt>
      <trkpt lat="44.98348" lon="6.47122">
        <ele>1590.16</ele>
        <time>2019-09-04T14:13:26Z</time>
      </trkpt>
      <trkpt lat="44.9837" lon="6.47144">
        <ele>1586.31</ele>
        <time>2019-09-04T14:13:46Z</time>
      </trkpt>
      <trkpt lat="44.98373" lon="6.4715">
        <ele>1585.83</ele>
        <time>2019-09-04T14:13:51Z</time>
      </trkpt>
      <trkpt lat="44.98384" lon="6.4717">
        <ele>1584.39</ele>
        <time>2019-09-04T14:14:05Z</time>
      </trkpt>
      <trkpt lat="44.98388" lon="6.47183">
        <ele>1583.43</ele>
        <time>2019-09-04T14:14:12Z</time>
      </trkpt>
      <trkpt lat="44.98388" lon="6.47186">
        <ele>1583.43</ele>
        <time>2019-09-04T14:14:14Z</time>
      </trkpt>
      <trkpt lat="44.98399" lon="6.4721">
        <ele>1581.99</ele>
        <time>2019-09-04T14:14:28Z</time>
      </trkpt>
      <trkpt lat="44.98408" lon="6.47239">
        <ele>1580.54</ele>
        <time>2019-09-04T14:14:44Z</time>
      </trkpt>
      <trkpt lat="44.98416" lon="6.47277">
        <ele>1578.14</ele>
        <time>2019-09-04T14:15:04Z</time>
      </trkpt>
      <trkpt lat="44.98416" lon="6.47278">
        <ele>1577.66</ele>
        <time>2019-09-04T14:15:05Z</time>
      </trkpt>
      <trkpt lat="44.98419" lon="6.47284">
        <ele>1577.18</ele>
        <time>2019-09-04T14:15:09Z</time>
      </trkpt>
      <trkpt lat="44.98421" lon="6.4729">
        <ele>1576.22</ele>
        <time>2019-09-04T14:15:13Z</time>
      </trkpt>
      <trkpt lat="44.98423" lon="6.47294">
        <ele>1575.74</ele>
        <time>2019-09-04T14:15:16Z</time>
      </trkpt>
      <trkpt lat="44.98427" lon="6.47319">
        <ele>1574.78</ele>
        <time>2019-09-04T14:15:28Z</time>
      </trkpt>
      <trkpt lat="44.98435" lon="6.47347">
        <ele>1573.33</ele>
        <time>2019-09-04T14:15:45Z</time>
      </trkpt>
      <trkpt lat="44.98445" lon="6.47374">
        <ele>1572.37</ele>
        <time>2019-09-04T14:16:00Z</time>
      </trkpt>
      <trkpt lat="44.9845" lon="6.47396">
        <ele>1570.93</ele>
        <time>2019-09-04T14:16:13Z</time>
      </trkpt>
      <trkpt lat="44.98451" lon="6.47408">
        <ele>1569.97</ele>
        <time>2019-09-04T14:16:23Z</time>
      </trkpt>
      <trkpt lat="44.98454" lon="6.47433">
        <ele>1569.01</ele>
        <time>2019-09-04T14:16:36Z</time>
      </trkpt>
      <trkpt lat="44.98455" lon="6.47445">
        <ele>1568.05</ele>
        <time>2019-09-04T14:16:42Z</time>
      </trkpt>
      <trkpt lat="44.98459" lon="6.47472">
        <ele>1566.61</ele>
        <time>2019-09-04T14:16:55Z</time>
      </trkpt>
      <trkpt lat="44.98464" lon="6.47507">
        <ele>1564.68</ele>
        <time>2019-09-04T14:17:13Z</time>
      </trkpt>
      <trkpt lat="44.98465" lon="6.47512">
        <ele>1564.68</ele>
        <time>2019-09-04T14:17:16Z</time>
      </trkpt>
      <trkpt lat="44.9848" lon="6.47538">
        <ele>1562.76</ele>
        <time>2019-09-04T14:17:34Z</time>
      </trkpt>
      <trkpt lat="44.98486" lon="6.4755">
        <ele>1562.76</ele>
        <time>2019-09-04T14:17:42Z</time>
      </trkpt>
      <trkpt lat="44.985" lon="6.47575">
        <ele>1560.36</ele>
        <time>2019-09-04T14:17:59Z</time>
      </trkpt>
      <trkpt lat="44.9851" lon="6.47599">
        <ele>1558.92</ele>
        <time>2019-09-04T14:18:16Z</time>
      </trkpt>
      <trkpt lat="44.98512" lon="6.47603">
        <ele>1558.92</ele>
        <time>2019-09-04T14:18:19Z</time>
      </trkpt>
      <trkpt lat="44.98521" lon="6.4763">
        <ele>1556.99</ele>
        <time>2019-09-04T14:18:35Z</time>
      </trkpt>
      <trkpt lat="44.9853" lon="6.47662">
        <ele>1555.55</ele>
        <time>2019-09-04T14:18:53Z</time>
      </trkpt>
      <trkpt lat="44.98532" lon="6.47668">
        <ele>1555.55</ele>
        <time>2019-09-04T14:18:56Z</time>
      </trkpt>
      <trkpt lat="44.98539" lon="6.47701">
        <ele>1553.63</ele>
        <time>2019-09-04T14:19:14Z</time>
      </trkpt>
      <trkpt lat="44.98539" lon="6.47703">
        <ele>1553.63</ele>
        <time>2019-09-04T14:19:16Z</time>
      </trkpt>
      <trkpt lat="44.98539" lon="6.47716">
        <ele>1553.15</ele>
        <time>2019-09-04T14:19:23Z</time>
      </trkpt>
      <trkpt lat="44.98547" lon="6.47747">
        <ele>1551.71</ele>
        <time>2019-09-04T14:19:40Z</time>
      </trkpt>
      <trkpt lat="44.98554" lon="6.47774">
        <ele>1550.74</ele>
        <time>2019-09-04T14:19:56Z</time>
      </trkpt>
      <trkpt lat="44.98554" lon="6.47775">
        <ele>1550.26</ele>
        <time>2019-09-04T14:20:14Z</time>
      </trkpt>
      <trkpt lat="44.9856" lon="6.47793">
        <ele>1549.78</ele>
        <time>2019-09-04T14:20:30Z</time>
      </trkpt>
      <trkpt lat="44.98561" lon="6.47801">
        <ele>1549.78</ele>
        <time>2019-09-04T14:20:35Z</time>
      </trkpt>
      <trkpt lat="44.98568" lon="6.4782">
        <ele>1549.3</ele>
        <time>2019-09-04T14:20:47Z</time>
      </trkpt>
      <trkpt lat="44.98579" lon="6.47848">
        <ele>1549.3</ele>
        <time>2019-09-04T14:21:03Z</time>
      </trkpt>
      <trkpt lat="44.98584" lon="6.47857">
        <ele>1548.82</ele>
        <time>2019-09-04T14:21:10Z</time>
      </trkpt>
      <trkpt lat="44.98585" lon="6.4786">
        <ele>1548.82</ele>
        <time>2019-09-04T14:21:12Z</time>
      </trkpt>
      <trkpt lat="44.98588" lon="6.47867">
        <ele>1548.82</ele>
        <time>2019-09-04T14:21:16Z</time>
      </trkpt>
      <trkpt lat="44.98593" lon="6.47877">
        <ele>1548.34</ele>
        <time>2019-09-04T14:21:22Z</time>
      </trkpt>
      <trkpt lat="44.98601" lon="6.47897">
        <ele>1546.9</ele>
        <time>2019-09-04T14:21:35Z</time>
      </trkpt>
      <trkpt lat="44.98609" lon="6.47923">
        <ele>1545.94</ele>
        <time>2019-09-04T14:21:52Z</time>
      </trkpt>
      <trkpt lat="44.98617" lon="6.47956">
        <ele>1544.5</ele>
        <time>2019-09-04T14:22:09Z</time>
      </trkpt>
      <trkpt lat="44.98626" lon="6.47983">
        <ele>1543.53</ele>
        <time>2019-09-04T14:22:25Z</time>
      </trkpt>
      <trkpt lat="44.98634" lon="6.4801">
        <ele>1541.61</ele>
        <time>2019-09-04T14:22:41Z</time>
      </trkpt>
      <trkpt lat="44.98645" lon="6.48031">
        <ele>1540.17</ele>
        <time>2019-09-04T14:22:58Z</time>
      </trkpt>
      <trkpt lat="44.98652" lon="6.48048">
        <ele>1539.69</ele>
        <time>2019-09-04T14:23:09Z</time>
      </trkpt>
      <trkpt lat="44.98667" lon="6.48072">
        <ele>1538.73</ele>
        <time>2019-09-04T14:23:26Z</time>
      </trkpt>
      <trkpt lat="44.98688" lon="6.48073">
        <ele>1537.29</ele>
        <time>2019-09-04T14:23:42Z</time>
      </trkpt>
      <trkpt lat="44.9871" lon="6.4808">
        <ele>1535.84</ele>
        <time>2019-09-04T14:24:00Z</time>
      </trkpt>
      <trkpt lat="44.98713" lon="6.48084">
        <ele>1535.84</ele>
        <time>2019-09-04T14:24:04Z</time>
      </trkpt>
      <trkpt lat="44.98731" lon="6.48103">
        <ele>1535.84</ele>
        <time>2019-09-04T14:24:21Z</time>
      </trkpt>
      <trkpt lat="44.98743" lon="6.48122">
        <ele>1535.84</ele>
        <time>2019-09-04T14:24:38Z</time>
      </trkpt>
      <trkpt lat="44.98742" lon="6.48132">
        <ele>1535.84</ele>
        <time>2019-09-04T14:24:45Z</time>
      </trkpt>
      <trkpt lat="44.98741" lon="6.48148">
        <ele>1536.8</ele>
        <time>2019-09-04T14:24:55Z</time>
      </trkpt>
      <trkpt lat="44.98736" lon="6.48172">
        <ele>1536.8</ele>
        <time>2019-09-04T14:25:11Z</time>
      </trkpt>
      <trkpt lat="44.98729" lon="6.48189">
        <ele>1535.36</ele>
        <time>2019-09-04T14:25:23Z</time>
      </trkpt>
      <trkpt lat="44.98724" lon="6.482">
        <ele>1534.88</ele>
        <time>2019-09-04T14:25:33Z</time>
      </trkpt>
      <trkpt lat="44.98715" lon="6.48205">
        <ele>1534.4</ele>
        <time>2019-09-04T14:25:41Z</time>
      </trkpt>
      <trkpt lat="44.9871" lon="6.48207">
        <ele>1534.4</ele>
        <time>2019-09-04T14:25:45Z</time>
      </trkpt>
      <trkpt lat="44.98685" lon="6.48224">
        <ele>1531.52</ele>
        <time>2019-09-04T14:26:05Z</time>
      </trkpt>
      <trkpt lat="44.98679" lon="6.4823">
        <ele>1531.04</ele>
        <time>2019-09-04T14:26:10Z</time>
      </trkpt>
      <trkpt lat="44.98674" lon="6.48233">
        <ele>1531.04</ele>
        <time>2019-09-04T14:26:24Z</time>
      </trkpt>
      <trkpt lat="44.98673" lon="6.48229">
        <ele>1531.04</ele>
        <time>2019-09-04T14:26:38Z</time>
      </trkpt>
      <trkpt lat="44.98673" lon="6.48229">
        <ele>1531.52</ele>
        <time>2019-09-04T14:26:55Z</time>
      </trkpt>
      <trkpt lat="44.98673" lon="6.4823">
        <ele>1530.56</ele>
        <time>2019-09-04T14:26:57Z</time>
      </trkpt>
      <trkpt lat="44.98673" lon="6.4823">
        <ele>1531.52</ele>
        <time>2019-09-04T14:27:13Z</time>
      </trkpt>
    </trkseg>
  </trk>
</gpx>